[[{"header":{"parameterUnit":"m.s-1","parameterCategory":1,"la1":31.0,"la2":29.5877,"lo1":-88.7671,"lo2":-86.6584,"dy":0.0162,"dx":0.0185,"nx":115,"ny":88,"refTime":"2023-07-28T18:00:00:Z","depth":0,"parameterNumber":2,"parameterNumberName":"U-component_of_WINDS"},"data":[0.0,0.0,0.0,0.0,0.0,0.0,0.0,0.0,0.0,0.0,0.0,0.0,0.0,0.0,0.0,0.0,0.0,0.0,0.0,0.0,0.0,0.0,0.0,0.0,0.0,0.0,0.0,0.0,0.0,0.0,0.0,0.0,0.0,0.0,0.0,0.0,0.0,0.0,0.0,0.0,0.0,0.0,0.0,0.0,0.0,0.0,0.0,0.0,0.0,0.0,0.0,0.0,0.0,0.0,0.0,0.0,0.0,0.0,0.0,0.0,0.0,0.0,0.0,0.0,0.0,0.0,0.0,0.0,0.0,0.0,0.0,0.0,0.0,0.0,0.0,0.0,0.0,0.0,0.0,0.0,0.0,0.0,0.0,0.0,0.0,0.0,0.0,0.0,0.0,0.0,0.0,0.0,0.0,0.0,0.0,0.0,0.0,0.0,0.0,0.0,0.0,0.0,0.0,0.0,0.0,0.0,0.0,0.0,0.0,0.0,0.0,0.0,0.0,0.0,0.0,0.0,0.0,0.0,0.0,0.0,0.0,0.0,0.0,0.0,0.0,0.0,0.0,0.0,0.0,0.0,0.0,0.0,0.0,0.0,0.0,0.0,0.0,0.0,0.0,0.0,0.0,0.0,0.0,0.0,0.0,0.0,0.0,0.0,0.0,0.0,0.0,0.0,0.0,0.0,0.0,0.0,0.0,0.0,0.0,0.0,0.0,0.0,0.0,0.0,0.0,0.0,0.0,0.0,0.0,0.0,0.0,0.0,0.0,0.0,0.0,0.0,0.0,0.0,0.0,0.0,0.0,0.0,0.0,0.0,0.0,0.0,0.0,0.0,0.0,0.0,0.0,0.0,0.0,0.0,0.0,0.0,0.0,0.0,0.0,0.0,0.0,0.0,0.0,0.0,0.0,0.0,0.0,0.0,0.0,0.0,0.0,0.0,0.0,0.0,0.0,0.0,0.0,0.0,0.0,0.0,0.0,0.0,0.0,0.0,0.0,0.0,0.0,0.0,0.0,0.0,0.0,0.0,0.0,0.0,0.0,0.0,0.0,0.0,0.0,0.0,0.0,0.0,0.0,0.0,0.0,0.0,0.0,0.0,0.0,0.0,0.0,0.0,0.0,0.0,0.0,0.0,0.0,0.0,0.0,0.0,0.0,0.0,0.0,0.0,0.0,0.0,0.0,0.0,0.0,0.0,0.0,0.0,0.0,0.0,0.0,0.0,0.0,0.0,0.0,0.0,0.0,0.0,0.0,0.0,0.0,0.0,0.0,0.0,0.0,0.0,0.0,0.0,0.0,0.0,0.0,0.0,0.0,0.0,0.0,0.0,0.0,0.0,0.0,0.0,0.0,0.0,0.0,0.0,0.0,0.0,0.0,0.0,0.0,0.0,0.0,0.0,0.0,0.0,0.0,0.0,0.0,0.0,0.0,0.0,0.0,0.0,0.0,0.0,0.0,0.0,0.0,0.0,0.0,0.0,0.0,0.0,0.0,0.0,0.0,0.0,0.0,0.0,0.0,0.0,0.0,0.0,0.0,0.0,0.0,0.0,0.0,0.0,0.0,0.0,0.0,0.0,0.0,0.0,0.0,0.0,0.0,0.0,0.0,0.0,0.0,0.0,0.0,0.0,0.0,0.0,0.0,0.0,0.0,0.0,0.0,0.0,0.0,0.0,0.0,0.0,0.0,0.0,0.0,0.0,0.0,0.0,0.0,0.0,0.0,0.0,0.0,0.0,0.0,0.0,0.0,0.0,0.0,0.0,0.0,0.0,0.0,0.0,0.0,0.0,0.0,0.0,0.0,0.0,0.0,0.0,0.0,0.0,0.0,0.0,0.0,0.0,0.0,0.0,0.0,0.0,0.0,0.0,0.0,0.0,0.0,0.0,0.0,0.0,0.0,0.0,0.0,0.0,0.0,0.0,0.0,0.0,0.0,0.0,0.0,0.0,0.0,0.0,0.0,0.0,0.0,0.0,0.0,0.0,0.0,0.0,0.0,0.0,0.0,0.0,0.0,0.0,0.0,0.0,0.0,0.0,0.0,0.0,0.0,0.0,0.0,0.0,0.0,0.0,0.0,0.0,0.0,0.0,0.0,0.0,0.0,0.0,0.0,0.0,0.0,0.0,0.0,0.0,0.0,0.0,0.0,0.0,0.0,0.0,0.0,0.0,0.0,0.0,0.0,0.0,0.0,0.0,0.0,0.0,0.0,0.0,0.0,0.0,0.0,0.0,0.0,0.0,0.0,0.0,0.0,0.0,0.0,0.0,0.0,0.0,0.0,0.0,0.0,0.0,0.0,0.0,0.0,0.0,0.0,0.0,0.0,0.0,0.0,0.0,0.0,0.0,0.0,0.0,0.0,0.0,0.0,0.0,0.0,0.0,0.0,0.0,0.0,0.0,0.0,0.0,0.0,0.0,0.0,0.0,0.0,0.0,0.0,0.0,0.0,0.0,0.0,0.0,0.0,0.0,0.0,0.0,0.0,0.0,0.0,0.0,0.0,0.0,0.0,0.0,0.0,0.0,0.0,0.0,0.0,0.0,0.0,0.0,0.0,0.0,0.0,0.0,0.0,0.0,0.0,0.0,0.0,0.0,0.0,0.0,0.0,0.0,0.0,0.0,0.0,0.0,0.0,0.0,0.0,0.0,0.0,0.0,0.0,0.0,0.0,0.0,0.0,0.0,0.0,0.0,0.0,0.0,0.0,0.0,0.0,0.0,0.0,0.0,0.0,0.0,0.0,0.0,0.0,0.0,0.0,0.0,0.0,0.0,0.0,0.0,0.0,0.0,0.0,0.0,0.0,0.0,0.0,0.0,0.0,0.0,0.0,0.0,0.0,0.0,0.0,0.0,0.0,0.0,0.0,0.0,0.0,0.0,0.0,0.0,0.0,0.0,0.0,0.0,0.0,0.0,0.0,0.0,0.0,0.0,0.0,0.0,0.0,0.0,0.0,0.0,0.0,0.0,0.0,0.0,0.0,0.0,0.0,0.0,0.0,0.0,0.0,0.0,0.0,0.0,0.0,0.0,0.0,0.0,0.0,0.0,0.0,0.0,0.0,0.0,0.0,0.0,0.0,0.0,0.0,0.0,0.0,0.0,0.0,0.0,0.0,0.0,0.0,0.0,0.0,0.0,0.0,0.0,0.0,0.0,0.0,0.0,0.0,0.0,0.0,0.0,0.0,0.0,0.0,0.0,0.0,0.0,0.0,0.0,0.0,0.0,0.0,0.0,0.0,0.0,0.0,0.0,0.0,0.0,0.0,0.0,0.0,0.0,0.0,0.0,0.0,0.0,0.0,0.0,0.0,0.0,0.0,0.0,0.0,0.0,0.0,0.0,0.0,0.0,0.0,0.0,0.0,0.0,0.0,0.0,0.0,0.0,0.0,0.0,0.0,0.0,0.0,0.0,0.0,0.0,0.0,0.0,0.0,0.0,0.0,0.0,0.0,0.0,0.0,0.0,0.0,0.0,0.0,0.0,0.0,0.0,0.0,0.0,0.0,0.0,0.0,0.0,0.0,0.0,0.0,0.0,0.0,0.0,0.0,0.0,0.0,0.0,0.0,0.0,0.0,0.0,0.0,0.0,0.0,0.0,0.0,0.0,0.0,0.0,0.0,0.0,0.0,0.0,0.0,0.0,0.0,0.0,0.0,0.0,0.0,0.0,0.0,0.0,0.0,0.0,0.0,0.0,0.0,0.0,0.0,0.0,0.0,0.0,0.0,0.0,0.0,0.0,0.0,0.0,0.0,0.0,0.0,0.0,0.0,0.0,0.0,0.0,0.0,0.0,0.0,0.0,0.0,0.0,0.0,0.0,0.0,0.0,0.0,0.0,0.0,0.0,0.0,0.0,0.0,0.0,0.0,0.0,0.0,0.0,0.0,0.0,0.0,0.0,0.0,0.0,0.0,0.0,0.0,0.0,0.0,0.0,0.0,0.0,0.0,0.0,0.0,0.0,0.0,0.0,0.0,0.0,0.0,0.0,0.0,0.0,0.0,0.0,0.0,0.0,0.0,0.0,0.0,0.0,0.0,0.0,0.0,0.0,0.0,0.0,0.0,0.0,0.0,0.0,0.0,0.0,0.0,0.0,0.0,0.0,0.0,0.0,0.0,0.0,0.0,0.0,0.0,0.0,0.0,0.0,0.0,0.0,0.0,0.0,0.0,0.0,0.0,0.0,0.0,0.0,0.0,0.0,0.0,0.0,0.0,0.0,0.0,0.0,0.0,0.0,0.0,0.0,0.0,0.0,0.0,0.0,0.0,0.0,0.0,0.0,-1.5204,0.0,0.0,0.0,0.0,0.0,0.0,0.0,0.0,0.0,0.0,0.0,0.0,0.0,0.0,0.0,0.0,0.0,0.0,0.0,0.0,0.0,0.0,0.0,0.0,0.0,0.0,0.0,0.0,0.0,0.0,0.0,0.0,0.0,0.0,0.0,0.0,0.0,0.0,0.0,0.0,0.0,0.0,0.0,0.0,0.0,0.0,0.0,0.0,0.0,0.0,0.0,0.0,0.0,0.0,0.0,0.0,0.0,0.0,0.0,0.0,0.0,0.0,0.0,0.0,0.0,0.0,0.0,0.0,0.0,0.0,0.0,0.0,0.0,0.0,0.0,0.0,0.0,0.0,0.0,0.0,0.0,0.0,0.0,0.0,0.0,0.0,0.0,0.0,0.0,0.0,0.0,0.0,0.0,0.0,0.0,0.0,0.0,0.0,0.0,0.0,0.0,0.0,0.0,0.0,0.0,0.0,0.0,0.0,0.0,0.0,-1.4433,-1.4595,-1.4766,-1.4936,-1.5136,0.0,0.0,0.0,0.0,0.0,0.0,0.0,0.0,0.0,0.0,0.0,0.0,0.0,0.0,0.0,0.0,0.0,0.0,0.0,0.0,0.0,0.0,0.0,0.0,0.0,0.0,0.0,0.0,0.0,0.0,0.0,0.0,0.0,0.0,0.0,0.0,0.0,0.0,0.0,0.0,0.0,0.0,0.0,0.0,0.0,0.0,0.0,0.0,0.0,0.0,0.0,0.0,0.0,0.0,0.0,0.0,0.0,0.0,0.0,0.0,0.0,0.0,0.0,0.0,0.0,0.0,0.0,0.0,0.0,0.0,0.0,0.0,0.0,0.0,0.0,0.0,0.0,0.0,0.0,0.0,0.0,0.0,0.0,0.0,0.0,0.0,0.0,0.0,0.0,0.0,0.0,0.0,0.0,0.0,0.0,0.0,0.0,0.0,0.0,0.0,0.0,0.0,0.0,0.0,0.0,0.0,0.0,0.0,0.0,0.0,0.0,0.0,-1.4656,-1.4854,-1.5096,0.0,0.0,0.0,0.0,0.0,0.0,0.0,0.0,0.0,0.0,0.0,0.0,0.0,0.0,0.0,0.0,0.0,0.0,0.0,0.0,0.0,0.0,0.0,0.0,0.0,0.0,0.0,0.0,0.0,0.0,0.0,0.0,0.0,0.0,0.0,0.0,0.0,0.0,0.0,0.0,0.0,0.0,0.0,0.0,0.0,0.0,0.0,0.0,0.0,0.0,0.0,0.0,0.0,0.0,0.0,0.0,0.0,0.0,0.0,0.0,0.0,0.0,0.0,0.0,0.0,0.0,0.0,0.0,0.0,0.0,0.0,0.0,0.0,0.0,0.0,0.0,0.0,0.0,0.0,0.0,0.0,0.0,0.0,0.0,0.0,0.0,0.0,0.0,0.0,0.0,0.0,0.0,0.0,0.0,0.0,0.0,0.0,0.0,0.0,0.0,0.0,0.0,0.0,0.0,0.0,0.0,0.0,0.0,0.0,0.0,-1.4264,-1.4398,-1.4561,0.0,-1.5061,0.0,0.0,0.0,0.0,0.0,0.0,0.0,0.0,0.0,0.0,0.0,0.0,0.0,0.0,0.0,0.0,0.0,0.0,0.0,0.0,0.0,0.0,0.0,0.0,0.0,0.0,0.0,0.0,0.0,0.0,0.0,0.0,0.0,0.0,0.0,0.0,0.0,0.0,0.0,0.0,0.0,0.0,0.0,0.0,0.0,0.0,0.0,0.0,0.0,0.0,0.0,0.0,0.0,0.0,0.0,0.0,0.0,0.0,0.0,0.0,0.0,0.0,0.0,0.0,0.0,0.0,0.0,0.0,0.0,0.0,0.0,0.0,0.0,0.0,0.0,0.0,0.0,0.0,0.0,0.0,0.0,0.0,0.0,0.0,0.0,0.0,0.0,0.0,0.0,0.0,0.0,0.0,0.0,0.0,0.0,0.0,0.0,0.0,0.0,0.0,0.0,0.0,0.0,0.0,0.0,0.0,0.0,0.0,0.0,0.0,-1.5634,-1.5742,-1.6011,-1.6023,0.0,0.0,0.0,0.0,0.0,0.0,0.0,0.0,0.0,0.0,0.0,0.0,0.0,0.0,0.0,0.0,0.0,0.0,0.0,0.0,0.0,0.0,0.0,0.0,0.0,0.0,0.0,0.0,0.0,0.0,0.0,0.0,0.0,0.0,0.0,0.0,0.0,0.0,0.0,0.0,0.0,0.0,0.0,0.0,0.0,0.0,0.0,0.0,0.0,0.0,0.0,0.0,0.0,0.0,0.0,0.0,0.0,0.0,0.0,0.0,0.0,0.0,0.0,0.0,0.0,0.0,0.0,0.0,0.0,0.0,0.0,0.0,0.0,0.0,0.0,0.0,0.0,0.0,0.0,0.0,0.0,0.0,0.0,0.0,0.0,0.0,0.0,0.0,0.0,0.0,0.0,0.0,0.0,0.0,0.0,0.0,0.0,0.0,0.0,0.0,0.0,0.0,0.0,0.0,0.0,0.0,0.0,0.0,0.0,0.0,-1.614,-1.6538,-1.6704,-1.699,-1.6935,-1.6507,0.0,0.0,0.0,0.0,0.0,0.0,0.0,0.0,0.0,0.0,0.0,0.0,0.0,0.0,0.0,0.0,0.0,0.0,0.0,0.0,0.0,0.0,0.0,0.0,0.0,0.0,0.0,0.0,0.0,0.0,0.0,0.0,0.0,0.0,0.0,0.0,0.0,0.0,0.0,0.0,0.0,0.0,0.0,0.0,0.0,0.0,0.0,0.0,0.0,0.0,0.0,0.0,0.0,0.0,0.0,0.0,0.0,0.0,0.0,0.0,0.0,0.0,0.0,0.0,0.0,0.0,0.0,0.0,0.0,0.0,0.0,0.0,0.0,0.0,0.0,0.0,0.0,0.0,0.0,0.0,0.0,0.0,0.0,0.0,0.0,0.0,0.0,0.0,0.0,0.0,0.0,0.0,0.0,0.0,0.0,0.0,0.0,0.0,0.0,0.0,0.0,0.0,0.0,0.0,0.0,0.0,0.0,0.0,-1.6258,-1.638,-1.6524,-1.674,-1.6918,-1.7089,0.0,0.0,0.0,0.0,0.0,0.0,0.0,0.0,0.0,0.0,0.0,0.0,0.0,0.0,0.0,0.0,0.0,0.0,0.0,0.0,0.0,0.0,0.0,0.0,0.0,0.0,0.0,0.0,0.0,0.0,0.0,0.0,0.0,0.0,0.0,0.0,0.0,0.0,0.0,0.0,0.0,0.0,0.0,0.0,0.0,0.0,0.0,0.0,0.0,0.0,0.0,0.0,0.0,0.0,0.0,0.0,0.0,0.0,0.0,0.0,0.0,0.0,0.0,0.0,0.0,0.0,0.0,0.0,0.0,0.0,0.0,0.0,0.0,0.0,0.0,0.0,0.0,0.0,0.0,0.0,0.0,0.0,0.0,0.0,0.0,0.0,0.0,0.0,0.0,0.0,0.0,0.0,0.0,0.0,0.0,0.0,0.0,0.0,0.0,0.0,0.0,0.0,0.0,0.0,0.0,0.0,0.0,0.0,0.0,-1.7038,-1.7613,-1.8002,-1.8185,-1.8337,-1.8269,0.0,0.0,0.0,0.0,0.0,0.0,0.0,0.0,0.0,0.0,0.0,0.0,0.0,0.0,0.0,0.0,0.0,0.0,0.0,0.0,0.0,0.0,0.0,0.0,0.0,0.0,0.0,0.0,0.0,0.0,0.0,0.0,0.0,0.0,0.0,0.0,0.0,0.0,0.0,0.0,0.0,0.0,0.0,0.0,0.0,0.0,0.0,0.0,0.0,0.0,0.0,0.0,0.0,0.0,0.0,0.0,0.0,0.0,0.0,0.0,0.0,0.0,0.0,0.0,0.0,0.0,0.0,0.0,0.0,0.0,0.0,0.0,0.0,0.0,0.0,0.0,0.0,0.0,0.0,0.0,0.0,0.0,0.0,0.0,0.0,0.0,0.0,0.0,0.0,0.0,0.0,0.0,0.0,0.0,0.0,0.0,0.0,0.0,0.0,0.0,0.0,0.0,0.0,0.0,0.0,0.0,0.0,0.0,0.0,-1.8157,0.0,-1.9448,-1.9309,-1.9413,-1.9212,0.0,0.0,0.0,0.0,0.0,0.0,0.0,0.0,0.0,0.0,0.0,0.0,0.0,0.0,0.0,0.0,0.0,0.0,0.0,0.0,0.0,0.0,0.0,0.0,0.0,0.0,0.0,0.0,0.0,0.0,0.0,0.0,0.0,0.0,0.0,0.0,0.0,0.0,0.0,0.0,0.0,0.0,0.0,0.0,0.0,0.0,0.0,0.0,0.0,0.0,0.0,0.0,0.0,0.0,0.0,0.0,0.0,0.0,0.0,0.0,0.0,0.0,0.0,0.0,0.0,0.0,0.0,0.0,0.0,0.0,0.0,0.0,0.0,0.0,0.0,0.0,0.0,0.0,0.0,0.0,0.0,0.0,0.0,0.0,0.0,0.0,0.0,0.0,0.0,0.0,0.0,0.0,0.0,0.0,0.0,0.0,0.0,0.0,0.0,0.0,0.0,0.0,0.0,0.0,0.0,0.0,0.0,0.0,-1.8944,-1.9698,-2.0573,-2.0681,-1.9964,-2.0043,-1.9857,0.0,0.0,0.0,0.0,0.0,0.0,0.0,0.0,0.0,0.0,0.0,0.0,0.0,0.0,0.0,0.0,0.0,0.0,0.0,0.0,0.0,0.0,0.0,0.0,0.0,0.0,0.0,0.0,0.0,0.0,0.0,0.0,0.0,0.0,0.0,0.0,0.0,0.0,0.0,0.0,0.0,0.0,0.0,0.0,0.0,0.0,0.0,0.0,0.0,0.0,0.0,0.0,0.0,0.0,0.0,0.0,0.0,0.0,0.0,0.0,0.0,0.0,0.0,0.0,0.0,0.0,0.0,0.0,0.0,0.0,0.0,0.0,0.0,0.0,0.0,0.0,0.0,0.0,0.0,0.0,0.0,0.0,0.0,0.0,0.0,0.0,0.0,0.0,0.0,0.0,0.0,0.0,0.0,0.0,0.0,0.0,0.0,0.0,0.0,0.0,0.0,0.0,0.0,0.0,0.0,0.0,0.0,0.0,0.0,-2.1033,-2.1872,-2.1949,-2.1236,-2.0888,-2.0425,0.0,0.0,0.0,0.0,0.0,0.0,0.0,0.0,0.0,0.0,0.0,0.0,0.0,0.0,0.0,0.0,0.0,0.0,0.0,0.0,0.0,0.0,0.0,0.0,0.0,0.0,0.0,0.0,0.0,0.0,0.0,0.0,0.0,0.0,0.0,0.0,0.0,0.0,0.0,0.0,0.0,0.0,0.0,0.0,0.0,0.0,0.0,0.0,0.0,0.0,0.0,0.0,0.0,0.0,0.0,0.0,0.0,0.0,0.0,0.0,0.0,0.0,0.0,0.0,0.0,0.0,0.0,0.0,0.0,0.0,0.0,0.0,0.0,0.0,0.0,0.0,0.0,0.0,0.0,0.0,0.0,0.0,0.0,0.0,0.0,0.0,0.0,0.0,0.0,0.0,0.0,0.0,0.0,0.0,0.0,0.0,0.0,0.0,0.0,0.0,0.0,0.0,0.0,0.0,0.0,0.0,0.0,0.0,0.0,-2.3027,-2.3419,-2.3297,-2.2556,-2.1995,-2.1229,-2.0327,0.0,0.0,0.0,0.0,0.0,0.0,0.0,0.0,0.0,0.0,0.0,0.0,0.0,0.0,0.0,0.0,0.0,0.0,0.0,0.0,0.0,0.0,0.0,0.0,0.0,0.0,0.0,0.0,0.0,0.0,0.0,0.0,0.0,0.0,0.0,0.0,0.0,0.0,0.0,0.0,0.0,0.0,0.0,0.0,0.0,0.0,0.0,0.0,0.0,0.0,0.0,0.0,0.0,0.0,0.0,0.0,0.0,0.0,0.0,0.0,0.0,0.0,0.0,0.0,0.0,0.0,0.0,0.0,0.0,0.0,0.0,0.0,0.0,0.0,0.0,0.0,0.0,0.0,0.0,0.0,0.0,0.0,0.0,0.0,0.0,0.0,0.0,0.0,0.0,0.0,0.0,0.0,0.0,0.0,0.0,0.0,0.0,0.0,0.0,0.0,0.0,0.0,0.0,0.0,0.0,0.0,0.0,0.0,-2.5363,-2.5135,-2.4628,-2.3904,-2.3252,-2.2263,0.0,0.0,0.0,0.0,0.0,0.0,0.0,0.0,0.0,0.0,0.0,0.0,0.0,0.0,0.0,0.0,0.0,0.0,0.0,0.0,0.0,0.0,0.0,0.0,0.0,0.0,0.0,0.0,0.0,0.0,0.0,0.0,0.0,0.0,0.0,0.0,0.0,0.0,0.0,0.0,0.0,0.0,0.0,0.0,0.0,0.0,0.0,0.0,0.0,0.0,0.0,0.0,0.0,0.0,0.0,0.0,0.0,0.0,0.0,0.0,0.0,0.0,0.0,0.0,0.0,0.0,0.0,0.0,0.0,0.0,0.0,0.0,0.0,0.0,0.0,0.0,0.0,0.0,0.0,0.0,0.0,0.0,0.0,0.0,0.0,0.0,0.0,0.0,0.0,0.0,0.0,0.0,0.0,0.0,0.0,0.0,0.0,0.0,0.0,0.0,0.0,0.0,0.0,0.0,0.0,0.0,0.0,0.0,0.0,-2.5296,-2.5815,-2.5795,-2.5128,-2.4515,-2.3289,0.0,0.0,0.0,0.0,0.0,0.0,0.0,0.0,0.0,0.0,0.0,0.0,0.0,0.0,0.0,0.0,0.0,0.0,0.0,0.0,0.0,0.0,0.0,0.0,0.0,0.0,0.0,0.0,0.0,0.0,0.0,0.0,0.0,0.0,0.0,0.0,0.0,0.0,0.0,0.0,0.0,0.0,0.0,0.0,0.0,0.0,0.0,0.0,0.0,0.0,0.0,0.0,0.0,0.0,0.0,0.0,0.0,0.0,0.0,0.0,0.0,0.0,0.0,0.0,0.0,0.0,0.0,0.0,0.0,0.0,0.0,0.0,0.0,0.0,0.0,0.0,0.0,0.0,0.0,0.0,0.0,0.0,0.0,0.0,0.0,0.0,0.0,0.0,0.0,0.0,0.0,0.0,0.0,0.0,0.0,0.0,0.0,0.0,0.0,0.0,0.0,0.0,0.0,0.0,0.0,0.0,0.0,0.0,-2.5246,-2.6402,-2.6656,-2.6596,-2.6285,-2.5459,-2.4143,0.0,0.0,0.0,0.0,0.0,0.0,0.0,0.0,0.0,0.0,0.0,0.0,0.0,0.0,0.0,0.0,0.0,0.0,0.0,0.0,0.0,0.0,0.0,0.0,0.0,0.0,0.0,0.0,0.0,0.0,0.0,0.0,0.0,0.0,0.0,0.0,0.0,0.0,0.0,0.0,0.0,0.0,0.0,0.0,0.0,0.0,0.0,0.0,0.0,0.0,0.0,0.0,0.0,0.0,0.0,0.0,0.0,0.0,0.0,0.0,0.0,0.0,0.0,0.0,0.0,0.0,0.0,0.0,0.0,0.0,0.0,0.0,0.0,0.0,0.0,0.0,0.0,0.0,0.0,0.0,0.0,0.0,0.0,0.0,0.0,0.0,0.0,0.0,0.0,0.0,0.0,0.0,0.0,0.0,0.0,0.0,0.0,0.0,0.0,0.0,0.0,0.0,0.0,0.0,0.0,0.0,0.0,0.0,-2.5928,-2.7846,-2.7301,-2.705,-2.7158,-2.6098,-2.4791,0.0,0.0,0.0,0.0,0.0,0.0,0.0,0.0,0.0,0.0,0.0,0.0,0.0,0.0,0.0,0.0,0.0,0.0,0.0,0.0,0.0,0.0,0.0,0.0,0.0,0.0,0.0,0.0,0.0,0.0,0.0,0.0,0.0,0.0,0.0,0.0,0.0,0.0,0.0,0.0,0.0,0.0,0.0,0.0,0.0,0.0,0.0,0.0,0.0,0.0,0.0,0.0,0.0,0.0,0.0,0.0,0.0,0.0,0.0,0.0,0.0,0.0,0.0,0.0,0.0,0.0,0.0,0.0,0.0,0.0,0.0,0.0,0.0,0.0,0.0,0.0,0.0,0.0,0.0,0.0,0.0,0.0,0.0,0.0,0.0,0.0,0.0,0.0,0.0,0.0,0.0,0.0,0.0,0.0,0.0,0.0,0.0,0.0,0.0,0.0,0.0,0.0,0.0,0.0,0.0,0.0,0.0,0.0,-2.5589,-2.7057,-2.6545,-2.6502,-2.7097,-2.6475,-2.5163,0.0,0.0,0.0,0.0,0.0,0.0,0.0,0.0,0.0,0.0,0.0,0.0,0.0,0.0,0.0,0.0,0.0,0.0,0.0,0.0,0.0,0.0,0.0,0.0,0.0,0.0,0.0,0.0,0.0,0.0,0.0,0.0,0.0,0.0,0.0,0.0,0.0,0.0,0.0,0.0,0.0,0.0,0.0,0.0,0.0,0.0,0.0,0.0,-0.947,0.0,0.0,0.0,0.0,0.0,0.0,0.0,0.0,0.0,0.0,0.0,0.0,0.0,0.0,0.0,0.0,0.0,0.0,0.0,0.0,0.0,0.0,0.0,0.0,0.0,0.0,0.0,0.0,0.0,0.0,0.0,0.0,0.0,0.0,0.0,0.0,0.0,0.0,0.0,0.0,0.0,0.0,0.0,0.0,0.0,0.0,0.0,0.0,0.0,0.0,0.0,0.0,0.0,0.0,0.0,0.0,0.0,0.0,0.0,-2.5884,-2.7215,-2.6673,-2.6566,-2.6913,-2.6076,-2.4944,0.0,0.0,0.0,0.0,0.0,0.0,0.0,0.0,0.0,0.0,0.0,0.0,0.0,0.0,0.0,0.0,0.0,0.0,0.0,0.0,0.0,0.0,0.0,0.0,0.0,0.0,0.0,0.0,0.0,0.0,0.0,0.0,0.0,0.0,0.0,0.0,0.0,0.0,0.0,0.0,0.0,0.0,0.0,0.0,0.0,0.0,0.0,0.0,0.0,0.0,0.0,0.0,0.0,0.0,0.0,0.0,0.0,0.0,0.0,0.0,0.0,0.0,0.0,0.0,0.0,0.0,0.0,0.0,0.0,0.0,0.0,0.0,0.0,0.0,0.0,0.0,0.0,0.0,0.0,0.0,0.0,0.0,0.0,0.0,0.0,0.0,0.0,0.0,0.0,0.0,0.0,0.0,0.0,0.0,0.0,0.0,0.0,0.0,0.0,0.0,0.0,0.0,0.0,0.0,0.0,0.0,0.0,-2.4491,-2.6175,-2.7462,-2.6942,-2.6691,-2.6769,-2.5613,-2.464,-2.3935,0.0,0.0,0.0,0.0,0.0,0.0,0.0,0.0,0.0,0.0,0.0,0.0,0.0,0.0,0.0,0.0,0.0,0.0,0.0,0.0,0.0,0.0,0.0,0.0,0.0,0.0,0.0,0.0,0.0,0.0,0.0,0.0,0.0,0.0,0.0,0.0,0.0,0.0,-0.7097,-0.8094,0.0,0.0,0.0,0.0,0.0,0.0,0.0,0.0,-1.0997,0.0,0.0,0.0,0.0,0.0,0.0,0.0,0.0,0.0,0.0,0.0,0.0,0.0,0.0,0.0,0.0,0.0,0.0,0.0,0.0,0.0,0.0,0.0,0.0,0.0,0.0,0.0,0.0,0.0,0.0,0.0,0.0,0.0,0.0,0.0,0.0,0.0,0.0,0.0,0.0,0.0,0.0,0.0,0.0,0.0,0.0,0.0,0.0,0.0,0.0,0.0,0.0,0.0,0.0,0.0,0.0,-2.241,-2.3935,-2.5408,-2.6818,-2.6214,-2.6189,-2.674,-2.6104,-2.506,-2.3684,0.0,0.0,0.0,0.0,0.0,0.0,0.0,0.0,0.0,0.0,0.0,0.0,0.0,0.0,0.0,0.0,0.0,0.0,0.0,0.0,0.0,0.0,0.0,0.0,0.0,0.0,0.0,0.0,0.0,0.0,0.0,0.0,0.0,0.0,0.0,0.0,0.0,0.0,0.0,-0.8628,-0.9288,0.0,0.0,0.0,0.0,0.0,0.0,0.0,0.0,-1.0907,0.0,0.0,0.0,0.0,0.0,0.0,0.0,0.0,0.0,0.0,0.0,0.0,0.0,0.0,0.0,0.0,0.0,0.0,0.0,0.0,0.0,0.0,0.0,0.0,0.0,0.0,0.0,0.0,0.0,0.0,0.0,0.0,0.0,0.0,0.0,0.0,0.0,0.0,0.0,0.0,0.0,0.0,0.0,0.0,0.0,0.0,0.0,0.0,0.0,0.0,0.0,0.0,0.0,0.0,0.0,-2.1294,-2.3345,-2.4763,-2.5387,-2.5457,-2.5669,-2.5973,-2.5047,-2.3963,0.0,0.0,0.0,0.0,0.0,0.0,0.0,0.0,0.0,0.0,0.0,0.0,0.0,0.0,0.0,0.0,0.0,0.0,0.0,0.0,0.0,0.0,0.0,0.0,0.0,0.0,0.0,0.0,0.0,0.0,0.0,0.0,0.0,0.0,0.0,0.0,0.0,0.0,0.0,0.0,-0.9692,-1.0319,-1.0814,0.0,0.0,0.0,0.0,0.0,0.0,-1.1999,-1.1885,0.0,0.0,0.0,0.0,0.0,0.0,0.0,0.0,0.0,0.0,0.0,0.0,0.0,0.0,0.0,0.0,0.0,0.0,0.0,0.0,0.0,0.0,0.0,0.0,0.0,0.0,0.0,0.0,0.0,0.0,0.0,0.0,0.0,0.0,0.0,0.0,0.0,0.0,0.0,0.0,0.0,0.0,0.0,0.0,0.0,0.0,0.0,0.0,0.0,0.0,0.0,0.0,0.0,0.0,0.0,-2.0139,-2.2468,-2.3877,-2.4138,-2.4729,-2.5013,-2.4981,-2.393,-2.2823,0.0,0.0,0.0,0.0,0.0,0.0,0.0,0.0,0.0,0.0,0.0,0.0,0.0,0.0,0.0,0.0,0.0,0.0,0.0,0.0,0.0,0.0,0.0,0.0,0.0,0.0,0.0,0.0,0.0,0.0,0.0,0.0,0.0,0.0,0.0,0.0,0.0,0.0,0.0,0.0,0.0,-1.1383,-1.2138,-1.2283,0.0,0.0,0.0,0.0,-1.3307,-1.2941,0.0,0.0,0.0,0.0,0.0,0.0,0.0,0.0,0.0,0.0,0.0,0.0,0.0,0.0,0.0,0.0,0.0,0.0,0.0,0.0,0.0,0.0,0.0,0.0,0.0,0.0,0.0,0.0,0.0,0.0,0.0,0.0,0.0,0.0,0.0,0.0,0.0,0.0,0.0,0.0,0.0,0.0,0.0,0.0,0.0,0.0,0.0,0.0,0.0,0.0,0.0,0.0,0.0,0.0,0.0,0.0,-1.9907,-2.0878,-2.2215,-2.384,-2.403,-2.4059,-2.4078,-2.39,-2.2864,0.0,0.0,0.0,0.0,0.0,0.0,0.0,0.0,0.0,0.0,0.0,0.0,0.0,0.0,0.0,0.0,0.0,0.0,0.0,0.0,0.0,0.0,0.0,0.0,0.0,0.0,0.0,0.0,0.0,0.0,0.0,0.0,0.0,0.0,0.0,0.0,0.0,0.0,0.0,0.0,0.0,-1.2018,-1.2634,-1.2677,-1.272,0.0,0.0,0.0,-1.2942,-1.2568,0.0,0.0,0.0,0.0,0.0,0.0,0.0,0.0,0.0,0.0,0.0,0.0,0.0,0.0,0.0,0.0,0.0,0.0,0.0,0.0,0.0,0.0,0.0,0.0,0.0,0.0,0.0,0.0,0.0,0.0,0.0,0.0,0.0,0.0,0.0,0.0,0.0,0.0,0.0,0.0,0.0,0.0,0.0,0.0,0.0,0.0,0.0,0.0,0.0,0.0,0.0,0.0,0.0,0.0,0.0,-1.8144,-1.9167,-2.0257,-2.1424,-2.2548,-2.2988,-2.3158,-2.3158,-2.2386,-2.1313,0.0,0.0,0.0,0.0,0.0,0.0,0.0,0.0,0.0,0.0,0.0,0.0,0.0,0.0,0.0,0.0,0.0,0.0,0.0,0.0,0.0,0.0,0.0,0.0,0.0,0.0,0.0,0.0,0.0,0.0,0.0,0.0,0.0,0.0,0.0,0.0,0.0,0.0,0.0,0.0,0.0,0.0,-1.2882,-1.3145,0.0,0.0,0.0,-1.3704,-1.3704,0.0,0.0,0.0,0.0,0.0,0.0,0.0,0.0,0.0,0.0,0.0,0.0,0.0,0.0,0.0,0.0,0.0,0.0,0.0,0.0,0.0,0.0,0.0,0.0,0.0,0.0,0.0,0.0,0.0,0.0,0.0,0.0,0.0,0.0,0.0,0.0,0.0,0.0,0.0,0.0,0.0,0.0,0.0,0.0,0.0,0.0,0.0,0.0,0.0,0.0,0.0,0.0,0.0,0.0,0.0,0.0,0.0,-1.8514,-1.9577,-2.0577,-2.1455,-2.1965,-2.2226,-2.2177,-2.1007,0.0,0.0,0.0,0.0,0.0,0.0,0.0,0.0,0.0,0.0,0.0,0.0,0.0,0.0,0.0,0.0,0.0,0.0,0.0,0.0,0.0,0.0,0.0,0.0,0.0,0.0,0.0,-1.092,0.0,0.0,0.0,0.0,0.0,0.0,0.0,0.0,0.0,0.0,0.0,0.0,0.0,0.0,-1.2268,-1.3047,-1.3369,-1.3638,0.0,0.0,-1.3899,-1.3812,-1.2772,-1.1956,0.0,0.0,0.0,0.0,0.0,0.0,0.0,0.0,0.0,0.0,0.0,0.0,0.0,0.0,0.0,0.0,0.0,0.0,0.0,0.0,0.0,0.0,0.0,0.0,0.0,0.0,0.0,0.0,0.0,0.0,0.0,0.0,0.0,0.0,0.0,0.0,0.0,0.0,0.0,0.0,0.0,0.0,0.0,0.0,0.0,0.0,0.0,0.0,0.0,0.0,0.0,0.0,0.0,0.0,0.0,-1.8192,-1.8439,-1.9412,-2.1054,-2.1191,-2.1167,-2.109,-2.0352,-1.9297,0.0,0.0,0.0,0.0,0.0,0.0,0.0,0.0,0.0,0.0,0.0,0.0,0.0,0.0,0.0,0.0,0.0,0.0,0.0,0.0,0.0,0.0,0.0,0.0,0.0,0.0,0.0,0.0,0.0,0.0,0.0,0.0,0.0,0.0,0.0,0.0,0.0,0.0,0.0,0.0,0.0,-1.2489,-1.327,-1.3194,-1.3065,0.0,0.0,-1.2846,-1.2414,-1.1952,-1.1469,-1.0973,0.0,0.0,0.0,0.0,0.0,0.0,0.0,0.0,0.0,0.0,0.0,0.0,0.0,0.0,0.0,0.0,0.0,0.0,0.0,0.0,0.0,0.0,0.0,0.0,0.0,0.0,0.0,0.0,0.0,0.0,0.0,0.0,0.0,0.0,0.0,0.0,0.0,0.0,0.0,0.0,0.0,0.0,0.0,0.0,0.0,0.0,0.0,0.0,0.0,0.0,0.0,0.0,0.0,-1.6724,-1.8051,-1.8128,-1.8891,-2.0332,-2.0337,-2.0298,-2.0261,-1.9066,-1.8155,0.0,0.0,0.0,0.0,0.0,0.0,0.0,0.0,0.0,0.0,0.0,0.0,0.0,0.0,0.0,0.0,0.0,0.0,0.0,0.0,0.0,0.0,0.0,0.0,0.0,0.0,0.0,0.0,-1.139,-1.1399,-1.119,0.0,0.0,0.0,0.0,0.0,0.0,0.0,0.0,0.0,0.0,-1.2645,-1.3048,-1.3209,0.0,0.0,-1.2815,-1.257,-1.2325,-1.1438,-1.0712,-1.0529,-1.036,0.0,0.0,0.0,0.0,0.0,0.0,0.0,0.0,0.0,0.0,0.0,0.0,0.0,0.0,0.0,0.0,0.0,0.0,0.0,0.0,0.0,0.0,0.0,0.0,0.0,0.0,0.0,0.0,0.0,0.0,0.0,0.0,0.0,0.0,0.0,0.0,0.0,0.0,0.0,0.0,0.0,0.0,0.0,0.0,0.0,0.0,0.0,0.0,0.0,0.0,0.0,0.0,-1.6804,-1.797,-1.8198,-1.8818,-1.9904,-1.983,-1.9636,-1.9325,-1.8096,-1.728,0.0,0.0,0.0,0.0,0.0,0.0,0.0,0.0,0.0,0.0,0.0,0.0,0.0,0.0,0.0,0.0,0.0,0.0,0.0,0.0,0.0,0.0,0.0,0.0,0.0,0.0,0.0,0.0,-1.1623,-1.1379,-1.0864,0.0,0.0,0.0,0.0,0.0,0.0,0.0,0.0,0.0,0.0,-1.2268,-1.2569,-1.2701,-1.2734,-1.2527,-1.2242,-1.1935,-1.1743,-1.0909,-1.0254,-1.0135,0.0,0.0,0.0,0.0,0.0,0.0,0.0,0.0,0.0,0.0,0.0,0.0,0.0,0.0,0.0,0.0,0.0,0.0,0.0,0.0,0.0,0.0,0.0,0.0,0.0,0.0,0.0,0.0,0.0,0.0,0.0,0.0,0.0,0.0,0.0,0.0,0.0,0.0,0.0,0.0,0.0,0.0,0.0,0.0,0.0,0.0,0.0,0.0,0.0,0.0,0.0,0.0,0.0,0.0,-1.7906,-1.8605,-1.9204,-1.9678,-1.9708,-1.9269,-1.8385,-1.7602,-1.6826,-1.6043,0.0,0.0,0.0,0.0,0.0,0.0,0.0,0.0,0.0,0.0,0.0,0.0,0.0,0.0,0.0,0.0,0.0,0.0,0.0,0.0,0.0,0.0,0.0,0.0,0.0,0.0,-1.2811,-1.2361,-1.1595,0.0,0.0,0.0,0.0,0.0,0.0,0.0,0.0,0.0,0.0,-1.1284,-1.1184,-1.183,-1.1488,-1.1213,-1.1194,-1.1055,-1.0818,-1.0478,-1.0337,-1.0153,0.0,0.0,0.0,0.0,0.0,0.0,0.0,0.0,0.0,0.0,0.0,0.0,0.0,0.0,0.0,0.0,0.0,0.0,0.0,0.0,0.0,0.0,0.0,0.0,0.0,0.0,0.0,0.0,-2.1309,0.0,0.0,0.0,0.0,0.0,0.0,0.0,0.0,0.0,0.0,0.0,-2.0308,-1.976,0.0,0.0,0.0,0.0,0.0,0.0,0.0,0.0,0.0,0.0,0.0,0.0,-1.7343,-1.8378,-1.8612,-1.9026,-1.9599,-1.9431,-1.898,-1.8247,-1.736,-1.6242,-1.489,0.0,0.0,0.0,0.0,0.0,0.0,0.0,0.0,0.0,0.0,0.0,0.0,0.0,0.0,0.0,0.0,0.0,0.0,0.0,0.0,0.0,0.0,0.0,0.0,0.0,-1.2572,0.0,0.0,0.0,0.0,0.0,0.0,0.0,0.0,0.0,0.0,0.0,-1.1692,-1.1235,-1.1405,-1.1528,-1.1371,-1.1438,-1.1463,0.0,0.0,0.0,0.0,0.0,0.0,0.0,0.0,0.0,0.0,0.0,0.0,0.0,0.0,-0.8648,-0.8788,-0.8816,-0.8909,-0.9271,0.0,0.0,0.0,0.0,0.0,0.0,0.0,0.0,0.0,0.0,0.0,0.0,0.0,0.0,0.0,0.0,-2.2132,0.0,0.0,0.0,0.0,0.0,0.0,0.0,0.0,-2.1784,-2.1476,-2.1461,-2.0944,-2.0673,0.0,-2.0597,-2.0002,0.0,0.0,0.0,0.0,0.0,0.0,0.0,0.0,-1.7848,-1.8655,-1.887,-1.9159,-1.949,-1.925,-1.8676,-1.7815,-1.6559,-1.5391,-1.4298,-1.3776,-1.3311,0.0,0.0,0.0,0.0,0.0,0.0,0.0,0.0,0.0,0.0,0.0,0.0,0.0,0.0,0.0,0.0,0.0,0.0,0.0,0.0,0.0,0.0,0.0,-1.3263,0.0,0.0,0.0,0.0,0.0,0.0,0.0,0.0,0.0,-1.1215,-1.1543,-1.1567,-1.101,-1.1186,-1.1339,-1.1258,0.0,0.0,0.0,0.0,0.0,0.0,0.0,-1.0342,-1.0256,-1.0321,-1.0318,-1.0213,-0.9899,-0.9611,-0.9354,0.0,0.0,-0.8755,-0.871,-0.8846,-0.9226,-0.9328,-0.944,-0.9704,-0.9836,-0.9862,0.0,0.0,0.0,0.0,0.0,0.0,0.0,0.0,-2.3801,-2.3631,0.0,-2.3307,0.0,0.0,0.0,0.0,0.0,0.0,0.0,0.0,-2.2109,-2.2055,-2.207,-2.1892,-2.1818,-2.1833,-2.1724,-2.1335,-2.0658,-1.9559,0.0,0.0,0.0,0.0,0.0,0.0,-1.87,-1.8762,-1.9287,-1.9538,-1.9395,-1.9209,-1.8415,-1.7013,-1.5349,-1.4389,-1.4203,-1.3993,-1.3575,-1.2864,-1.2226,0.0,0.0,0.0,0.0,0.0,0.0,0.0,0.0,0.0,0.0,0.0,0.0,0.0,0.0,0.0,0.0,0.0,0.0,0.0,0.0,-1.4139,0.0,0.0,0.0,0.0,0.0,0.0,0.0,0.0,0.0,0.0,-1.0409,-1.0629,-1.0879,-1.0984,0.0,0.0,0.0,0.0,-1.0929,-1.0938,-1.0916,-1.0965,-1.0965,-1.0938,-1.0919,-1.0906,0.0,0.0,-1.0364,-0.9969,-0.9721,-0.9703,-0.9666,-0.9594,-0.9179,-0.9106,-0.9421,-1.029,-1.0463,-1.0776,-1.1355,-1.1292,-1.1253,-2.7823,0.0,0.0,0.0,0.0,-2.4743,-2.463,-2.4626,-2.5081,-2.4785,-2.3941,-2.3941,0.0,0.0,0.0,0.0,0.0,0.0,-2.3046,-2.357,-2.3385,-2.3287,-2.3251,-2.2762,-2.249,-2.2444,-2.1924,-2.1605,-2.141,-2.106,-2.0055,-1.8433,0.0,0.0,0.0,0.0,-1.8927,-1.939,-1.9452,-1.9446,-1.9409,-1.9064,-1.8142,-1.6606,-1.5524,-1.4674,-1.4092,-1.3911,-1.3676,-1.3299,-1.2324,0.0,0.0,0.0,0.0,0.0,0.0,0.0,0.0,0.0,0.0,0.0,0.0,0.0,0.0,0.0,0.0,0.0,0.0,0.0,-1.435,-1.426,-1.3808,0.0,0.0,0.0,0.0,0.0,0.0,0.0,0.0,0.0,-1.0934,-1.1361,-1.1402,0.0,0.0,-1.1036,-1.1072,-1.121,-1.1329,-1.1329,0.0,0.0,0.0,-1.1513,-1.1329,-1.1338,-1.1104,-1.0772,-1.0364,-1.019,-1.0033,-0.9767,-0.9703,-0.9657,-0.9556,-0.9568,-0.971,-0.9964,-1.0151,-1.0329,-1.0595,-1.0695,-1.0824,-3.1197,-2.9678,-2.7554,-2.6638,-2.6555,-2.6286,-2.621,-2.6312,-2.6592,-2.6317,-2.5574,-2.5509,-2.5114,-2.4496,-2.4224,0.0,0.0,0.0,-2.4298,-2.4506,-2.4297,-2.4016,-2.3702,-2.3297,-2.3089,-2.3026,-2.2652,-2.2323,-2.2104,-2.2104,-2.135,-1.9929,0.0,0.0,-1.9851,-1.9884,-1.9959,-2.0079,-1.989,-1.9678,-1.9409,-1.878,-1.778,-1.6433,-1.562,-1.4816,-1.4043,-1.3815,-1.3657,-1.3514,-1.2555,-1.1921,0.0,0.0,0.0,0.0,0.0,0.0,0.0,0.0,0.0,0.0,0.0,-1.058,0.0,0.0,0.0,0.0,-1.3057,-1.3866,-1.4438,-1.4199,0.0,0.0,0.0,0.0,0.0,0.0,0.0,-1.1037,-1.095,-1.0958,-1.1184,-1.1512,-1.157,-1.1067,-1.117,-1.1302,-1.1375,0.0,-1.1718,-1.1742,-1.1945,-1.2076,-1.2076,-1.1899,-1.1742,-1.1742,-1.1402,-1.1072,-1.0824,-1.064,-1.0468,-1.0226,-1.0043,-0.9962,-0.9964,-0.9924,-0.9882,-0.9882,-1.0049,-1.0215,-1.0332,-1.0428,-1.0644,-3.4341,-3.3885,-3.0086,-2.844,-2.8232,-2.7883,-2.7998,-2.8459,-2.8145,-2.7891,-2.7684,-2.7495,-2.7322,-2.7073,-2.6638,0.0,0.0,-2.616,-2.5667,-2.5082,-2.4888,-2.4401,-2.3699,-2.3625,-2.3595,-2.3595,-2.3595,-2.331,-2.2793,-2.2763,-2.2463,-2.1859,-2.1844,-2.1799,-2.1695,-2.168,-2.1365,-2.0722,-2.0487,-2.0062,-1.9372,-1.8448,-1.7483,-1.6506,-1.5685,-1.4897,-1.4106,-1.3762,-1.3564,-1.3497,-1.2857,-1.2257,-1.1691,0.0,0.0,0.0,0.0,0.0,0.0,0.0,0.0,0.0,0.0,0.0,0.0,0.0,0.0,0.0,-1.351,0.0,-1.4003,-1.3997,0.0,0.0,0.0,-1.2793,-1.2668,-1.2156,-1.1731,-1.1448,0.0,0.0,0.0,0.0,-1.1446,-1.1366,-1.1336,-1.152,-1.203,-1.2058,-1.2076,-1.2073,-1.2067,-1.2076,-1.2076,-1.2073,-1.2064,-1.2055,-1.1798,-1.155,-1.1458,-1.1191,-1.0975,-1.0803,-1.0542,-1.0317,-1.0361,-1.0138,-1.0009,-1.0019,-1.0166,-1.0332,-1.0418,-1.0592,-1.0746,-3.5492,-3.411,-3.3074,-3.2196,-3.1372,-3.0044,-2.9427,-2.9257,-2.8588,-2.8099,-2.7705,-2.7643,-2.7432,-2.7094,-2.6879,-2.6667,-2.6481,-2.6378,-2.6122,-2.5735,-2.5107,-2.4634,-2.4335,-2.3849,-2.3595,-2.3595,-2.3595,-2.352,-2.3385,-2.3385,-2.3295,-2.3146,-2.3146,-2.2652,-2.1744,-2.1695,-2.138,-2.0722,-2.0563,-2.0066,-1.9205,-1.8731,-1.8092,-1.7186,-1.6282,-1.547,-1.4719,-1.3933,-1.3514,-1.3467,-1.282,-1.2386,-1.2282,-1.1349,0.0,0.0,0.0,0.0,0.0,0.0,0.0,0.0,0.0,-1.202,-1.2203,0.0,-1.3343,0.0,-1.3647,-1.3821,-1.4145,-1.3917,0.0,0.0,-1.3503,-1.3087,-1.2478,-1.218,-1.1914,-1.1569,-1.1404,-1.1363,-1.1543,-1.1541,-1.1559,-1.1751,-1.1758,-1.1818,-1.2067,-1.2076,-1.2076,-1.2076,-1.2076,-1.2076,-1.2076,-1.2076,-1.2076,-1.2076,-1.2018,-1.1862,-1.1568,-1.1407,-1.1164,-1.0653,-1.0452,-1.0317,-1.0166,-1.0067,-1.0127,-1.0205,-1.0312,-1.0438,-1.0659,-1.0774,-1.0981,-3.7281,-3.5978,-3.5801,-3.5186,-3.4117,-3.2315,-3.1243,-3.0667,-3.0081,-2.9494,-2.8915,-2.8728,-2.8431,-2.8072,-2.7939,-2.7745,-2.7518,-2.7426,-2.7088,-2.6504,-2.6031,-2.5387,-2.4665,-2.4238,-2.3894,-2.361,-2.3595,-2.3595,-2.3595,-2.3595,-2.3595,-2.3595,-2.3595,-2.3251,-2.2577,-2.2283,-2.1814,-2.1156,-2.0376,-1.9729,-1.9116,-1.8855,-1.8309,-1.7413,-1.651,-1.5685,-1.4893,-1.3977,-1.348,-1.3446,-1.2981,-1.2634,-1.2416,-1.1786,-1.1442,0.0,0.0,0.0,0.0,0.0,0.0,0.0,0.0,0.0,0.0,0.0,-1.4048,0.0,-1.4234,0.0,-1.4312,-1.4198,-1.4049,-1.3942,-1.3662,-1.3246,-1.2673,-1.2388,-1.2124,-1.1808,-1.1636,-1.1634,-1.1841,-1.1769,-1.1728,-1.1868,-1.1952,-1.2026,-1.2076,-1.2076,-1.2076,-1.2076,-1.2076,-1.2076,-1.2076,-1.2076,-1.2076,-1.2076,-1.2076,-1.2018,-1.1792,-1.177,-1.1638,-1.1319,-1.11,-1.0957,-1.0904,-1.081,-1.0809,-1.0972,-1.1095,-1.1065,-1.0847,-1.0937,-1.1145,-3.9188,-3.8322,-3.7996,-3.7314,-3.6314,-3.4529,-3.3241,-3.2362,-3.1867,-3.1215,-3.0468,-3.0006,-2.9633,-2.9373,-2.919,-2.9021,-2.8842,-2.8684,-2.8168,-2.7362,-2.7113,-2.6303,-2.507,-2.4822,-2.438,-2.3744,-2.3744,-2.3684,-2.3595,-2.3595,-2.3595,-2.3595,-2.3595,-2.3595,-2.3565,-2.3017,-2.2353,-2.1695,-2.0279,-1.9369,-1.9041,-1.8821,-1.8295,-1.7357,-1.6537,-1.573,-1.4919,-1.4154,-1.3655,-1.3505,-1.3328,-1.2995,-1.2568,-1.2395,-1.2147,0.0,-1.2562,0.0,0.0,0.0,0.0,0.0,0.0,0.0,0.0,-1.3911,-1.4563,-1.498,-1.4858,-1.4688,-1.452,-1.4544,-1.4458,-1.4202,-1.3828,-1.3449,-1.3132,-1.2731,-1.2384,-1.2151,-1.2132,-1.215,-1.215,-1.2051,-1.1977,-1.1977,-1.2076,-1.2126,-1.2101,-1.2076,-1.2076,-1.2076,-1.2076,-1.2076,-1.2076,-1.2076,-1.2076,-1.2076,-1.2076,-1.2101,-1.2132,-1.2107,-1.2138,-1.2158,-1.1898,-1.1752,-1.1951,-1.1733,-1.1683,-1.1818,-1.1958,-1.1829,-1.1304,-1.1284,-1.1374,-4.0134,-3.9044,-3.8389,-3.7809,-3.718,-3.6182,-3.5104,-3.3955,-3.2593,-3.1441,-3.0485,-3.0006,-2.9766,-2.9661,-2.9403,-2.9167,-2.9045,-2.8842,-2.855,-2.8148,-2.735,-2.6803,-2.6389,-2.5721,-2.5076,-2.444,-2.441,-2.4126,-2.3595,-2.3595,-2.3595,-2.3595,-2.3595,-2.3595,-2.3565,0.0,0.0,0.0,-2.0771,-1.9757,-1.8744,-1.8454,-1.7903,-1.7008,-1.6475,0.0,-1.5548,-1.5101,-1.4622,-1.4085,-1.3862,0.0,0.0,0.0,0.0,0.0,0.0,0.0,0.0,0.0,0.0,0.0,-1.4427,-1.4327,-1.4285,-1.4651,-1.4768,-1.456,-1.4491,-1.4502,-1.4553,-1.4441,-1.4435,-1.462,-1.4207,-1.3835,-1.3637,-1.3189,-1.284,-1.273,-1.2555,-1.2431,-1.2421,-1.2406,-1.2348,-1.2249,-1.2258,-1.2224,-1.2135,-1.2101,-1.2076,-1.2076,-1.2076,-1.2076,-1.2076,-1.2101,-1.2101,-1.2076,-1.2076,-1.215,-1.2258,-1.2249,-1.2192,-1.213,-1.2006,-1.1926,-1.1896,-1.1786,-1.1884,-1.2028,-1.2189,-1.2256,-1.2194,-1.2256,-1.236,-4.1154,0.0,-3.9224,-3.8453,0.0,-3.6734,-3.595,-3.5254,-3.352,-3.1901,-3.0506,-3.0258,-3.0011,-2.9793,-2.9611,-2.938,-2.9075,-2.8975,-2.8779,-2.8477,-2.7931,-2.7387,-2.6877,-2.6425,-2.5796,-2.5098,-2.5098,-2.4739,-2.4111,-2.4081,-2.3939,-2.3595,-2.3595,-2.3595,-2.358,-2.3295,-2.2688,-2.1695,-2.091,-2.0035,-1.9129,-1.8496,-1.7927,-1.7348,0.0,0.0,0.0,0.0,0.0,0.0,0.0,0.0,0.0,0.0,0.0,-1.4801,-1.478,-1.4787,-1.4886,-1.5114,-1.5244,-1.5339,-1.5288,-1.5211,-1.517,-1.5276,-1.531,-1.5112,-1.5097,-1.5075,-1.5055,-1.4894,-1.4811,-1.4789,-1.4488,-1.4174,-1.3821,-1.3501,-1.3248,-1.3069,-1.2871,-1.2749,-1.2764,-1.2652,-1.2578,-1.2505,-1.2431,-1.2372,-1.2298,-1.2175,-1.2101,-1.2076,-1.2076,-1.2076,-1.2101,-1.215,-1.22,-1.2209,-1.2249,-1.2332,-1.2382,-1.2406,-1.238,-1.2349,-1.2406,-1.2437,-1.2447,-1.2496,-1.2632,-1.2814,-1.295,-1.3118,-1.3243,-1.3022,-1.2711,-4.2051,-4.1214,-4.0063,-3.9097,-3.8284,-3.697,-3.6274,-3.5966,0.0,0.0,0.0,-3.0597,-3.0279,-2.9919,-2.9837,-2.9589,-2.922,-2.9144,-2.8936,-2.8645,-2.8468,-2.7944,-2.7194,-2.7034,-2.6543,-2.5794,-2.5779,-2.5427,-2.4799,-2.4784,-2.444,-2.3834,-2.3774,-2.3714,-2.361,-2.3595,-2.3086,-2.2054,-2.1272,-2.0489,-1.9622,-1.8811,-1.8165,-1.768,-1.6956,-1.6619,-1.6727,-1.6151,-1.5652,-1.5267,-1.5158,-1.5132,-1.5132,-1.5067,-1.5078,-1.5178,-1.5565,-1.5745,-1.562,-1.6006,-1.6166,-1.601,-1.5869,-1.577,-1.5738,-1.577,-1.5792,-1.577,-1.577,-1.5691,-1.5491,-1.5345,-1.5142,-1.4834,-1.4673,-1.4372,-1.3986,-1.3739,-1.3539,-1.3314,-1.3156,-1.3045,-1.3021,-1.2886,-1.2774,-1.2735,-1.2652,-1.2569,-1.2554,-1.2348,-1.22,-1.22,-1.22,-1.2175,-1.22,-1.2283,-1.2323,-1.2332,-1.2421,-1.2505,-1.2554,-1.2554,-1.2627,-1.2759,-1.2895,-1.2997,-1.3128,-1.3249,-1.3478,-1.361,-1.3763,-1.3962,-1.4088,-1.365,-1.3184,-4.2416,-4.2002,-4.0417,-3.9542,-3.9027,-3.7423,-3.618,-3.5173,-3.3934,-3.2836,-3.1825,-3.09,-3.0485,-3.0368,-2.9968,-2.975,-2.9661,-2.9282,-2.9006,0.0,-2.8549,-2.822,-2.7868,-2.7705,-2.7234,-2.6507,-2.6452,-2.6108,-2.554,-2.5442,-2.5113,-2.4545,-2.4455,-2.4156,-2.364,-2.3595,-2.3505,-2.3325,-2.2712,-2.1491,-1.9652,-1.9365,-1.853,-1.7211,-1.7229,-1.7134,-1.6902,-1.7037,-1.6835,-1.6258,-1.6074,-1.6028,-1.6014,-1.5967,-1.6112,-1.6552,-1.6574,-1.6485,-1.6332,-1.6377,-1.6262,-1.6022,-1.5869,-1.5792,-1.5792,-1.5792,-1.577,-1.5738,-1.5715,-1.5592,-1.5368,-1.521,-1.5085,-1.4892,-1.4605,-1.4384,-1.4291,-1.3999,-1.3739,-1.3586,-1.3443,-1.33,-1.3228,-1.3156,-1.3069,-1.2944,-1.2895,-1.291,-1.2822,-1.2603,-1.2455,-1.2446,-1.2446,-1.2446,-1.2446,-1.2455,-1.2471,-1.248,-1.252,-1.2627,-1.2798,-1.2822,-1.2886,-1.3074,-1.3132,-1.3228,-1.3334,-1.3467,-1.3644,-1.3763,-1.3975,-1.4186,-1.435,-1.429,-1.4247,-4.2609,-4.2253,-4.063,-3.9736,-3.9315,-3.7516,-3.635,-3.5586,-3.4237,-3.3131,-3.2141,-3.1193,-3.0671,-3.0489,-3.0236,-3.0022,-2.9772,-2.9464,-2.919,-2.9006,-2.8732,-2.8484,-2.8217,-2.7989,-2.7665,-2.7264,-2.716,-2.6782,-2.6198,-2.6138,-2.563,-2.4649,-2.4246,-2.3894,-2.3625,-2.3595,-2.3595,-2.358,-2.3002,-2.2013,-2.0659,-1.9827,-1.8962,-1.805,-1.7752,-1.7585,-1.7591,-1.7686,-1.7511,-1.6996,-1.6956,-1.6908,-1.6853,-1.6799,-1.6889,-1.7039,-1.6939,-1.6803,-1.662,-1.6405,-1.6253,-1.611,-1.5903,-1.5814,-1.5814,-1.5814,-1.577,-1.576,-1.5738,-1.5649,-1.5537,-1.5323,-1.5153,-1.5006,-1.4811,-1.4617,-1.4512,-1.4291,-1.408,-1.3941,-1.381,-1.3716,-1.3644,-1.3515,-1.3396,-1.3296,-1.319,-1.3084,-1.3079,-1.2963,-1.2827,-1.2749,-1.271,-1.2725,-1.2725,-1.2749,-1.2764,-1.2764,-1.2827,-1.2924,-1.3045,-1.3069,-1.3118,-1.3194,-1.3314,-1.3443,-1.3515,-1.3692,-1.3858,-1.4069,-1.421,-1.4373,-1.4557,-1.4627,-1.4557,-4.2725,-4.2446,-4.0729,-3.9658,-3.8901,-3.7356,-3.652,-3.6117,-3.4593,-3.3433,-3.2578,-3.152,-3.0875,-3.0589,-3.0464,-3.0231,-2.9897,-2.9643,-2.9405,-2.9137,-2.8897,-2.8652,-2.8372,-2.8143,-2.793,-2.779,-2.765,-2.733,-2.6856,-2.6836,-2.6138,-2.4889,-2.4126,-2.3759,-2.3595,-2.3595,-2.3595,-2.3565,-2.3131,-2.2515,-2.1687,-2.0602,-1.9748,-1.9123,-1.8484,-1.8157,-1.8254,-1.8149,-1.7922,-1.7679,-1.7639,-1.7611,-1.7556,-1.7528,-1.7453,-1.7282,-1.7136,-1.6939,-1.6709,-1.6405,-1.6231,-1.62,-1.5947,-1.5814,-1.5814,-1.5814,-1.5814,-1.5792,-1.5738,-1.5715,-1.5671,-1.5514,-1.5335,-1.5165,-1.504,-1.4869,-1.4708,-1.4569,-1.443,-1.4303,-1.4197,-1.4104,-1.4033,-1.3858,-1.3739,-1.3668,-1.3491,-1.3362,-1.3362,-1.3386,-1.331,-1.3186,-1.3041,-1.2983,-1.2992,-1.3055,-1.3104,-1.3128,-1.3204,-1.33,-1.3314,-1.3338,-1.3372,-1.342,-1.3563,-1.3668,-1.3726,-1.3915,-1.4127,-1.4326,-1.4419,-1.4569,-1.4754,-1.4731,-1.4639,-4.2725,-4.2338,-4.0787,-3.8999,-3.7408,-3.6878,-3.6602,-3.6253,-3.4654,-3.3822,-3.3458,-3.1933,-3.1072,-3.0851,-3.0609,-3.038,-3.0124,-2.9814,-2.9547,-2.9259,-2.8959,-2.8652,-2.8411,-2.8128,-2.793,-2.779,-2.7675,-2.7555,-2.745,-2.7435,-2.6782,-2.5585,-2.4829,-2.4186,-2.3699,-2.3625,-2.361,-2.3595,-2.3493,-2.3043,-2.2258,-2.2041,-2.1266,-1.9834,-1.9558,-1.9123,-1.8548,-1.8268,-1.8169,-1.8129,-1.8143,-1.8069,-1.7942,-1.7889,-1.7727,-1.7488,-1.7303,-1.7031,-1.6752,-1.6525,-1.634,-1.62,-1.5947,-1.5814,-1.5814,-1.5814,-1.5814,-1.5814,-1.578,-1.5748,-1.5715,-1.5671,-1.5537,-1.5335,-1.5176,-1.5028,-1.4892,-1.48,-1.473,-1.4581,-1.4534,-1.4465,-1.4257,-1.4129,-1.4059,-1.3939,-1.3787,-1.375,-1.3821,-1.3844,-1.3844,-1.3773,-1.3525,-1.3266,-1.3324,-1.3338,-1.342,-1.3501,-1.3549,-1.3586,-1.3668,-1.3716,-1.3763,-1.3787,-1.3926,-1.3973,-1.4044,-1.4174,-1.4373,-1.4466,-1.4616,-1.4788,-1.488,-1.4869,-1.4789,-4.2804,-4.2563,-4.0919,-3.9022,-3.7214,-3.6869,-3.665,-3.6343,-3.4734,-3.3937,-3.3604,-3.2088,-3.119,-3.0892,-3.0712,-3.0464,-3.0189,-2.9908,-2.9627,-2.9389,-2.9029,-2.8763,-2.8589,-2.8192,-2.7955,-2.792,-2.77,-2.7585,-2.7525,-2.721,-2.6512,-2.563,-2.4918,-2.4455,-2.4186,-2.4186,-2.4186,-2.4186,-2.4045,-2.3622,-2.2921,-2.2438,-2.1828,-2.103,-2.0243,-1.9641,-1.9251,-1.8832,-1.8542,-1.8498,-1.842,-1.8307,-1.8187,-1.8022,-1.7875,-1.7733,-1.7406,-1.7073,-1.6833,-1.6599,-1.6392,-1.621,-1.6035,-1.5891,-1.5814,-1.5814,-1.5814,-1.5814,-1.5814,-1.5792,-1.576,-1.5715,-1.5637,-1.5537,-1.5401,-1.5289,-1.5153,-1.5028,-1.4937,-1.4789,-1.4742,-1.465,-1.4454,-1.4303,-1.4163,-1.4044,-1.3973,-1.3973,-1.402,-1.3997,-1.3997,-1.3997,-1.3821,-1.3716,-1.375,-1.3763,-1.3797,-1.381,-1.3844,-1.3868,-1.3926,-1.3926,-1.3973,-1.4104,-1.4197,-1.4278,-1.4361,-1.4488,-1.465,-1.4708,-1.4811,-1.4983,-1.5006,-1.4914,-1.4811,-4.2861,-4.2531,-4.0956,-3.9041,-3.7182,-3.6891,-3.6708,-3.6353,-3.4812,-3.3974,-3.3656,-3.2183,-3.1269,-3.0935,-3.0794,-3.0568,-3.0274,-3.0,-2.9738,-2.9502,-2.9106,-2.8881,-2.8747,-2.8266,-2.798,-2.7955,-2.7725,-2.7585,-2.7555,-2.7136,-2.6527,-2.5869,-2.5187,-2.4784,-2.4619,-2.4605,-2.4597,-2.4522,-2.4392,-2.4042,-2.3481,-2.2768,-2.2222,-2.1809,-2.0771,-2.0068,-1.9821,-1.9165,-1.8765,-1.8731,-1.86,-1.8503,-1.8417,-1.8187,-1.8022,-1.7882,-1.7481,-1.717,-1.6981,-1.6714,-1.647,-1.6297,-1.611,-1.5957,-1.5869,-1.5814,-1.5814,-1.5814,-1.5814,-1.5814,-1.5792,-1.576,-1.5738,-1.5693,-1.5592,-1.5503,-1.5356,-1.5244,-1.5153,-1.5028,-1.4994,-1.4868,-1.4708,-1.4512,-1.4361,-1.4289,-1.4242,-1.4219,-1.4231,-1.4242,-1.4242,-1.4219,-1.4208,-1.4161,-1.4104,-1.4104,-1.4104,-1.4185,-1.4208,-1.4242,-1.4219,-1.4242,-1.4231,-1.4441,-1.4477,-1.4523,-1.4581,-1.4719,-1.4903,-1.5006,-1.5085,-1.5131,-1.5165,-1.4949,-1.4822,-4.2861,-4.2512,-4.0785,-3.8965,-3.7295,-3.693,-3.6766,-3.6539,-3.4849,-3.4011,-3.3624,-3.2183,-3.1308,-3.1012,-3.0912,-3.0749,-3.0447,-3.0146,-2.988,-2.9653,-2.9152,-2.8865,-2.8771,-2.8266,-2.7995,-2.798,-2.7725,-2.76,-2.76,-2.7555,-2.7225,-2.6527,-2.5839,-2.5202,-2.4739,-2.4664,-2.4552,-2.4482,-2.442,-2.4217,-2.3969,-2.324,-2.2562,-2.2026,-2.1267,-2.0569,-1.9929,-1.9204,-1.8817,-1.8817,-1.8736,-1.8692,-1.8653,-1.8417,-1.8161,-1.7889,-1.759,-1.735,-1.7157,-1.6876,-1.662,-1.6479,-1.6219,-1.6001,-1.5966,-1.5869,-1.5802,-1.5814,-1.5814,-1.5814,-1.5814,-1.5792,-1.5748,-1.5715,-1.5715,-1.5637,-1.5491,-1.5468,-1.5424,-1.53,-1.5244,-1.5097,-1.4892,-1.4834,-1.4753,-1.4707,-1.473,-1.4707,-1.4684,-1.4707,-1.4707,-1.4707,-1.4684,-1.4627,-1.4292,-1.4303,-1.443,-1.4488,-1.4545,-1.4684,-1.4741,-1.4764,-1.4764,-1.473,-1.4742,-1.4765,-1.4788,-1.4891,-1.5051,-1.5153,-1.5233,-1.5267,-1.5233,-1.4983,-1.4845,-4.232,-4.1103,-3.9911,-3.8595,-3.7331,-3.7046,-3.6846,-3.6545,-3.4849,-3.4017,-3.3619,-3.2203,-3.1385,-3.1196,-3.0975,-3.077,-3.0489,-3.0231,-2.9968,-2.9697,-2.9328,-2.9045,-2.8771,-2.842,-2.8152,-2.7995,-2.7831,-2.7675,-2.76,-2.7585,-2.727,-2.6587,-2.5929,-2.5442,-2.5262,-2.5232,-2.5186,-2.5055,-2.4967,-2.4681,-2.4092,-2.3327,-2.2794,-2.2577,-2.1946,-2.1273,-2.0628,-1.998,-1.9455,-1.9036,-1.8941,-1.8846,-1.8755,-1.8475,-1.822,-1.7996,-1.7808,-1.7597,-1.735,-1.7141,-1.6863,-1.6543,-1.6392,-1.6207,-1.6032,-1.5957,-1.5891,-1.5836,-1.5814,-1.5814,-1.5814,-1.5814,-1.578,-1.577,-1.576,-1.5738,-1.5637,-1.5614,-1.557,-1.5435,-1.53,-1.5085,-1.4937,-1.4823,-1.4799,-1.4799,-1.4799,-1.4799,-1.4799,-1.4799,-1.4822,-1.4799,-1.4811,-1.4764,-1.465,-1.4627,-1.4684,-1.4707,-1.4764,-1.4787,-1.4811,-1.4857,-1.4822,-1.4891,-1.4914,-1.5006,-1.5051,-1.5187,-1.5311,-1.5334,-1.5413,-1.5335,-1.5278,-1.5028,-1.4868,-4.1741,-4.0292,-3.9427,-3.8418,-3.7332,-3.7124,-3.6908,-3.651,-3.4889,-3.4039,-3.3608,-3.2222,-3.1426,-3.1274,-3.1035,-3.081,-3.0609,-3.0338,-3.0017,-2.9726,-2.9441,-2.9137,-2.8779,-2.8517,-2.8275,-2.8054,-2.7905,-2.7725,-2.7625,-2.7585,-2.736,-2.6926,-2.6048,-2.56,-2.5585,-2.5405,-2.5282,-2.529,-2.5091,-2.4732,-2.425,-2.3406,-2.2888,-2.283,-2.249,-2.1873,-2.1032,-2.0422,-1.9798,-1.9198,-1.9036,-1.8922,-1.876,-1.8475,-1.8246,-1.8108,-1.7969,-1.7801,-1.759,-1.7323,-1.7052,-1.6757,-1.6565,-1.6392,-1.6197,-1.611,-1.6001,-1.5903,-1.5881,-1.5859,-1.5814,-1.5814,-1.5814,-1.5814,-1.5814,-1.577,-1.576,-1.5738,-1.5659,-1.5525,-1.5323,-1.5131,-1.4983,-1.4937,-1.4903,-1.4914,-1.4903,-1.488,-1.488,-1.4903,-1.4903,-1.4903,-1.4914,-1.4914,-1.488,-1.488,-1.4823,-1.4846,-1.488,-1.4891,-1.4925,-1.4914,-1.4971,-1.504,-1.5119,-1.5244,-1.5356,-1.5468,-1.5513,-1.5536,-1.5491,-1.5413,-1.5267,-1.5051,-1.4914,-4.1142,-4.0184,-3.9409,-3.8383,-3.737,-3.7164,-3.695,-3.6444,-3.4914,-3.4098,-3.3731,-3.2205,-3.1443,-3.1274,-3.1035,-3.0892,-3.079,-3.0422,-3.0081,-2.9788,-2.947,-2.9153,-2.8842,-2.8565,-2.8348,-2.8186,-2.794,-2.7725,-2.765,-2.765,-2.7605,-2.7355,-2.6222,-2.5638,-2.56,-2.5053,-2.484,-2.5032,-2.4728,-2.4514,-2.4612,-2.3572,-2.2933,-2.2925,-2.2867,-2.228,-2.1046,-2.0451,-1.9856,-1.9203,-1.9036,-1.8917,-1.8711,-1.847,-1.8305,-1.8246,-1.8036,-1.7909,-1.7842,-1.7481,-1.7253,-1.7094,-1.6765,-1.6565,-1.6457,-1.6318,-1.6166,-1.6044,-1.6001,-1.5957,-1.5836,-1.5814,-1.5814,-1.5814,-1.5814,-1.5792,-1.578,-1.5792,-1.5726,-1.5536,-1.5368,-1.5233,-1.5142,-1.5074,-1.5051,-1.5074,-1.5074,-1.5074,-1.5051,-1.5051,-1.5062,-1.5074,-1.5051,-1.504,-1.5074,-1.5097,-1.5017,-1.496,-1.5017,-1.5051,-1.5085,-1.5108,-1.5176,-1.5244,-1.5356,-1.5468,-1.5491,-1.5614,-1.5659,-1.5659,-1.557,-1.548,-1.5345,-1.5154,-1.4914,-4.0437,-3.9464,-3.8636,-3.799,-3.7484,-3.7204,-3.6989,-3.6594,-3.4953,-3.4138,-3.3741,-3.2261,-3.1479,-3.1385,-3.1131,-3.0952,-3.0871,-3.0547,-3.0236,-2.993,-2.9614,-2.9275,-2.8998,-2.8771,-2.8517,-2.8226,-2.8014,-2.7945,-2.788,-2.788,-2.7865,-2.7599,-2.6425,-2.5785,-2.5694,-2.5009,-2.4827,-2.5201,-2.4756,-2.4648,-2.491,-2.3839,-2.3149,-2.306,-2.3037,-2.2404,-2.109,-2.0814,-2.019,-1.9174,-1.9078,-1.8984,-1.8793,-1.8659,-1.8509,-1.8319,-1.8175,-1.8043,-1.7902,-1.7699,-1.744,-1.724,-1.7039,-1.6863,-1.6663,-1.6513,-1.6383,-1.6262,-1.6175,-1.6078,-1.5979,-1.5935,-1.5891,-1.5814,-1.5814,-1.5814,-1.5814,-1.5814,-1.5703,-1.5536,-1.5446,-1.5334,-1.5153,-1.5119,-1.5119,-1.5119,-1.5119,-1.5119,-1.5119,-1.5119,-1.5119,-1.5119,-1.5119,-1.5119,-1.5119,-1.5119,-1.5062,-1.5028,-1.5085,-1.5165,-1.521,-1.5312,-1.5368,-1.5435,-1.557,-1.5637,-1.5681,-1.5703,-1.5748,-1.5715,-1.5614,-1.5547,-1.5468,-1.5244,-1.4994,-4.011,-3.9138,-3.8258,-3.7793,-3.7594,-3.7298,-3.687,-3.6252,-3.489,-3.404,-3.3401,-3.2162,-3.1519,-3.146,-3.119,-3.1012,-3.0855,-3.063,-3.0342,-3.006,-2.9726,-2.9412,-2.9098,-2.885,-2.8565,-2.8284,-2.8152,-2.8029,-2.7995,-2.798,-2.798,-2.7743,-2.6527,-2.5801,-2.5673,-2.48,-2.45,-2.4847,-2.4431,-2.4356,-2.4522,-2.3843,-2.3231,-2.3127,-2.3097,-2.2367,-2.1139,-2.0988,-2.0407,-1.9343,-1.9064,-1.8984,-1.8817,-1.8716,-1.8615,-1.8411,-1.8274,-1.8169,-1.8023,-1.7862,-1.7679,-1.7427,-1.7316,-1.717,-1.6918,-1.6757,-1.665,-1.6525,-1.6405,-1.6275,-1.6175,-1.611,-1.6044,-1.5969,-1.5871,-1.5814,-1.5814,-1.5814,-1.5714,-1.5558,-1.5491,-1.5356,-1.5176,-1.5119,-1.5119,-1.5119,-1.5119,-1.5119,-1.5119,-1.5119,-1.5119,-1.5119,-1.5119,-1.5119,-1.5119,-1.5119,-1.5119,-1.5108,-1.5153,-1.521,-1.5255,-1.5425,-1.5525,-1.5592,-1.5703,-1.5726,-1.5748,-1.577,-1.5792,-1.5726,-1.5659,-1.5592,-1.5491,-1.5244,-1.4983,-4.0055,-3.9084,-3.824,-3.7811,-3.7595,-3.7302,-3.6631,-3.5714,-3.4671,-3.3769,-3.2905,-3.2015,-3.1559,-3.1479,-3.1288,-3.1112,-3.0892,-3.0671,-3.0443,-3.0189,-2.988,-2.9509,-2.9114,-2.8811,-2.8597,-2.8444,-2.8284,-2.8177,-2.8103,-2.8054,-2.8005,-2.7893,-2.6643,-2.5824,-2.5614,-2.4394,-2.4029,-2.4447,-2.3955,-2.3874,-2.4287,-2.3681,-2.329,-2.3149,-2.3098,-2.2469,-2.1247,-2.0805,-2.0233,-1.9242,-1.9055,-1.8979,-1.8851,-1.8736,-1.8653,-1.8503,-1.8378,-1.8274,-1.8169,-1.8023,-1.7862,-1.7699,-1.7536,-1.7384,-1.7199,-1.7073,-1.6939,-1.6782,-1.6641,-1.65,-1.6414,-1.6297,-1.6231,-1.6178,-1.5969,-1.5859,-1.5814,-1.5814,-1.5691,-1.558,-1.5513,-1.5424,-1.5176,-1.5142,-1.5119,-1.5119,-1.5119,-1.5119,-1.5119,-1.5119,-1.5119,-1.5119,-1.5119,-1.5119,-1.5119,-1.5119,-1.5119,-1.521,-1.5244,-1.5311,-1.5368,-1.5525,-1.5649,-1.5726,-1.577,-1.5792,-1.5814,-1.5814,-1.5814,-1.577,-1.5703,-1.5637,-1.5468,-1.5244,-1.5028,-3.9358,-3.8515,-3.8093,-3.7864,-3.7685,-3.6825,-3.6249,-3.5729,-3.4187,-3.3357,-3.2843,-3.2035,-3.1578,-3.1481,-3.1349,-3.1157,-3.0975,-3.0834,-3.0651,-3.0401,-3.0098,-2.9621,-2.9183,-2.8897,-2.8787,-2.87,-2.8541,-2.8493,-2.8444,-2.8323,-2.8275,-2.8229,-2.6825,-2.6093,-2.5879,-2.4613,-2.429,-2.467,-2.4187,-2.4107,-2.441,-2.3976,-2.3581,-2.3415,-2.329,-2.254,-2.1176,-2.0133,-1.9508,-1.9174,-1.9097,-1.904,-1.8941,-1.8851,-1.8736,-1.862,-1.8431,-1.8299,-1.8254,-1.8169,-1.8029,-1.7862,-1.7767,-1.7679,-1.7447,-1.7357,-1.7225,-1.7086,-1.696,-1.6799,-1.6641,-1.6513,-1.6383,-1.6222,-1.6057,-1.5913,-1.5836,-1.5814,-1.577,-1.5659,-1.5649,-1.5503,-1.5357,-1.5244,-1.521,-1.5142,-1.5119,-1.5119,-1.5119,-1.5119,-1.5119,-1.5119,-1.5119,-1.5119,-1.5119,-1.5119,-1.5165,-1.5278,-1.5368,-1.5446,-1.5525,-1.5614,-1.5726,-1.5792,-1.5792,-1.5814,-1.5814,-1.5814,-1.5814,-1.5814,-1.5748,-1.5659,-1.5547,-1.5345,-1.5119,-3.9099,-3.8292,-3.8037,-3.7916,-3.7756,-3.6702,-3.597,-3.5275,-3.3982,-3.2977,-3.2553,-3.1988,-3.1634,-3.1538,-3.1426,-3.1288,-3.1092,-3.0992,-3.0773,-3.0464,-3.0103,-2.9687,-2.9305,-2.9082,-2.8959,-2.8897,-2.8692,-2.8612,-2.8589,-2.8468,-2.8436,-2.8198,-2.698,-2.6312,-2.6219,-2.4912,-2.4298,-2.4551,-2.4271,-2.4216,-2.4411,-2.4029,-2.3734,-2.3531,-2.3377,-2.2714,-2.1252,-1.9875,-1.9116,-1.9116,-1.9116,-1.9078,-1.9012,-1.8922,-1.8812,-1.8711,-1.8562,-1.845,-1.8319,-1.8274,-1.8189,-1.8049,-1.7989,-1.7855,-1.7706,-1.7577,-1.7474,-1.7344,-1.7233,-1.7086,-1.6939,-1.6757,-1.6586,-1.6448,-1.6297,-1.612,-1.5935,-1.5891,-1.5814,-1.5726,-1.5681,-1.5614,-1.539,-1.5357,-1.5289,-1.5222,-1.5142,-1.5119,-1.5119,-1.5119,-1.5119,-1.5119,-1.5142,-1.5142,-1.5187,-1.521,-1.5278,-1.5368,-1.548,-1.558,-1.5637,-1.5703,-1.5748,-1.5814,-1.5814,-1.5814,-1.5814,-1.5814,-1.5814,-1.5792,-1.576,-1.5681,-1.5547,-1.5458,-1.521,-3.9024,-3.8289,-3.8104,-3.7931,-3.7612,-3.6684,-3.5616,-3.4659,-3.3652,-3.2772,-3.2104,-3.1873,-3.1727,-3.1598,-3.15,-3.1385,-3.121,-3.1072,-3.0794,-3.0468,-3.013,-2.9782,-2.957,-2.9236,-2.9121,-2.9052,-2.8771,-2.8692,-2.8645,-2.8517,-2.8532,-2.8239,-2.7103,-2.6485,-2.6211,-2.5064,-2.4405,-2.4379,-2.428,-2.4166,-2.4167,-2.397,-2.3812,-2.361,-2.3165,-2.2526,-2.1239,-1.9972,-1.9139,-1.9134,-1.912,-1.9064,-1.9031,-1.8998,-1.8917,-1.8783,-1.8692,-1.8562,-1.8397,-1.8358,-1.8279,-1.8195,-1.8095,-1.8016,-1.7929,-1.7821,-1.7686,-1.757,-1.7474,-1.735,-1.7225,-1.7023,-1.6854,-1.6718,-1.662,-1.6392,-1.6141,-1.6032,-1.5957,-1.577,-1.5726,-1.5659,-1.5547,-1.5413,-1.5312,-1.5267,-1.5187,-1.5119,-1.5119,-1.5119,-1.5142,-1.5153,-1.5165,-1.5187,-1.5255,-1.5335,-1.5413,-1.5503,-1.5614,-1.5703,-1.5726,-1.577,-1.5792,-1.5814,-1.5814,-1.5814,-1.5814,-1.5814,-1.5814,-1.5792,-1.5792,-1.5681,-1.5592,-1.5525,-1.5345,-3.8695,-3.8368,-3.817,-3.7658,-3.6857,-3.5932,-3.4957,-3.3969,-3.3037,-3.2441,-3.209,-3.193,-3.1784,-3.1598,-3.1521,-3.1406,-3.1271,-3.1095,-3.0814,-3.0506,-3.038,-3.0124,-2.9842,-2.9464,-2.9282,-2.919,-2.8967,-2.885,-2.8826,-2.8732,-2.8723,-2.8498,-2.7337,-2.6607,-2.6417,-2.5295,-2.4528,-2.4523,-2.4462,-2.4359,-2.4255,-2.4145,-2.4003,-2.3779,-2.278,-2.1932,-2.1226,-1.9991,-1.9294,-1.9232,-1.9157,-1.9082,-1.9059,-1.9036,-1.8974,-1.8917,-1.8769,-1.8673,-1.8615,-1.8503,-1.8392,-1.8299,-1.824,-1.8214,-1.8143,-1.8009,-1.7895,-1.7808,-1.7699,-1.7569,-1.7404,-1.7233,-1.7086,-1.6973,-1.6854,-1.6693,-1.6457,-1.6241,-1.61,-1.5979,-1.5913,-1.5869,-1.5681,-1.5547,-1.5447,-1.5335,-1.5244,-1.5142,-1.5119,-1.5142,-1.5187,-1.5244,-1.5266,-1.53,-1.5413,-1.548,-1.5559,-1.5614,-1.5703,-1.576,-1.5792,-1.5814,-1.5814,-1.5814,-1.5814,-1.5814,-1.5814,-1.5814,-1.5814,-1.5814,-1.5792,-1.5726,-1.5659,-1.557,-1.5446,-3.8703,-3.7883,-3.7707,-3.7089,-3.6146,-3.5226,-3.4488,-3.3822,-3.2876,-3.2371,-3.2214,-3.2019,-3.184,-3.1728,-3.1615,-3.1483,-3.1349,-3.1114,-3.0895,-3.0671,-3.0522,-3.0274,-3.006,-2.9726,-2.9502,-2.9425,-2.9213,-2.9106,-2.9012,-2.8652,-2.8418,-2.8385,-2.7148,-2.6498,-2.6409,-2.5447,-2.4938,-2.4831,-2.4766,-2.4661,-2.4462,-2.4297,-2.4166,-2.3724,-2.2561,-2.1645,-2.1436,-2.0125,-1.9442,-1.9269,-1.9213,-1.9157,-1.9101,-1.9078,-1.9036,-1.8993,-1.8917,-1.8769,-1.8725,-1.8648,-1.8537,-1.8392,-1.8324,-1.8279,-1.8248,-1.8155,-1.8089,-1.8029,-1.7909,-1.7781,-1.7556,-1.7419,-1.7282,-1.7191,-1.7086,-1.696,-1.6735,-1.65,-1.6275,-1.6132,-1.6022,-1.5957,-1.5824,-1.5681,-1.5592,-1.5514,-1.5413,-1.5311,-1.5334,-1.5334,-1.5345,-1.539,-1.5379,-1.5446,-1.5536,-1.5637,-1.5693,-1.5726,-1.577,-1.5792,-1.5792,-1.5814,-1.5814,-1.5814,-1.5814,-1.5814,-1.5814,-1.5814,-1.5814,-1.5814,-1.5792,-1.576,-1.5703,-1.5592,-1.5458,-3.8802,-3.7305,-3.7057,-3.6404,-3.548,-3.4691,-3.4261,-3.3957,-3.3119,-3.2755,-3.2529,-3.2229,-3.212,-3.1893,-3.1673,-3.1559,-3.1404,-3.121,-3.0975,-3.0831,-3.0373,-3.0116,-2.9873,-2.9507,-2.9237,-2.9403,-2.9154,-2.9041,-2.8694,-2.8348,-2.8003,-2.7852,-2.6835,-2.6311,-2.6142,-2.5659,-2.5182,-2.5033,-2.497,-2.4846,-2.463,-2.4426,-2.4261,-2.3844,-2.2687,-2.1833,-2.1415,-2.0351,-1.9431,-1.9354,-1.9335,-1.9246,-1.9172,-1.9101,-1.9078,-1.9031,-1.8993,-1.8884,-1.8769,-1.8692,-1.8648,-1.8498,-1.8406,-1.8338,-1.8299,-1.8254,-1.8208,-1.8155,-1.8042,-1.7922,-1.7747,-1.7604,-1.7502,-1.7419,-1.7316,-1.7191,-1.701,-1.6757,-1.6522,-1.6297,-1.6175,-1.611,-1.5957,-1.5814,-1.5748,-1.5693,-1.5592,-1.5513,-1.5513,-1.5513,-1.5503,-1.5503,-1.5525,-1.5547,-1.5659,-1.5703,-1.5748,-1.577,-1.5814,-1.5814,-1.5814,-1.5814,-1.5814,-1.5814,-1.5814,-1.5814,-1.5814,-1.5814,-1.5814,-1.5814,-1.5792,-1.577,-1.5703,-1.5614,-1.548,-3.8442,-3.7408,-3.6589,-3.5675,-3.4824,-3.4483,-3.4273,-3.4063,-3.3736,-3.3476,-3.3231,-3.3051,-3.2471,-3.1945,-3.1675,-3.1488,-3.1166,-3.0959,-3.0886,-3.0627,-3.0059,-2.9615,-2.9305,-2.8801,-2.8412,-2.8347,-2.8388,-2.8276,-2.7966,-2.7572,-2.7529,-2.7369,-2.6682,-2.6286,-2.6062,-2.5659,-2.5259,-2.5146,-2.5048,-2.4926,-2.4766,-2.4609,-2.4384,-2.4061,-2.2815,-2.2067,-2.151,-2.0475,-1.9614,-1.9538,-1.9391,-1.9302,-1.9246,-1.9157,-1.9101,-1.9078,-1.9036,-1.8941,-1.8812,-1.8731,-1.8634,-1.8537,-1.8478,-1.8459,-1.8425,-1.8372,-1.8293,-1.824,-1.8108,-1.7988,-1.7942,-1.7788,-1.7679,-1.7597,-1.7474,-1.7329,-1.717,-1.6989,-1.6778,-1.6522,-1.6392,-1.6262,-1.611,-1.5957,-1.5859,-1.5792,-1.5703,-1.5603,-1.558,-1.5558,-1.557,-1.5592,-1.5649,-1.5715,-1.5748,-1.577,-1.5792,-1.5792,-1.5814,-1.5814,-1.5814,-1.5814,-1.5814,-1.5814,-1.5814,-1.5814,-1.5814,-1.5814,-1.5814,-1.5814,-1.5814,-1.5814,-1.5748,-1.5681,-1.558,-3.7562,-3.6236,-3.5724,-3.4976,-3.4236,-3.441,-3.4384,-3.4266,-3.4439,-3.4002,-3.3265,-3.2827,-3.2039,-3.1081,-3.0646,-3.0432,-3.0283,-3.0136,-2.9983,-2.9674,-2.9268,-2.8926,-2.8728,-2.8181,-2.7797,-2.7591,-2.7542,-2.7717,-2.7672,-2.7316,-2.715,-2.6976,-2.6458,-2.6063,-2.596,-2.5705,-2.5413,-2.5282,-2.5182,-2.5084,-2.4946,-2.4791,-2.45,-2.3758,-2.2929,-2.2087,-2.1405,-2.0436,-1.9756,-1.965,-1.9538,-1.9413,-1.9306,-1.9232,-1.9176,-1.912,-1.9078,-1.8984,-1.8836,-1.8774,-1.8678,-1.8517,-1.8498,-1.8498,-1.8478,-1.8445,-1.8358,-1.8299,-1.826,-1.8108,-1.7988,-1.7915,-1.7828,-1.7686,-1.7597,-1.7474,-1.7329,-1.7191,-1.6989,-1.6744,-1.6586,-1.6436,-1.6262,-1.611,-1.5979,-1.5869,-1.5802,-1.5736,-1.5669,-1.5669,-1.5681,-1.5681,-1.5738,-1.576,-1.5792,-1.5792,-1.5814,-1.5814,-1.5814,-1.5814,-1.5814,-1.5814,-1.5814,-1.5814,-1.5814,-1.5814,-1.5814,-1.5814,-1.5814,-1.5814,-1.5814,-1.5792,-1.5792,-1.5726,-1.5647,-3.6697,-3.5155,-3.5041,-3.4582,-3.4053,-3.4588,-3.4907,-3.4893,-3.493,-3.4262,-3.3011,-3.235,-3.1304,-3.0123,-2.9677,-2.9489,-2.9211,-2.9188,-2.9075,-2.8818,-2.8452,-2.8218,-2.8028,-2.7682,-2.7282,-2.6874,-2.682,-2.7066,-2.7166,-2.6904,-2.6711,-2.6545,-2.6092,-2.5844,-2.5717,-2.5696,-2.557,-2.5435,-2.5371,-2.5259,-2.5127,-2.4934,-2.4477,-2.367,-2.2847,-2.2087,-2.1326,-2.0441,-1.9947,-1.9795,-1.9669,-1.9556,-1.9413,-1.9325,-1.9232,-1.9157,-1.912,-1.9007,-1.8893,-1.8798,-1.8721,-1.8576,-1.8537,-1.8498,-1.8498,-1.8478,-1.8445,-1.8372,-1.8299,-1.824,-1.8108,-1.8062,-1.7955,-1.7828,-1.776,-1.7679,-1.7494,-1.7337,-1.7199,-1.6976,-1.6778,-1.6586,-1.6457,-1.6306,-1.6175,-1.6057,-1.5991,-1.5913,-1.5846,-1.5824,-1.5802,-1.5792,-1.5792,-1.5792,-1.5792,-1.5792,-1.5814,-1.5814,-1.5814,-1.5814,-1.5814,-1.5814,-1.5814,-1.5814,-1.5814,-1.5814,-1.5814,-1.5814,-1.5814,-1.5814,-1.5814,-1.5792,-1.5792,-1.577,-1.5703,-3.6276,-3.5351,-3.5155,-3.4991,-3.4948,-3.5472,-3.6064,-3.6315,-3.4906,-3.4153,-3.3324,-3.2066,-3.0794,-2.9859,-2.9487,-2.9317,-2.9143,-2.8934,-2.8704,-2.8365,-2.7925,-2.7581,-2.7315,-2.6682,-2.6611,-2.6378,-2.6346,-2.6191,-2.6381,-2.6245,-2.6096,-2.6047,-2.6065,-2.5862,-2.5756,-2.5738,-2.5589,-2.5435,-2.5394,-2.5336,-2.5243,-2.5095,-2.455,-2.3819,-2.3029,-2.2196,-2.1283,-2.0542,-2.0161,-1.9973,-1.9797,-1.969,-1.9617,-1.9398,-1.9306,-1.9246,-1.9191,-1.9078,-1.8965,-1.8874,-1.8779,-1.8659,-1.8595,-1.8517,-1.8498,-1.8498,-1.8478,-1.8478,-1.8392,-1.8299,-1.824,-1.8195,-1.8095,-1.7996,-1.7909,-1.7808,-1.7659,-1.7515,-1.7365,-1.7261,-1.7073,-1.6829,-1.6637,-1.6522,-1.6392,-1.6275,-1.6156,-1.61,-1.6022,-1.5979,-1.5913,-1.5881,-1.5814,-1.5814,-1.5814,-1.5814,-1.5814,-1.5814,-1.5814,-1.5814,-1.5814,-1.5814,-1.5814,-1.5814,-1.5814,-1.5814,-1.5814,-1.5814,-1.5814,-1.5814,-1.5814,-1.5814,-1.5814,-1.577,-1.576,-3.5448,-3.5428,-3.5272,-3.5409,-3.5734,-3.5956,-3.583,-3.5478,-3.4693,-3.3389,-3.209,-3.1156,-2.9929,-2.8812,-2.836,-2.8164,-2.7981,-2.7981,-2.7775,-2.7597,-2.719,-2.6917,-2.6692,-2.6387,-2.6185,-2.6203,-2.6185,-2.6216,-2.6078,-2.6043,-2.6061,-2.6043,-2.6059,-2.6025,-2.5864,-2.5809,-2.5717,-2.5586,-2.5457,-2.5375,-2.5218,-2.4821,-2.4204,-2.3414,-2.2657,-2.1853,-2.1103,-2.0622,-2.032,-2.0148,-2.001,-1.9851,-1.9726,-1.9581,-1.949,-1.9358,-1.9321,-1.9191,-1.9017,-1.8946,-1.887,-1.8774,-1.8673,-1.8576,-1.8517,-1.8498,-1.8498,-1.8498,-1.8459,-1.8392,-1.8319,-1.8293,-1.8228,-1.8129,-1.8036,-1.7929,-1.7808,-1.7699,-1.7563,-1.7461,-1.7344,-1.7136,-1.6926,-1.682,-1.6693,-1.6513,-1.6405,-1.6328,-1.6197,-1.6066,-1.6001,-1.5957,-1.5881,-1.5814,-1.5814,-1.5814,-1.5836,-1.5814,-1.5814,-1.5814,-1.5814,-1.5814,-1.5836,-1.5814,-1.5814,-1.5814,-1.5814,-1.5814,-1.5814,-1.5814,-1.5814,-1.5814,-1.5814,-1.5814,-1.577,-3.4932,-3.5529,-3.5388,-3.5606,-3.6025,-3.5893,-3.5389,-3.4649,-3.3786,-3.2394,-3.0826,-2.9958,-2.8818,-2.7816,-2.7539,-2.7453,-2.7108,-2.7007,-2.6859,-2.6674,-2.6537,-2.6501,-2.6448,-2.631,-2.6274,-2.6257,-2.624,-2.6222,-2.6221,-2.6203,-2.6151,-2.6185,-2.6168,-2.6097,-2.6008,-2.5917,-2.5807,-2.5642,-2.5511,-2.5319,-2.5021,-2.4548,-2.3756,-2.295,-2.2179,-2.1521,-2.0836,-2.0594,-2.0475,-2.0339,-2.0202,-2.0045,-1.9904,-1.978,-1.9654,-1.9541,-1.9487,-1.9372,-1.9205,-1.9093,-1.8984,-1.887,-1.8774,-1.8673,-1.8576,-1.8556,-1.8517,-1.8498,-1.8478,-1.8425,-1.8378,-1.8372,-1.8313,-1.8234,-1.8141,-1.8055,-1.7969,-1.7848,-1.7747,-1.7679,-1.7584,-1.7481,-1.7282,-1.717,-1.7002,-1.6791,-1.6663,-1.6565,-1.6392,-1.6241,-1.6132,-1.6088,-1.6035,-1.5969,-1.5947,-1.5925,-1.5903,-1.5859,-1.5859,-1.5814,-1.5836,-1.5859,-1.5891,-1.5881,-1.5859,-1.5881,-1.5925,-1.5859,-1.5814,-1.5814,-1.5814,-1.5814,-1.5814,-1.5814,-1.577,-3.5031,-3.5669,-3.5441,-3.5349,-3.5398,-3.5152,-3.4956,-3.4247,-3.2214,-3.1113,-3.0245,-2.9,-2.8094,-2.7652,-2.7496,-2.7341,-2.7103,-2.7023,-2.6892,-2.6742,-2.664,-2.6555,-2.6486,-2.6468,-2.645,-2.6416,-2.6364,-2.6312,-2.626,-2.6222,-2.6205,-2.6185,-2.6203,-2.6115,-2.6008,-2.5952,-2.5824,-2.5626,-2.5468,-2.5125,-2.4733,-2.4245,-2.3594,-2.2629,-2.2128,-2.1674,-2.0858,-2.0745,-2.0662,-2.0494,-2.039,-2.027,-2.0148,-1.9975,-1.9833,-1.9744,-1.965,-1.9574,-1.9483,-1.9246,-1.9093,-1.8979,-1.887,-1.876,-1.8692,-1.8673,-1.8648,-1.8537,-1.8517,-1.8478,-1.8478,-1.8478,-1.8386,-1.8333,-1.826,-1.8195,-1.8115,-1.8036,-1.7935,-1.7882,-1.7801,-1.7727,-1.7645,-1.7502,-1.7282,-1.7086,-1.6918,-1.6799,-1.6607,-1.6436,-1.634,-1.6275,-1.621,-1.6166,-1.6166,-1.6122,-1.6057,-1.6013,-1.5991,-1.5925,-1.5859,-1.5891,-1.5979,-1.6001,-1.6013,-1.6035,-1.6001,-1.5935,-1.5881,-1.5836,-1.5814,-1.5814,-1.5814,-1.5814,-1.577,-3.4797,-3.4899,-3.4262,-3.4519,-3.5312,-3.4626,-3.371,-3.2559,-3.1018,-2.9841,-2.9161,-2.8351,-2.7882,-2.7689,-2.7542,-2.7371,-2.7182,-2.7086,-2.7006,-2.6875,-2.6742,-2.6657,-2.6606,-2.6555,-2.6485,-2.6502,-2.6451,-2.6416,-2.6399,-2.6329,-2.6259,-2.6258,-2.6239,-2.6185,-2.6114,-2.5989,-2.5791,-2.5517,-2.5183,-2.4744,-2.445,-2.3541,-2.2876,-2.2407,-2.1713,-2.1407,-2.1006,-2.0909,-2.0811,-2.0695,-2.0594,-2.0475,-2.0373,-2.0185,-2.0063,-1.9993,-1.9902,-1.9827,-1.9702,-1.9468,-1.9228,-1.9078,-1.9007,-1.8931,-1.8793,-1.875,-1.8692,-1.8615,-1.8556,-1.8537,-1.8498,-1.8498,-1.8459,-1.8425,-1.8372,-1.8313,-1.8254,-1.8161,-1.8101,-1.8029,-1.8043,-1.8023,-1.7929,-1.7828,-1.7591,-1.7365,-1.7212,-1.7023,-1.6854,-1.6671,-1.6599,-1.6504,-1.6426,-1.6383,-1.6362,-1.6275,-1.62,-1.6166,-1.6166,-1.61,-1.6035,-1.6057,-1.6122,-1.6166,-1.6166,-1.6166,-1.6122,-1.6001,-1.5935,-1.5881,-1.5836,-1.5814,-1.5814,-1.5814,-1.577,-3.4279,-3.4067,-3.3161,-3.3489,-3.4438,-3.3376,-3.2188,-3.1023,-3.002,-2.9117,-2.825,-2.8168,-2.7982,-2.7763,-2.7597,-2.7463,-2.7308,-2.7198,-2.7119,-2.7006,-2.6891,-2.6792,-2.6759,-2.6725,-2.6674,-2.6623,-2.6555,-2.6555,-2.6538,-2.6434,-2.6382,-2.6346,-2.6276,-2.6222,-2.615,-2.6025,-2.5764,-2.5295,-2.4932,-2.4178,-2.382,-2.3009,-2.2232,-2.2004,-2.1488,-2.1279,-2.1135,-2.1038,-2.0974,-2.0876,-2.0777,-2.0676,-2.0543,-2.0424,-2.0306,-2.0252,-2.0166,-2.0076,-1.9919,-1.965,-1.9428,-1.9302,-1.9176,-1.9064,-1.8946,-1.8846,-1.8803,-1.8716,-1.8639,-1.86,-1.8581,-1.8595,-1.8576,-1.8542,-1.8431,-1.8372,-1.8366,-1.8274,-1.8254,-1.8195,-1.8189,-1.8163,-1.8123,-1.8009,-1.7774,-1.757,-1.7372,-1.724,-1.7128,-1.6981,-1.6854,-1.6782,-1.6663,-1.662,-1.6543,-1.6534,-1.6513,-1.6439,-1.6405,-1.6318,-1.6275,-1.6297,-1.6297,-1.6306,-1.6318,-1.6309,-1.6253,-1.6197,-1.6066,-1.5891,-1.5859,-1.5814,-1.5814,-1.5814,-1.5814,-3.3542,-3.3296,-3.2411,-3.2389,-3.2796,-3.1207,-3.045,-3.013,-2.9223,-2.8632,-2.8249,-2.8103,-2.7854,-2.7621,-2.7344,-2.718,-2.7098,-2.7014,-2.7006,-2.6943,-2.6849,-2.6888,-2.6974,-2.6958,-2.6909,-2.6925,-2.6808,-2.6691,-2.6573,-2.637,-2.6352,-2.62,-2.5947,-2.601,-2.6119,-2.6046,-2.554,-2.4826,-2.4629,-2.3728,-2.2946,-2.2475,-2.1989,-2.1584,-2.139,-2.1278,-2.1199,-2.1167,-2.1103,-2.1054,-2.0909,-2.0826,-2.0777,-2.0595,-2.0494,-2.0477,-2.0407,-2.0339,-2.0252,-1.9863,-1.9647,-1.9556,-1.938,-1.925,-1.9134,-1.9036,-1.8922,-1.8836,-1.8779,-1.8765,-1.876,-1.8736,-1.8711,-1.8673,-1.8548,-1.8509,-1.847,-1.847,-1.8431,-1.8392,-1.8288,-1.8222,-1.8222,-1.8143,-1.7929,-1.7733,-1.7557,-1.7434,-1.7378,-1.7253,-1.7128,-1.7065,-1.696,-1.6931,-1.6897,-1.6876,-1.6833,-1.674,-1.6654,-1.659,-1.6534,-1.6513,-1.6513,-1.65,-1.65,-1.6534,-1.6491,-1.6436,-1.6219,-1.5979,-1.5859,-1.5814,-1.5814,-1.5814,-1.5814,-3.2723,-3.251,-3.1594,-3.1302,-3.134,-3.0776,-3.0124,-2.9414,-2.8503,-2.79,-2.7584,-2.7049,-2.6621,-2.6459,-2.6382,-2.6293,-2.616,-2.6042,-2.6043,-2.6573,-2.6519,-2.6868,-2.6992,-2.698,-2.7002,-2.7022,-2.6906,-2.6434,-2.6012,-2.5931,-2.5512,-2.5228,-2.523,-2.5163,-2.5309,-2.5287,-2.4853,-2.4129,-2.3604,-2.2998,-2.2524,-2.21,-2.1742,-2.1387,-2.1387,-2.134,-2.1278,-2.1246,-2.1215,-2.1183,-2.1022,-2.099,-2.0973,-2.0794,-2.0695,-2.0662,-2.0578,-2.0475,-2.0407,-2.0168,-1.9937,-1.9762,-1.9599,-1.9453,-1.9321,-1.9153,-1.9045,-1.8988,-1.8898,-1.886,-1.8784,-1.8784,-1.876,-1.876,-1.8702,-1.8688,-1.8688,-1.8669,-1.8649,-1.8606,-1.8537,-1.8406,-1.8347,-1.8341,-1.8169,-1.8016,-1.7875,-1.7774,-1.7706,-1.7509,-1.7385,-1.7357,-1.7295,-1.7267,-1.7225,-1.7149,-1.7052,-1.696,-1.6897,-1.6846,-1.6791,-1.6769,-1.6769,-1.6791,-1.6757,-1.6735,-1.6629,-1.6479,-1.6262,-1.6088,-1.5935,-1.5836,-1.5814,-1.5814,-1.5814,-3.1964,-3.1732,-3.0819,-3.0374,-3.03,-3.0163,-2.9573,-2.8633,-2.7643,-2.7118,-2.685,-2.6255,-2.5941,-2.5824,-2.5661,-2.5548,-2.5469,-2.5409,-2.5474,-2.6012,-2.5961,-2.6179,-2.6415,-2.6597,-2.631,-2.644,-2.6313,-2.5928,-2.5489,-2.5346,-2.5017,-2.4652,-2.4288,-2.436,-2.4481,-2.4365,-2.4265,-2.3588,-2.3046,-2.262,-2.2195,-2.1852,-2.1575,-2.1495,-2.1464,-2.1433,-2.1371,-2.1325,-2.1278,-2.1247,-2.1199,-2.1135,-2.1087,-2.1006,-2.0876,-2.0811,-2.0695,-2.0594,-2.0527,-2.0426,-2.0202,-2.0025,-1.9851,-1.9672,-1.9523,-1.9362,-1.9269,-1.9176,-1.9049,-1.9011,-1.8993,-1.8974,-1.8917,-1.8931,-1.8874,-1.8874,-1.8822,-1.8803,-1.8784,-1.8755,-1.8697,-1.8586,-1.8509,-1.8484,-1.8425,-1.8307,-1.8189,-1.8109,-1.7989,-1.7794,-1.7652,-1.7625,-1.7563,-1.7481,-1.7419,-1.7344,-1.7261,-1.7191,-1.717,-1.7128,-1.712,-1.7112,-1.7078,-1.7023,-1.696,-1.6842,-1.6705,-1.6534,-1.6371,-1.6197,-1.6022,-1.5913,-1.5836,-1.5814,-1.5814,-3.1235,-3.1016,-3.0075,-2.9626,-2.9522,-2.9174,-2.8532,-2.7706,-2.6772,-2.6322,-2.6149,-2.5983,-2.5649,-2.5623,-2.564,-2.5476,-2.5295,-2.5235,-2.5319,-2.5398,-2.5401,-2.5487,-2.552,-2.5548,-2.5648,-2.5403,-2.5265,-2.5353,-2.4976,-2.4526,-2.4326,-2.4271,-2.3992,-2.3747,-2.3586,-2.3576,-2.3498,-2.2971,-2.2693,-2.2301,-2.194,-2.1746,-2.1649,-2.1617,-2.1603,-2.1588,-2.1527,-2.1464,-2.1418,-2.1371,-2.1309,-2.123,-2.1183,-2.1151,-2.1038,-2.0925,-2.0794,-2.0727,-2.0694,-2.0578,-2.0492,-2.0304,-2.0045,-1.9851,-1.9708,-1.9617,-1.949,-1.9431,-1.9358,-1.9358,-1.9354,-1.9265,-1.9195,-1.9134,-1.9074,-1.9003,-1.8931,-1.8893,-1.8874,-1.8836,-1.8784,-1.8726,-1.8721,-1.8683,-1.8639,-1.8548,-1.845,-1.8392,-1.8274,-1.8055,-1.7935,-1.7868,-1.7808,-1.7686,-1.7632,-1.7632,-1.755,-1.7522,-1.7488,-1.7447,-1.7432,-1.7363,-1.7295,-1.722,-1.7094,-1.6989,-1.6876,-1.6705,-1.6513,-1.6328,-1.6175,-1.6022,-1.5925,-1.5836,-1.5814,-3.0372,-3.0173,-2.9303,-2.8861,-2.8539,-2.7326,-2.6828,-2.6874,-2.609,-2.5599,-2.5445,-2.4741,-2.4595,-2.4365,-2.432,-2.4312,-2.423,-2.4195,-2.4466,-2.4612,-2.4792,-2.5094,-2.5266,-2.5314,-2.5349,-2.5267,-2.5119,-2.4726,-2.4182,-2.3666,-2.3277,-2.3059,-2.3272,-2.294,-2.2878,-2.2852,-2.2654,-2.2501,-2.2376,-2.215,-2.1953,-2.1869,-2.1825,-2.1768,-2.1754,-2.1724,-2.1634,-2.1588,-2.1542,-2.1511,-2.1512,-2.1466,-2.134,-2.1278,-2.1183,-2.1054,-2.0925,-2.0828,-2.0827,-2.0712,-2.0627,-2.0594,-2.0375,-2.0202,-2.0028,-1.9869,-1.9726,-1.9654,-1.9596,-1.9574,-1.9538,-1.9468,-1.9398,-1.9358,-1.9298,-1.9265,-1.9195,-1.9157,-1.912,-1.9007,-1.8955,-1.8898,-1.8893,-1.8841,-1.8798,-1.876,-1.8707,-1.863,-1.8528,-1.8333,-1.8189,-1.8123,-1.8049,-1.7935,-1.7969,-1.7975,-1.7909,-1.7828,-1.7774,-1.7713,-1.7591,-1.7522,-1.7488,-1.7406,-1.7323,-1.722,-1.7107,-1.6918,-1.6693,-1.6513,-1.6349,-1.6175,-1.6022,-1.5947,-1.5859,-2.9375,-2.8936,-2.8373,-2.7883,-2.729,-2.6261,-2.5866,-2.5745,-2.5195,-2.4856,-2.4691,-2.4151,-2.3824,-2.3862,-2.3844,-2.3779,-2.373,-2.3757,-2.392,-2.4093,-2.4225,-2.4367,-2.4674,-2.4789,-2.458,-2.4627,-2.4502,-2.4047,-2.358,-2.3154,-2.2737,-2.2722,-2.2592,-2.2579,-2.262,-2.2665,-2.2528,-2.2352,-2.222,-2.2132,-2.2087,-2.207,-2.2001,-2.1928,-2.1884,-2.1842,-2.1753,-2.1724,-2.1679,-2.1649,-2.1665,-2.1574,-2.1449,-2.1356,-2.1277,-2.1151,-2.1038,-2.0974,-2.0957,-2.0828,-2.0794,-2.076,-2.0645,-2.0509,-2.0323,-2.0168,-2.001,-1.9887,-1.9812,-1.9756,-1.9702,-1.965,-1.9614,-1.9578,-1.956,-1.956,-1.9523,-1.9487,-1.9376,-1.9246,-1.9172,-1.9101,-1.9045,-1.8993,-1.8955,-1.8931,-1.8874,-1.8798,-1.8702,-1.8562,-1.8425,-1.8341,-1.8268,-1.8175,-1.8228,-1.8228,-1.8109,-1.8029,-1.8023,-1.7929,-1.7774,-1.7754,-1.7788,-1.7706,-1.757,-1.744,-1.7295,-1.7094,-1.6884,-1.6727,-1.6556,-1.6392,-1.6241,-1.6122,-1.6047,-2.8357,-2.7642,-2.7383,-2.6801,-2.5979,-2.5774,-2.5319,-2.4537,-2.4414,-2.4208,-2.4158,-2.4004,-2.3896,-2.3855,-2.3821,-2.3797,-2.3765,-2.3732,-2.3711,-2.3718,-2.3847,-2.3945,-2.3853,-2.3611,-2.3898,-2.3579,-2.3425,-2.3617,-2.3314,-2.3045,-2.2919,-2.2829,-2.2777,-2.2764,-2.2764,-2.2738,-2.2681,-2.2642,-2.248,-2.236,-2.2276,-2.2217,-2.2161,-2.2073,-2.2058,-2.2044,-2.1984,-2.1897,-2.1825,-2.1783,-2.1739,-2.1664,-2.1573,-2.145,-2.1372,-2.1262,-2.1167,-2.1119,-2.1071,-2.0974,-2.0942,-2.0876,-2.081,-2.0744,-2.0627,-2.0407,-2.022,-2.0115,-2.0043,-2.0023,-1.9973,-1.9955,-1.9919,-1.9902,-1.9866,-1.9815,-1.9762,-1.9705,-1.9578,-1.945,-1.9376,-1.9321,-1.9302,-1.925,-1.9157,-1.912,-1.9097,-1.9021,-1.8927,-1.8812,-1.8678,-1.8556,-1.8464,-1.8392,-1.8347,-1.8327,-1.8248,-1.8208,-1.8208,-1.8163,-1.8009,-1.8029,-1.8103,-1.7949,-1.7788,-1.7625,-1.7461,-1.724,-1.7073,-1.6939,-1.6769,-1.6607,-1.647,-1.6362,-1.6222,-2.7867,-2.7599,-2.6823,-2.5984,-2.52,-2.5039,-2.4869,-2.4566,-2.4482,-2.434,-2.419,-2.4123,-2.4064,-2.3966,-2.3935,-2.3915,-2.3904,-2.3852,-2.3813,-2.38,-2.3797,-2.3765,-2.3689,-2.3667,-2.3629,-2.3562,-2.3505,-2.34,-2.3307,-2.3211,-2.3126,-2.3028,-2.299,-2.3008,-2.3008,-2.297,-2.2944,-2.2944,-2.2816,-2.2646,-2.2521,-2.2443,-2.2405,-2.2332,-2.2304,-2.2245,-2.2189,-2.2118,-2.2046,-2.1957,-2.1926,-2.1838,-2.1736,-2.1619,-2.1496,-2.1371,-2.1309,-2.1262,-2.1199,-2.1135,-2.1071,-2.1054,-2.1022,-2.1022,-2.0907,-2.0627,-2.0441,-2.0373,-2.0304,-2.027,-2.0252,-2.0252,-2.0235,-2.02,-2.0183,-2.0098,-2.0028,-1.9904,-1.9777,-1.9687,-1.9596,-1.956,-1.9541,-1.9487,-1.9376,-1.9339,-1.9321,-1.9284,-1.9209,-1.9116,-1.8946,-1.8812,-1.8673,-1.8581,-1.8523,-1.8484,-1.8411,-1.8372,-1.8338,-1.8288,-1.8242,-1.8262,-1.8262,-1.8143,-1.7969,-1.7808,-1.7625,-1.7385,-1.722,-1.7128,-1.7023,-1.6876,-1.6812,-1.6727,-1.6491,-2.6972,-2.6529,-2.5971,-2.5429,-2.4988,-2.4861,-2.4772,-2.4645,-2.4588,-2.449,-2.4321,-2.4237,-2.4142,-2.4074,-2.4026,-2.3998,-2.3988,-2.3947,-2.3917,-2.3904,-2.3894,-2.3873,-2.3831,-2.38,-2.3768,-2.3743,-2.37,-2.3605,-2.3481,-2.3447,-2.34,-2.3283,-2.3277,-2.3277,-2.3265,-2.3217,-2.318,-2.318,-2.3095,-2.2965,-2.2812,-2.2725,-2.2623,-2.2569,-2.2528,-2.2457,-2.2402,-2.2346,-2.2276,-2.2175,-2.2132,-2.2015,-2.1899,-2.1768,-2.1678,-2.1587,-2.151,-2.1419,-2.1357,-2.1294,-2.1231,-2.1215,-2.1167,-2.1135,-2.1054,-2.0826,-2.0777,-2.0694,-2.061,-2.0577,-2.0544,-2.0544,-2.0544,-2.0527,-2.0494,-2.046,-2.034,-2.02,-2.0045,-1.9922,-1.9851,-1.9833,-1.9812,-1.9792,-1.9687,-1.9599,-1.9563,-1.9523,-1.9453,-1.938,-1.9232,-1.9097,-1.8946,-1.8793,-1.8702,-1.8664,-1.8644,-1.8572,-1.8481,-1.8514,-1.8509,-1.8478,-1.84,-1.8301,-1.8189,-1.8029,-1.7848,-1.7611,-1.7434,-1.7352,-1.7253,-1.7141,-1.7099,-1.7065,-1.6854,-2.5901,-2.5091,-2.4959,-2.4835,-2.4739,-2.4795,-2.4693,-2.4576,-2.467,-2.4629,-2.4498,-2.434,-2.4247,-2.4162,-2.4113,-2.4066,-2.4056,-2.4075,-2.4056,-2.4026,-2.4026,-2.3996,-2.3976,-2.3966,-2.3945,-2.3935,-2.3904,-2.3839,-2.3732,-2.3721,-2.366,-2.3567,-2.3533,-2.3533,-2.3528,-2.3482,-2.3418,-2.3372,-2.3301,-2.3241,-2.3132,-2.2995,-2.2855,-2.2777,-2.2738,-2.2729,-2.2649,-2.2565,-2.2497,-2.2388,-2.2307,-2.2178,-2.2075,-2.1959,-2.1857,-2.1766,-2.1678,-2.1619,-2.1574,-2.1481,-2.1403,-2.1341,-2.1294,-2.1231,-2.1183,-2.1135,-2.1087,-2.1022,-2.0941,-2.0843,-2.0827,-2.0827,-2.0827,-2.0811,-2.0794,-2.0761,-2.0611,-2.0492,-2.034,-2.0187,-2.015,-2.0115,-2.0078,-2.0058,-1.9988,-1.9902,-1.9815,-1.9744,-1.9687,-1.9614,-1.949,-1.9358,-1.9228,-1.9064,-1.8912,-1.8803,-1.8765,-1.8726,-1.8655,-1.8731,-1.8765,-1.8664,-1.8581,-1.8517,-1.84,-1.8228,-1.8089,-1.7875,-1.772,-1.7598,-1.7468,-1.7391,-1.737,-1.7316,-1.7199,-2.5057,-2.4162,-2.4125,-2.3723,-2.3242,-2.3695,-2.394,-2.3994,-2.4433,-2.4676,-2.449,-2.4466,-2.4401,-2.4266,-2.4257,-2.4238,-2.4219,-2.4219,-2.419,-2.4162,-2.4153,-2.4124,-2.4123,-2.4124,-2.4133,-2.4133,-2.4113,-2.4064,-2.3955,-2.3935,-2.3865,-2.375,-2.3696,-2.3692,-2.3685,-2.3577,-2.3343,-2.3287,-2.3338,-2.3287,-2.3318,-2.3188,-2.3065,-2.3003,-2.2965,-2.2919,-2.2855,-2.279,-2.2672,-2.2552,-2.2429,-2.2318,-2.2234,-2.2163,-2.2061,-2.1959,-2.1842,-2.1768,-2.1708,-2.1632,-2.1588,-2.1541,-2.1511,-2.1512,-2.1481,-2.1481,-2.1419,-2.1388,-2.1278,-2.1119,-2.1071,-2.1055,-2.1038,-2.1022,-2.099,-2.0942,-2.0844,-2.0761,-2.0662,-2.0561,-2.0477,-2.0424,-2.0339,-2.0302,-2.0252,-2.0168,-2.0098,-2.0028,-1.9975,-1.9869,-1.9744,-1.9632,-1.9505,-1.9302,-1.9116,-1.8917,-1.886,-1.8841,-1.8822,-1.886,-1.886,-1.8803,-1.8721,-1.8692,-1.8576,-1.8406,-1.8268,-1.8135,-1.8022,-1.7882,-1.7713,-1.7638,-1.7618,-1.7584,-1.7509]},{"header":{"parameterUnit":"m.s-1","parameterCategory":1,"la1":31.0,"la2":29.5877,"lo1":-88.7671,"lo2":-86.6584,"dy":0.0162,"dx":0.0185,"nx":115,"ny":88,"refTime":"2023-07-28T18:00:00:Z","depth":0,"parameterNumber":3,"parameterNumberName":"V-component_of_WINDS"},"data":[0.0,0.0,0.0,0.0,0.0,0.0,0.0,0.0,0.0,0.0,0.0,0.0,0.0,0.0,0.0,0.0,0.0,0.0,0.0,0.0,0.0,0.0,0.0,0.0,0.0,0.0,0.0,0.0,0.0,0.0,0.0,0.0,0.0,0.0,0.0,0.0,0.0,0.0,0.0,0.0,0.0,0.0,0.0,0.0,0.0,0.0,0.0,0.0,0.0,0.0,0.0,0.0,0.0,0.0,0.0,0.0,0.0,0.0,0.0,0.0,0.0,0.0,0.0,0.0,0.0,0.0,0.0,0.0,0.0,0.0,0.0,0.0,0.0,0.0,0.0,0.0,0.0,0.0,0.0,0.0,0.0,0.0,0.0,0.0,0.0,0.0,0.0,0.0,0.0,0.0,0.0,0.0,0.0,0.0,0.0,0.0,0.0,0.0,0.0,0.0,0.0,0.0,0.0,0.0,0.0,0.0,0.0,0.0,0.0,0.0,0.0,0.0,0.0,0.0,0.0,0.0,0.0,0.0,0.0,0.0,0.0,0.0,0.0,0.0,0.0,0.0,0.0,0.0,0.0,0.0,0.0,0.0,0.0,0.0,0.0,0.0,0.0,0.0,0.0,0.0,0.0,0.0,0.0,0.0,0.0,0.0,0.0,0.0,0.0,0.0,0.0,0.0,0.0,0.0,0.0,0.0,0.0,0.0,0.0,0.0,0.0,0.0,0.0,0.0,0.0,0.0,0.0,0.0,0.0,0.0,0.0,0.0,0.0,0.0,0.0,0.0,0.0,0.0,0.0,0.0,0.0,0.0,0.0,0.0,0.0,0.0,0.0,0.0,0.0,0.0,0.0,0.0,0.0,0.0,0.0,0.0,0.0,0.0,0.0,0.0,0.0,0.0,0.0,0.0,0.0,0.0,0.0,0.0,0.0,0.0,0.0,0.0,0.0,0.0,0.0,0.0,0.0,0.0,0.0,0.0,0.0,0.0,0.0,0.0,0.0,0.0,0.0,0.0,0.0,0.0,0.0,0.0,0.0,0.0,0.0,0.0,0.0,0.0,0.0,0.0,0.0,0.0,0.0,0.0,0.0,0.0,0.0,0.0,0.0,0.0,0.0,0.0,0.0,0.0,0.0,0.0,0.0,0.0,0.0,0.0,0.0,0.0,0.0,0.0,0.0,0.0,0.0,0.0,0.0,0.0,0.0,0.0,0.0,0.0,0.0,0.0,0.0,0.0,0.0,0.0,0.0,0.0,0.0,0.0,0.0,0.0,0.0,0.0,0.0,0.0,0.0,0.0,0.0,0.0,0.0,0.0,0.0,0.0,0.0,0.0,0.0,0.0,0.0,0.0,0.0,0.0,0.0,0.0,0.0,0.0,0.0,0.0,0.0,0.0,0.0,0.0,0.0,0.0,0.0,0.0,0.0,0.0,0.0,0.0,0.0,0.0,0.0,0.0,0.0,0.0,0.0,0.0,0.0,0.0,0.0,0.0,0.0,0.0,0.0,0.0,0.0,0.0,0.0,0.0,0.0,0.0,0.0,0.0,0.0,0.0,0.0,0.0,0.0,0.0,0.0,0.0,0.0,0.0,0.0,0.0,0.0,0.0,0.0,0.0,0.0,0.0,0.0,0.0,0.0,0.0,0.0,0.0,0.0,0.0,0.0,0.0,0.0,0.0,0.0,0.0,0.0,0.0,0.0,0.0,0.0,0.0,0.0,0.0,0.0,0.0,0.0,0.0,0.0,0.0,0.0,0.0,0.0,0.0,0.0,0.0,0.0,0.0,0.0,0.0,0.0,0.0,0.0,0.0,0.0,0.0,0.0,0.0,0.0,0.0,0.0,0.0,0.0,0.0,0.0,0.0,0.0,0.0,0.0,0.0,0.0,0.0,0.0,0.0,0.0,0.0,0.0,0.0,0.0,0.0,0.0,0.0,0.0,0.0,0.0,0.0,0.0,0.0,0.0,0.0,0.0,0.0,0.0,0.0,0.0,0.0,0.0,0.0,0.0,0.0,0.0,0.0,0.0,0.0,0.0,0.0,0.0,0.0,0.0,0.0,0.0,0.0,0.0,0.0,0.0,0.0,0.0,0.0,0.0,0.0,0.0,0.0,0.0,0.0,0.0,0.0,0.0,0.0,0.0,0.0,0.0,0.0,0.0,0.0,0.0,0.0,0.0,0.0,0.0,0.0,0.0,0.0,0.0,0.0,0.0,0.0,0.0,0.0,0.0,0.0,0.0,0.0,0.0,0.0,0.0,0.0,0.0,0.0,0.0,0.0,0.0,0.0,0.0,0.0,0.0,0.0,0.0,0.0,0.0,0.0,0.0,0.0,0.0,0.0,0.0,0.0,0.0,0.0,0.0,0.0,0.0,0.0,0.0,0.0,0.0,0.0,0.0,0.0,0.0,0.0,0.0,0.0,0.0,0.0,0.0,0.0,0.0,0.0,0.0,0.0,0.0,0.0,0.0,0.0,0.0,0.0,0.0,0.0,0.0,0.0,0.0,0.0,0.0,0.0,0.0,0.0,0.0,0.0,0.0,0.0,0.0,0.0,0.0,0.0,0.0,0.0,0.0,0.0,0.0,0.0,0.0,0.0,0.0,0.0,0.0,0.0,0.0,0.0,0.0,0.0,0.0,0.0,0.0,0.0,0.0,0.0,0.0,0.0,0.0,0.0,0.0,0.0,0.0,0.0,0.0,0.0,0.0,0.0,0.0,0.0,0.0,0.0,0.0,0.0,0.0,0.0,0.0,0.0,0.0,0.0,0.0,0.0,0.0,0.0,0.0,0.0,0.0,0.0,0.0,0.0,0.0,0.0,0.0,0.0,0.0,0.0,0.0,0.0,0.0,0.0,0.0,0.0,0.0,0.0,0.0,0.0,0.0,0.0,0.0,0.0,0.0,0.0,0.0,0.0,0.0,0.0,0.0,0.0,0.0,0.0,0.0,0.0,0.0,0.0,0.0,0.0,0.0,0.0,0.0,0.0,0.0,0.0,0.0,0.0,0.0,0.0,0.0,0.0,0.0,0.0,0.0,0.0,0.0,0.0,0.0,0.0,0.0,0.0,0.0,0.0,0.0,0.0,0.0,0.0,0.0,0.0,0.0,0.0,0.0,0.0,0.0,0.0,0.0,0.0,0.0,0.0,0.0,0.0,0.0,0.0,0.0,0.0,0.0,0.0,0.0,0.0,0.0,0.0,0.0,0.0,0.0,0.0,0.0,0.0,0.0,0.0,0.0,0.0,0.0,0.0,0.0,0.0,0.0,0.0,0.0,0.0,0.0,0.0,0.0,0.0,0.0,0.0,0.0,0.0,0.0,0.0,0.0,0.0,0.0,0.0,0.0,0.0,0.0,0.0,0.0,0.0,0.0,0.0,0.0,0.0,0.0,0.0,0.0,0.0,0.0,0.0,0.0,0.0,0.0,0.0,0.0,0.0,0.0,0.0,0.0,0.0,0.0,0.0,0.0,0.0,0.0,0.0,0.0,0.0,0.0,0.0,0.0,0.0,0.0,0.0,0.0,0.0,0.0,0.0,0.0,0.0,0.0,0.0,0.0,0.0,0.0,0.0,0.0,0.0,0.0,0.0,0.0,0.0,0.0,0.0,0.0,0.0,0.0,0.0,0.0,0.0,0.0,0.0,0.0,0.0,0.0,0.0,0.0,0.0,0.0,0.0,0.0,0.0,0.0,0.0,0.0,0.0,0.0,0.0,0.0,0.0,0.0,0.0,0.0,0.0,0.0,0.0,0.0,0.0,0.0,0.0,0.0,0.0,0.0,0.0,0.0,0.0,0.0,0.0,0.0,0.0,0.0,0.0,0.0,0.0,0.0,0.0,0.0,0.0,0.0,0.0,0.0,0.0,0.0,0.0,0.0,0.0,0.0,0.0,0.0,0.0,0.0,0.0,0.0,0.0,0.0,0.0,0.0,0.0,0.0,0.0,0.0,0.0,0.0,0.0,0.0,0.0,0.0,0.0,0.0,0.0,0.0,0.0,0.0,0.0,0.0,0.0,0.0,0.0,0.0,0.0,0.0,0.0,0.0,0.0,0.0,0.0,0.0,0.0,0.0,0.0,0.0,0.0,0.0,0.0,0.0,0.0,0.0,0.0,0.0,0.0,0.0,0.0,0.0,0.0,0.0,0.0,0.0,0.0,0.0,0.0,0.0,0.0,0.0,0.0,0.0,0.0,0.0,0.0,0.0,0.0,0.0,0.0,0.0,0.0,0.0,0.0,0.0,0.0,0.0,0.0,0.0,0.0,0.0,0.0,0.0,0.0,-0.263,0.0,0.0,0.0,0.0,0.0,0.0,0.0,0.0,0.0,0.0,0.0,0.0,0.0,0.0,0.0,0.0,0.0,0.0,0.0,0.0,0.0,0.0,0.0,0.0,0.0,0.0,0.0,0.0,0.0,0.0,0.0,0.0,0.0,0.0,0.0,0.0,0.0,0.0,0.0,0.0,0.0,0.0,0.0,0.0,0.0,0.0,0.0,0.0,0.0,0.0,0.0,0.0,0.0,0.0,0.0,0.0,0.0,0.0,0.0,0.0,0.0,0.0,0.0,0.0,0.0,0.0,0.0,0.0,0.0,0.0,0.0,0.0,0.0,0.0,0.0,0.0,0.0,0.0,0.0,0.0,0.0,0.0,0.0,0.0,0.0,0.0,0.0,0.0,0.0,0.0,0.0,0.0,0.0,0.0,0.0,0.0,0.0,0.0,0.0,0.0,0.0,0.0,0.0,0.0,0.0,0.0,0.0,0.0,0.0,0.0,-0.5343,-0.4884,-0.4409,-0.3793,-0.2994,0.0,0.0,0.0,0.0,0.0,0.0,0.0,0.0,0.0,0.0,0.0,0.0,0.0,0.0,0.0,0.0,0.0,0.0,0.0,0.0,0.0,0.0,0.0,0.0,0.0,0.0,0.0,0.0,0.0,0.0,0.0,0.0,0.0,0.0,0.0,0.0,0.0,0.0,0.0,0.0,0.0,0.0,0.0,0.0,0.0,0.0,0.0,0.0,0.0,0.0,0.0,0.0,0.0,0.0,0.0,0.0,0.0,0.0,0.0,0.0,0.0,0.0,0.0,0.0,0.0,0.0,0.0,0.0,0.0,0.0,0.0,0.0,0.0,0.0,0.0,0.0,0.0,0.0,0.0,0.0,0.0,0.0,0.0,0.0,0.0,0.0,0.0,0.0,0.0,0.0,0.0,0.0,0.0,0.0,0.0,0.0,0.0,0.0,0.0,0.0,0.0,0.0,0.0,0.0,0.0,0.0,0.0,0.0,0.0,0.0,0.0,0.0,-0.4762,-0.4102,-0.3192,0.0,0.0,0.0,0.0,0.0,0.0,0.0,0.0,0.0,0.0,0.0,0.0,0.0,0.0,0.0,0.0,0.0,0.0,0.0,0.0,0.0,0.0,0.0,0.0,0.0,0.0,0.0,0.0,0.0,0.0,0.0,0.0,0.0,0.0,0.0,0.0,0.0,0.0,0.0,0.0,0.0,0.0,0.0,0.0,0.0,0.0,0.0,0.0,0.0,0.0,0.0,0.0,0.0,0.0,0.0,0.0,0.0,0.0,0.0,0.0,0.0,0.0,0.0,0.0,0.0,0.0,0.0,0.0,0.0,0.0,0.0,0.0,0.0,0.0,0.0,0.0,0.0,0.0,0.0,0.0,0.0,0.0,0.0,0.0,0.0,0.0,0.0,0.0,0.0,0.0,0.0,0.0,0.0,0.0,0.0,0.0,0.0,0.0,0.0,0.0,0.0,0.0,0.0,0.0,0.0,0.0,0.0,0.0,0.0,0.0,-0.5781,-0.5383,-0.5103,0.0,-0.3167,0.0,0.0,0.0,0.0,0.0,0.0,0.0,0.0,0.0,0.0,0.0,0.0,0.0,0.0,0.0,0.0,0.0,0.0,0.0,0.0,0.0,0.0,0.0,0.0,0.0,0.0,0.0,0.0,0.0,0.0,0.0,0.0,0.0,0.0,0.0,0.0,0.0,0.0,0.0,0.0,0.0,0.0,0.0,0.0,0.0,0.0,0.0,0.0,0.0,0.0,0.0,0.0,0.0,0.0,0.0,0.0,0.0,0.0,0.0,0.0,0.0,0.0,0.0,0.0,0.0,0.0,0.0,0.0,0.0,0.0,0.0,0.0,0.0,0.0,0.0,0.0,0.0,0.0,0.0,0.0,0.0,0.0,0.0,0.0,0.0,0.0,0.0,0.0,0.0,0.0,0.0,0.0,0.0,0.0,0.0,0.0,0.0,0.0,0.0,0.0,0.0,0.0,0.0,0.0,0.0,0.0,0.0,0.0,0.0,0.0,-0.6556,-0.6241,-0.5513,-0.4633,0.0,0.0,0.0,0.0,0.0,0.0,0.0,0.0,0.0,0.0,0.0,0.0,0.0,0.0,0.0,0.0,0.0,0.0,0.0,0.0,0.0,0.0,0.0,0.0,0.0,0.0,0.0,0.0,0.0,0.0,0.0,0.0,0.0,0.0,0.0,0.0,0.0,0.0,0.0,0.0,0.0,0.0,0.0,0.0,0.0,0.0,0.0,0.0,0.0,0.0,0.0,0.0,0.0,0.0,0.0,0.0,0.0,0.0,0.0,0.0,0.0,0.0,0.0,0.0,0.0,0.0,0.0,0.0,0.0,0.0,0.0,0.0,0.0,0.0,0.0,0.0,0.0,0.0,0.0,0.0,0.0,0.0,0.0,0.0,0.0,0.0,0.0,0.0,0.0,0.0,0.0,0.0,0.0,0.0,0.0,0.0,0.0,0.0,0.0,0.0,0.0,0.0,0.0,0.0,0.0,0.0,0.0,0.0,0.0,0.0,-0.7207,-0.7127,-0.6728,-0.585,-0.4996,-0.4192,0.0,0.0,0.0,0.0,0.0,0.0,0.0,0.0,0.0,0.0,0.0,0.0,0.0,0.0,0.0,0.0,0.0,0.0,0.0,0.0,0.0,0.0,0.0,0.0,0.0,0.0,0.0,0.0,0.0,0.0,0.0,0.0,0.0,0.0,0.0,0.0,0.0,0.0,0.0,0.0,0.0,0.0,0.0,0.0,0.0,0.0,0.0,0.0,0.0,0.0,0.0,0.0,0.0,0.0,0.0,0.0,0.0,0.0,0.0,0.0,0.0,0.0,0.0,0.0,0.0,0.0,0.0,0.0,0.0,0.0,0.0,0.0,0.0,0.0,0.0,0.0,0.0,0.0,0.0,0.0,0.0,0.0,0.0,0.0,0.0,0.0,0.0,0.0,0.0,0.0,0.0,0.0,0.0,0.0,0.0,0.0,0.0,0.0,0.0,0.0,0.0,0.0,0.0,0.0,0.0,0.0,0.0,0.0,-0.756,-0.7529,-0.7206,-0.6636,-0.6053,-0.5491,0.0,0.0,0.0,0.0,0.0,0.0,0.0,0.0,0.0,0.0,0.0,0.0,0.0,0.0,0.0,0.0,0.0,0.0,0.0,0.0,0.0,0.0,0.0,0.0,0.0,0.0,0.0,0.0,0.0,0.0,0.0,0.0,0.0,0.0,0.0,0.0,0.0,0.0,0.0,0.0,0.0,0.0,0.0,0.0,0.0,0.0,0.0,0.0,0.0,0.0,0.0,0.0,0.0,0.0,0.0,0.0,0.0,0.0,0.0,0.0,0.0,0.0,0.0,0.0,0.0,0.0,0.0,0.0,0.0,0.0,0.0,0.0,0.0,0.0,0.0,0.0,0.0,0.0,0.0,0.0,0.0,0.0,0.0,0.0,0.0,0.0,0.0,0.0,0.0,0.0,0.0,0.0,0.0,0.0,0.0,0.0,0.0,0.0,0.0,0.0,0.0,0.0,0.0,0.0,0.0,0.0,0.0,0.0,0.0,-0.8058,-0.8073,-0.7874,-0.744,-0.6947,-0.6335,0.0,0.0,0.0,0.0,0.0,0.0,0.0,0.0,0.0,0.0,0.0,0.0,0.0,0.0,0.0,0.0,0.0,0.0,0.0,0.0,0.0,0.0,0.0,0.0,0.0,0.0,0.0,0.0,0.0,0.0,0.0,0.0,0.0,0.0,0.0,0.0,0.0,0.0,0.0,0.0,0.0,0.0,0.0,0.0,0.0,0.0,0.0,0.0,0.0,0.0,0.0,0.0,0.0,0.0,0.0,0.0,0.0,0.0,0.0,0.0,0.0,0.0,0.0,0.0,0.0,0.0,0.0,0.0,0.0,0.0,0.0,0.0,0.0,0.0,0.0,0.0,0.0,0.0,0.0,0.0,0.0,0.0,0.0,0.0,0.0,0.0,0.0,0.0,0.0,0.0,0.0,0.0,0.0,0.0,0.0,0.0,0.0,0.0,0.0,0.0,0.0,0.0,0.0,0.0,0.0,0.0,0.0,0.0,0.0,-0.8661,0.0,-0.8659,-0.8246,-0.7843,-0.7231,0.0,0.0,0.0,0.0,0.0,0.0,0.0,0.0,0.0,0.0,0.0,0.0,0.0,0.0,0.0,0.0,0.0,0.0,0.0,0.0,0.0,0.0,0.0,0.0,0.0,0.0,0.0,0.0,0.0,0.0,0.0,0.0,0.0,0.0,0.0,0.0,0.0,0.0,0.0,0.0,0.0,0.0,0.0,0.0,0.0,0.0,0.0,0.0,0.0,0.0,0.0,0.0,0.0,0.0,0.0,0.0,0.0,0.0,0.0,0.0,0.0,0.0,0.0,0.0,0.0,0.0,0.0,0.0,0.0,0.0,0.0,0.0,0.0,0.0,0.0,0.0,0.0,0.0,0.0,0.0,0.0,0.0,0.0,0.0,0.0,0.0,0.0,0.0,0.0,0.0,0.0,0.0,0.0,0.0,0.0,0.0,0.0,0.0,0.0,0.0,0.0,0.0,0.0,0.0,0.0,0.0,0.0,0.0,-0.9188,-0.9422,-0.9675,-0.9534,-0.8941,-0.8715,-0.8099,0.0,0.0,0.0,0.0,0.0,0.0,0.0,0.0,0.0,0.0,0.0,0.0,0.0,0.0,0.0,0.0,0.0,0.0,0.0,0.0,0.0,0.0,0.0,0.0,0.0,0.0,0.0,0.0,0.0,0.0,0.0,0.0,0.0,0.0,0.0,0.0,0.0,0.0,0.0,0.0,0.0,0.0,0.0,0.0,0.0,0.0,0.0,0.0,0.0,0.0,0.0,0.0,0.0,0.0,0.0,0.0,0.0,0.0,0.0,0.0,0.0,0.0,0.0,0.0,0.0,0.0,0.0,0.0,0.0,0.0,0.0,0.0,0.0,0.0,0.0,0.0,0.0,0.0,0.0,0.0,0.0,0.0,0.0,0.0,0.0,0.0,0.0,0.0,0.0,0.0,0.0,0.0,0.0,0.0,0.0,0.0,0.0,0.0,0.0,0.0,0.0,0.0,0.0,0.0,0.0,0.0,0.0,0.0,0.0,-1.0775,-1.0935,-1.0824,-1.0415,-0.974,-0.8961,0.0,0.0,0.0,0.0,0.0,0.0,0.0,0.0,0.0,0.0,0.0,0.0,0.0,0.0,0.0,0.0,0.0,0.0,0.0,0.0,0.0,0.0,0.0,0.0,0.0,0.0,0.0,0.0,0.0,0.0,0.0,0.0,0.0,0.0,0.0,0.0,0.0,0.0,0.0,0.0,0.0,0.0,0.0,0.0,0.0,0.0,0.0,0.0,0.0,0.0,0.0,0.0,0.0,0.0,0.0,0.0,0.0,0.0,0.0,0.0,0.0,0.0,0.0,0.0,0.0,0.0,0.0,0.0,0.0,0.0,0.0,0.0,0.0,0.0,0.0,0.0,0.0,0.0,0.0,0.0,0.0,0.0,0.0,0.0,0.0,0.0,0.0,0.0,0.0,0.0,0.0,0.0,0.0,0.0,0.0,0.0,0.0,0.0,0.0,0.0,0.0,0.0,0.0,0.0,0.0,0.0,0.0,0.0,0.0,-1.2764,-1.2452,-1.2095,-1.1742,-1.0907,-1.0069,-0.9183,0.0,0.0,0.0,0.0,0.0,0.0,0.0,0.0,0.0,0.0,0.0,0.0,0.0,0.0,0.0,0.0,0.0,0.0,0.0,0.0,0.0,0.0,0.0,0.0,0.0,0.0,0.0,0.0,0.0,0.0,0.0,0.0,0.0,0.0,0.0,0.0,0.0,0.0,0.0,0.0,0.0,0.0,0.0,0.0,0.0,0.0,0.0,0.0,0.0,0.0,0.0,0.0,0.0,0.0,0.0,0.0,0.0,0.0,0.0,0.0,0.0,0.0,0.0,0.0,0.0,0.0,0.0,0.0,0.0,0.0,0.0,0.0,0.0,0.0,0.0,0.0,0.0,0.0,0.0,0.0,0.0,0.0,0.0,0.0,0.0,0.0,0.0,0.0,0.0,0.0,0.0,0.0,0.0,0.0,0.0,0.0,0.0,0.0,0.0,0.0,0.0,0.0,0.0,0.0,0.0,0.0,0.0,0.0,-1.5089,-1.4076,-1.3337,-1.2911,-1.2266,-1.1374,0.0,0.0,0.0,0.0,0.0,0.0,0.0,0.0,0.0,0.0,0.0,0.0,0.0,0.0,0.0,0.0,0.0,0.0,0.0,0.0,0.0,0.0,0.0,0.0,0.0,0.0,0.0,0.0,0.0,0.0,0.0,0.0,0.0,0.0,0.0,0.0,0.0,0.0,0.0,0.0,0.0,0.0,0.0,0.0,0.0,0.0,0.0,0.0,0.0,0.0,0.0,0.0,0.0,0.0,0.0,0.0,0.0,0.0,0.0,0.0,0.0,0.0,0.0,0.0,0.0,0.0,0.0,0.0,0.0,0.0,0.0,0.0,0.0,0.0,0.0,0.0,0.0,0.0,0.0,0.0,0.0,0.0,0.0,0.0,0.0,0.0,0.0,0.0,0.0,0.0,0.0,0.0,0.0,0.0,0.0,0.0,0.0,0.0,0.0,0.0,0.0,0.0,0.0,0.0,0.0,0.0,0.0,0.0,0.0,-1.52,-1.5244,-1.493,-1.4289,-1.3624,-1.2612,0.0,0.0,0.0,0.0,0.0,0.0,0.0,0.0,0.0,0.0,0.0,0.0,0.0,0.0,0.0,0.0,0.0,0.0,0.0,0.0,0.0,0.0,0.0,0.0,0.0,0.0,0.0,0.0,0.0,0.0,0.0,0.0,0.0,0.0,0.0,0.0,0.0,0.0,0.0,0.0,0.0,0.0,0.0,0.0,0.0,0.0,0.0,0.0,0.0,0.0,0.0,0.0,0.0,0.0,0.0,0.0,0.0,0.0,0.0,0.0,0.0,0.0,0.0,0.0,0.0,0.0,0.0,0.0,0.0,0.0,0.0,0.0,0.0,0.0,0.0,0.0,0.0,0.0,0.0,0.0,0.0,0.0,0.0,0.0,0.0,0.0,0.0,0.0,0.0,0.0,0.0,0.0,0.0,0.0,0.0,0.0,0.0,0.0,0.0,0.0,0.0,0.0,0.0,0.0,0.0,0.0,0.0,0.0,-1.5471,-1.6498,-1.6496,-1.6258,-1.5754,-1.4848,-1.3729,0.0,0.0,0.0,0.0,0.0,0.0,0.0,0.0,0.0,0.0,0.0,0.0,0.0,0.0,0.0,0.0,0.0,0.0,0.0,0.0,0.0,0.0,0.0,0.0,0.0,0.0,0.0,0.0,0.0,0.0,0.0,0.0,0.0,0.0,0.0,0.0,0.0,0.0,0.0,0.0,0.0,0.0,0.0,0.0,0.0,0.0,0.0,0.0,0.0,0.0,0.0,0.0,0.0,0.0,0.0,0.0,0.0,0.0,0.0,0.0,0.0,0.0,0.0,0.0,0.0,0.0,0.0,0.0,0.0,0.0,0.0,0.0,0.0,0.0,0.0,0.0,0.0,0.0,0.0,0.0,0.0,0.0,0.0,0.0,0.0,0.0,0.0,0.0,0.0,0.0,0.0,0.0,0.0,0.0,0.0,0.0,0.0,0.0,0.0,0.0,0.0,0.0,0.0,0.0,0.0,0.0,0.0,0.0,-1.6518,-1.8084,-1.756,-1.7191,-1.7094,-1.5875,-1.4713,0.0,0.0,0.0,0.0,0.0,0.0,0.0,0.0,0.0,0.0,0.0,0.0,0.0,0.0,0.0,0.0,0.0,0.0,0.0,0.0,0.0,0.0,0.0,0.0,0.0,0.0,0.0,0.0,0.0,0.0,0.0,0.0,0.0,0.0,0.0,0.0,0.0,0.0,0.0,0.0,0.0,0.0,0.0,0.0,0.0,0.0,0.0,0.0,0.0,0.0,0.0,0.0,0.0,0.0,0.0,0.0,0.0,0.0,0.0,0.0,0.0,0.0,0.0,0.0,0.0,0.0,0.0,0.0,0.0,0.0,0.0,0.0,0.0,0.0,0.0,0.0,0.0,0.0,0.0,0.0,0.0,0.0,0.0,0.0,0.0,0.0,0.0,0.0,0.0,0.0,0.0,0.0,0.0,0.0,0.0,0.0,0.0,0.0,0.0,0.0,0.0,0.0,0.0,0.0,0.0,0.0,0.0,0.0,-1.6539,-1.7613,-1.7074,-1.6924,-1.7263,-1.6343,-1.5232,0.0,0.0,0.0,0.0,0.0,0.0,0.0,0.0,0.0,0.0,0.0,0.0,0.0,0.0,0.0,0.0,0.0,0.0,0.0,0.0,0.0,0.0,0.0,0.0,0.0,0.0,0.0,0.0,0.0,0.0,0.0,0.0,0.0,0.0,0.0,0.0,0.0,0.0,0.0,0.0,0.0,0.0,0.0,0.0,0.0,0.0,0.0,0.0,-1.2231,0.0,0.0,0.0,0.0,0.0,0.0,0.0,0.0,0.0,0.0,0.0,0.0,0.0,0.0,0.0,0.0,0.0,0.0,0.0,0.0,0.0,0.0,0.0,0.0,0.0,0.0,0.0,0.0,0.0,0.0,0.0,0.0,0.0,0.0,0.0,0.0,0.0,0.0,0.0,0.0,0.0,0.0,0.0,0.0,0.0,0.0,0.0,0.0,0.0,0.0,0.0,0.0,0.0,0.0,0.0,0.0,0.0,0.0,0.0,-1.7051,-1.8013,-1.7488,-1.7294,-1.7477,-1.6612,-1.5587,0.0,0.0,0.0,0.0,0.0,0.0,0.0,0.0,0.0,0.0,0.0,0.0,0.0,0.0,0.0,0.0,0.0,0.0,0.0,0.0,0.0,0.0,0.0,0.0,0.0,0.0,0.0,0.0,0.0,0.0,0.0,0.0,0.0,0.0,0.0,0.0,0.0,0.0,0.0,0.0,0.0,0.0,0.0,0.0,0.0,0.0,0.0,0.0,0.0,0.0,0.0,0.0,0.0,0.0,0.0,0.0,0.0,0.0,0.0,0.0,0.0,0.0,0.0,0.0,0.0,0.0,0.0,0.0,0.0,0.0,0.0,0.0,0.0,0.0,0.0,0.0,0.0,0.0,0.0,0.0,0.0,0.0,0.0,0.0,0.0,0.0,0.0,0.0,0.0,0.0,0.0,0.0,0.0,0.0,0.0,0.0,0.0,0.0,0.0,0.0,0.0,0.0,0.0,0.0,0.0,0.0,0.0,-1.6326,-1.7531,-1.8523,-1.8002,-1.7708,-1.7802,-1.6753,-1.5849,-1.5102,0.0,0.0,0.0,0.0,0.0,0.0,0.0,0.0,0.0,0.0,0.0,0.0,0.0,0.0,0.0,0.0,0.0,0.0,0.0,0.0,0.0,0.0,0.0,0.0,0.0,0.0,0.0,0.0,0.0,0.0,0.0,0.0,0.0,0.0,0.0,0.0,0.0,0.0,-1.4922,-1.5384,0.0,0.0,0.0,0.0,0.0,0.0,0.0,0.0,-1.4235,0.0,0.0,0.0,0.0,0.0,0.0,0.0,0.0,0.0,0.0,0.0,0.0,0.0,0.0,0.0,0.0,0.0,0.0,0.0,0.0,0.0,0.0,0.0,0.0,0.0,0.0,0.0,0.0,0.0,0.0,0.0,0.0,0.0,0.0,0.0,0.0,0.0,0.0,0.0,0.0,0.0,0.0,0.0,0.0,0.0,0.0,0.0,0.0,0.0,0.0,0.0,0.0,0.0,0.0,0.0,0.0,-1.508,-1.6068,-1.7098,-1.8046,-1.7474,-1.7334,-1.7741,-1.7074,-1.6313,-1.5491,0.0,0.0,0.0,0.0,0.0,0.0,0.0,0.0,0.0,0.0,0.0,0.0,0.0,0.0,0.0,0.0,0.0,0.0,0.0,0.0,0.0,0.0,0.0,0.0,0.0,0.0,0.0,0.0,0.0,0.0,0.0,0.0,0.0,0.0,0.0,0.0,0.0,0.0,0.0,-1.5135,-1.5382,0.0,0.0,0.0,0.0,0.0,0.0,0.0,0.0,-1.4182,0.0,0.0,0.0,0.0,0.0,0.0,0.0,0.0,0.0,0.0,0.0,0.0,0.0,0.0,0.0,0.0,0.0,0.0,0.0,0.0,0.0,0.0,0.0,0.0,0.0,0.0,0.0,0.0,0.0,0.0,0.0,0.0,0.0,0.0,0.0,0.0,0.0,0.0,0.0,0.0,0.0,0.0,0.0,0.0,0.0,0.0,0.0,0.0,0.0,0.0,0.0,0.0,0.0,0.0,0.0,-1.4465,-1.5895,-1.69,-1.7407,-1.7374,-1.7478,-1.7726,-1.6934,-1.6201,0.0,0.0,0.0,0.0,0.0,0.0,0.0,0.0,0.0,0.0,0.0,0.0,0.0,0.0,0.0,0.0,0.0,0.0,0.0,0.0,0.0,0.0,0.0,0.0,0.0,0.0,0.0,0.0,0.0,0.0,0.0,0.0,0.0,0.0,0.0,0.0,0.0,0.0,0.0,0.0,-1.6051,-1.6514,-1.6731,0.0,0.0,0.0,0.0,0.0,0.0,-1.6365,-1.6061,0.0,0.0,0.0,0.0,0.0,0.0,0.0,0.0,0.0,0.0,0.0,0.0,0.0,0.0,0.0,0.0,0.0,0.0,0.0,0.0,0.0,0.0,0.0,0.0,0.0,0.0,0.0,0.0,0.0,0.0,0.0,0.0,0.0,0.0,0.0,0.0,0.0,0.0,0.0,0.0,0.0,0.0,0.0,0.0,0.0,0.0,0.0,0.0,0.0,0.0,0.0,0.0,0.0,0.0,0.0,-1.3938,-1.555,-1.6603,-1.698,-1.7396,-1.7636,-1.7614,-1.6834,-1.6167,0.0,0.0,0.0,0.0,0.0,0.0,0.0,0.0,0.0,0.0,0.0,0.0,0.0,0.0,0.0,0.0,0.0,0.0,0.0,0.0,0.0,0.0,0.0,0.0,0.0,0.0,0.0,0.0,0.0,0.0,0.0,0.0,0.0,0.0,0.0,0.0,0.0,0.0,0.0,0.0,0.0,-1.7782,-1.8339,-1.8383,0.0,0.0,0.0,0.0,-1.896,-1.8311,0.0,0.0,0.0,0.0,0.0,0.0,0.0,0.0,0.0,0.0,0.0,0.0,0.0,0.0,0.0,0.0,0.0,0.0,0.0,0.0,0.0,0.0,0.0,0.0,0.0,0.0,0.0,0.0,0.0,0.0,0.0,0.0,0.0,0.0,0.0,0.0,0.0,0.0,0.0,0.0,0.0,0.0,0.0,0.0,0.0,0.0,0.0,0.0,0.0,0.0,0.0,0.0,0.0,0.0,0.0,0.0,-1.4134,-1.479,-1.5809,-1.7162,-1.7299,-1.736,-1.7333,-1.7245,-1.6612,0.0,0.0,0.0,0.0,0.0,0.0,0.0,0.0,0.0,0.0,0.0,0.0,0.0,0.0,0.0,0.0,0.0,0.0,0.0,0.0,0.0,0.0,0.0,0.0,0.0,0.0,0.0,0.0,0.0,0.0,0.0,0.0,0.0,0.0,0.0,0.0,0.0,0.0,0.0,0.0,0.0,-1.8418,-1.9088,-1.9153,-1.9172,0.0,0.0,0.0,-1.9188,-1.8545,0.0,0.0,0.0,0.0,0.0,0.0,0.0,0.0,0.0,0.0,0.0,0.0,0.0,0.0,0.0,0.0,0.0,0.0,0.0,0.0,0.0,0.0,0.0,0.0,0.0,0.0,0.0,0.0,0.0,0.0,0.0,0.0,0.0,0.0,0.0,0.0,0.0,0.0,0.0,0.0,0.0,0.0,0.0,0.0,0.0,0.0,0.0,0.0,0.0,0.0,0.0,0.0,0.0,0.0,0.0,-1.3273,-1.3958,-1.4751,-1.5637,-1.6647,-1.6971,-1.7136,-1.7136,-1.6603,-1.5951,0.0,0.0,0.0,0.0,0.0,0.0,0.0,0.0,0.0,0.0,0.0,0.0,0.0,0.0,0.0,0.0,0.0,0.0,0.0,0.0,0.0,0.0,0.0,0.0,0.0,0.0,0.0,0.0,0.0,0.0,0.0,0.0,0.0,0.0,0.0,0.0,0.0,0.0,0.0,0.0,0.0,0.0,-1.9883,-2.0387,0.0,0.0,0.0,-2.1305,-2.1305,0.0,0.0,0.0,0.0,0.0,0.0,0.0,0.0,0.0,0.0,0.0,0.0,0.0,0.0,0.0,0.0,0.0,0.0,0.0,0.0,0.0,0.0,0.0,0.0,0.0,0.0,0.0,0.0,0.0,0.0,0.0,0.0,0.0,0.0,0.0,0.0,0.0,0.0,0.0,0.0,0.0,0.0,0.0,0.0,0.0,0.0,0.0,0.0,0.0,0.0,0.0,0.0,0.0,0.0,0.0,0.0,0.0,-1.3888,-1.4619,-1.5435,-1.6315,-1.674,-1.6978,-1.6978,-1.6192,0.0,0.0,0.0,0.0,0.0,0.0,0.0,0.0,0.0,0.0,0.0,0.0,0.0,0.0,0.0,0.0,0.0,0.0,0.0,0.0,0.0,0.0,0.0,0.0,0.0,0.0,0.0,-1.0873,0.0,0.0,0.0,0.0,0.0,0.0,0.0,0.0,0.0,0.0,0.0,0.0,0.0,0.0,-1.921,-2.0728,-2.1448,-2.2039,0.0,0.0,-2.2682,-2.2483,-2.0944,-1.9703,0.0,0.0,0.0,0.0,0.0,0.0,0.0,0.0,0.0,0.0,0.0,0.0,0.0,0.0,0.0,0.0,0.0,0.0,0.0,0.0,0.0,0.0,0.0,0.0,0.0,0.0,0.0,0.0,0.0,0.0,0.0,0.0,0.0,0.0,0.0,0.0,0.0,0.0,0.0,0.0,0.0,0.0,0.0,0.0,0.0,0.0,0.0,0.0,0.0,0.0,0.0,0.0,0.0,0.0,0.0,-1.4118,-1.4181,-1.503,-1.6672,-1.6781,-1.6875,-1.7002,-1.6517,-1.5802,0.0,0.0,0.0,0.0,0.0,0.0,0.0,0.0,0.0,0.0,0.0,0.0,0.0,0.0,0.0,0.0,0.0,0.0,0.0,0.0,0.0,0.0,0.0,0.0,0.0,0.0,0.0,0.0,0.0,0.0,0.0,0.0,0.0,0.0,0.0,0.0,0.0,0.0,0.0,0.0,0.0,-2.0132,-2.1601,-2.2013,-2.218,0.0,0.0,-2.2082,-2.1339,-2.0546,-1.9765,-1.9149,0.0,0.0,0.0,0.0,0.0,0.0,0.0,0.0,0.0,0.0,0.0,0.0,0.0,0.0,0.0,0.0,0.0,0.0,0.0,0.0,0.0,0.0,0.0,0.0,0.0,0.0,0.0,0.0,0.0,0.0,0.0,0.0,0.0,0.0,0.0,0.0,0.0,0.0,0.0,0.0,0.0,0.0,0.0,0.0,0.0,0.0,0.0,0.0,0.0,0.0,0.0,0.0,0.0,-1.3393,-1.4423,-1.442,-1.5061,-1.6355,-1.6505,-1.6584,-1.6628,-1.5928,-1.5403,0.0,0.0,0.0,0.0,0.0,0.0,0.0,0.0,0.0,0.0,0.0,0.0,0.0,0.0,0.0,0.0,0.0,0.0,0.0,0.0,0.0,0.0,0.0,0.0,0.0,0.0,0.0,0.0,-1.0437,-1.0399,-1.0595,0.0,0.0,0.0,0.0,0.0,0.0,0.0,0.0,0.0,0.0,-2.0838,-2.1986,-2.2594,0.0,0.0,-2.2708,-2.233,-2.2064,-2.0636,-1.9475,-1.9241,-1.8933,0.0,0.0,0.0,0.0,0.0,0.0,0.0,0.0,0.0,0.0,0.0,0.0,0.0,0.0,0.0,0.0,0.0,0.0,0.0,0.0,0.0,0.0,0.0,0.0,0.0,0.0,0.0,0.0,0.0,0.0,0.0,0.0,0.0,0.0,0.0,0.0,0.0,0.0,0.0,0.0,0.0,0.0,0.0,0.0,0.0,0.0,0.0,0.0,0.0,0.0,0.0,0.0,-1.3729,-1.4617,-1.477,-1.5307,-1.6262,-1.6383,-1.6403,-1.6288,-1.5592,-1.5221,0.0,0.0,0.0,0.0,0.0,0.0,0.0,0.0,0.0,0.0,0.0,0.0,0.0,0.0,0.0,0.0,0.0,0.0,0.0,0.0,0.0,0.0,0.0,0.0,0.0,0.0,0.0,0.0,-1.0933,-1.0822,-1.0984,0.0,0.0,0.0,0.0,0.0,0.0,0.0,0.0,0.0,0.0,-2.0723,-2.1881,-2.2278,-2.2507,-2.26,-2.22,-2.1811,-2.1627,-2.0302,-1.9234,-1.901,0.0,0.0,0.0,0.0,0.0,0.0,0.0,0.0,0.0,0.0,0.0,0.0,0.0,0.0,0.0,0.0,0.0,0.0,0.0,0.0,0.0,0.0,0.0,0.0,0.0,0.0,0.0,0.0,0.0,0.0,0.0,0.0,0.0,0.0,0.0,0.0,0.0,0.0,0.0,0.0,0.0,0.0,0.0,0.0,0.0,0.0,0.0,0.0,0.0,0.0,0.0,0.0,0.0,0.0,-1.4695,-1.5167,-1.5761,-1.6475,-1.65,-1.6384,-1.6123,-1.5711,-1.5317,-1.4928,0.0,0.0,0.0,0.0,0.0,0.0,0.0,0.0,0.0,0.0,0.0,0.0,0.0,0.0,0.0,0.0,0.0,0.0,0.0,0.0,0.0,0.0,0.0,0.0,0.0,0.0,-1.2264,-1.1885,-1.1469,0.0,0.0,0.0,0.0,0.0,0.0,0.0,0.0,0.0,0.0,-1.9398,-1.9568,-2.1178,-2.0831,-2.0492,-2.0458,-2.0467,-2.0239,-1.9602,-1.9389,-1.9045,0.0,0.0,0.0,0.0,0.0,0.0,0.0,0.0,0.0,0.0,0.0,0.0,0.0,0.0,0.0,0.0,0.0,0.0,0.0,0.0,0.0,0.0,0.0,0.0,0.0,0.0,0.0,0.0,-1.4373,0.0,0.0,0.0,0.0,0.0,0.0,0.0,0.0,0.0,0.0,0.0,-1.5724,-1.5473,0.0,0.0,0.0,0.0,0.0,0.0,0.0,0.0,0.0,0.0,0.0,0.0,-1.4456,-1.5319,-1.5618,-1.6036,-1.6629,-1.6854,-1.6718,-1.625,-1.5978,-1.5514,-1.4858,0.0,0.0,0.0,0.0,0.0,0.0,0.0,0.0,0.0,0.0,0.0,0.0,0.0,0.0,0.0,0.0,0.0,0.0,0.0,0.0,0.0,0.0,0.0,0.0,0.0,-1.2061,0.0,0.0,0.0,0.0,0.0,0.0,0.0,0.0,0.0,0.0,0.0,-1.9702,-1.9314,-2.0005,-2.0585,-2.0673,-2.0903,-2.1112,0.0,0.0,0.0,0.0,0.0,0.0,0.0,0.0,0.0,0.0,0.0,0.0,0.0,0.0,-1.5929,-1.6186,-1.6237,-1.6365,-1.6768,0.0,0.0,0.0,0.0,0.0,0.0,0.0,0.0,0.0,0.0,0.0,0.0,0.0,0.0,0.0,0.0,-1.5211,0.0,0.0,0.0,0.0,0.0,0.0,0.0,0.0,-1.7134,-1.7083,-1.707,-1.6809,-1.6741,0.0,-1.6866,-1.6452,0.0,0.0,0.0,0.0,0.0,0.0,0.0,0.0,-1.5009,-1.5688,-1.601,-1.6363,-1.6757,-1.7031,-1.6853,-1.6146,-1.5748,-1.5324,-1.4838,-1.458,-1.44,0.0,0.0,0.0,0.0,0.0,0.0,0.0,0.0,0.0,0.0,0.0,0.0,0.0,0.0,0.0,0.0,0.0,0.0,0.0,0.0,0.0,0.0,0.0,-1.292,0.0,0.0,0.0,0.0,0.0,0.0,0.0,0.0,0.0,-1.8256,-1.945,-2.0137,-1.951,-2.0128,-2.0668,-2.0735,0.0,0.0,0.0,0.0,0.0,0.0,0.0,-1.9762,-1.9807,-1.9773,-1.9664,-1.9411,-1.8715,-1.8028,-1.7501,0.0,0.0,-1.6337,-1.6295,-1.6421,-1.686,-1.6915,-1.6942,-1.7152,-1.7167,-1.7039,0.0,0.0,0.0,0.0,0.0,0.0,0.0,0.0,-1.5383,-1.5678,0.0,-1.6019,0.0,0.0,0.0,0.0,0.0,0.0,0.0,0.0,-1.7823,-1.7859,-1.7872,-1.7966,-1.8025,-1.8038,-1.8108,-1.7903,-1.7373,-1.6159,0.0,0.0,0.0,0.0,0.0,0.0,-1.5726,-1.5743,-1.6363,-1.6761,-1.6897,-1.7107,-1.6764,-1.5864,-1.5116,-1.4803,-1.4902,-1.5072,-1.4978,-1.454,-1.3879,0.0,0.0,0.0,0.0,0.0,0.0,0.0,0.0,0.0,0.0,0.0,0.0,0.0,0.0,0.0,0.0,0.0,0.0,0.0,0.0,-1.4201,0.0,0.0,0.0,0.0,0.0,0.0,0.0,0.0,0.0,0.0,-1.8212,-1.8738,-1.9427,-2.0283,0.0,0.0,0.0,0.0,-2.0446,-2.0463,-2.0475,-2.0515,-2.0515,-2.0463,-2.0429,-2.0458,0.0,0.0,-1.9441,-1.87,-1.8235,-1.82,-1.8131,-1.7948,-1.7173,-1.7036,-1.7442,-1.8659,-1.8876,-1.9193,-1.9718,-1.9461,-1.9393,-1.5067,0.0,0.0,0.0,0.0,-1.4794,-1.5205,-1.5726,-1.621,-1.6483,-1.6647,-1.6647,0.0,0.0,0.0,0.0,0.0,0.0,-1.8496,-1.8748,-1.8979,-1.9068,-1.9081,-1.8722,-1.8622,-1.8708,-1.8356,-1.8129,-1.7965,-1.7593,-1.6754,-1.5467,0.0,0.0,0.0,0.0,-1.5881,-1.6271,-1.6651,-1.6867,-1.691,-1.724,-1.7029,-1.6177,-1.566,-1.5262,-1.498,-1.5148,-1.5256,-1.5198,-1.4208,0.0,0.0,0.0,0.0,0.0,0.0,0.0,0.0,0.0,0.0,0.0,0.0,0.0,0.0,0.0,0.0,0.0,0.0,0.0,-1.4071,-1.4575,-1.471,0.0,0.0,0.0,0.0,0.0,0.0,0.0,0.0,0.0,-2.051,-2.1256,-2.1389,0.0,0.0,-2.092,-2.0768,-2.1027,-2.1251,-2.1251,0.0,0.0,0.0,-2.1595,-2.1251,-2.1268,-2.0773,-2.0153,-1.9441,-1.9114,-1.8821,-1.8321,-1.82,-1.8114,-1.7924,-1.7807,-1.793,-1.8304,-1.8312,-1.8257,-1.8398,-1.8385,-1.8468,-1.6544,-1.5988,-1.5313,-1.5071,-1.5255,-1.5638,-1.614,-1.6642,-1.7146,-1.746,-1.7617,-1.7779,-1.7831,-1.792,-1.8254,0.0,0.0,0.0,-1.9589,-1.958,-1.9807,-1.9841,-1.9669,-1.9333,-1.9246,-1.9321,-1.9007,-1.8731,-1.8506,-1.8506,-1.7915,-1.6722,0.0,0.0,-1.6694,-1.6685,-1.6748,-1.6848,-1.71,-1.7106,-1.691,-1.7059,-1.6873,-1.6326,-1.5895,-1.5477,-1.5026,-1.5209,-1.5403,-1.5477,-1.4603,-1.3988,0.0,0.0,0.0,0.0,0.0,0.0,0.0,0.0,0.0,0.0,0.0,-1.433,0.0,0.0,0.0,0.0,-1.4156,-1.4359,-1.4564,-1.5227,0.0,0.0,0.0,0.0,0.0,0.0,0.0,-1.936,-2.0168,-2.0939,-2.1658,-2.2412,-2.2404,-2.1146,-2.1401,-2.1596,-2.1337,0.0,-2.2039,-2.2026,-2.2406,-2.2712,-2.2712,-2.2319,-2.2026,-2.2026,-2.1389,-2.0768,-2.0303,-1.9958,-1.9585,-1.9183,-1.8838,-1.8637,-1.8592,-1.8325,-1.8059,-1.8059,-1.7944,-1.7828,-1.776,-1.7704,-1.7758,-1.7782,-1.7686,-1.6506,-1.605,-1.6218,-1.6506,-1.7073,-1.774,-1.8017,-1.8373,-1.8717,-1.9029,-1.931,-1.9625,-2.021,0.0,0.0,-2.0762,-2.0692,-2.0266,-2.038,-2.0204,-1.9886,-1.9823,-1.9798,-1.9798,-1.9798,-1.956,-1.9083,-1.9058,-1.8807,-1.8342,-1.8329,-1.8292,-1.8204,-1.8191,-1.7928,-1.7388,-1.7575,-1.7439,-1.6952,-1.6757,-1.659,-1.6363,-1.5996,-1.5562,-1.5127,-1.5284,-1.5433,-1.5492,-1.4987,-1.4446,-1.3902,0.0,0.0,0.0,0.0,0.0,0.0,0.0,0.0,0.0,0.0,0.0,0.0,0.0,0.0,0.0,-1.4906,0.0,-1.5116,-1.6067,0.0,0.0,0.0,-1.8271,-1.923,-1.9741,-2.0065,-2.0182,0.0,0.0,0.0,0.0,-2.2708,-2.1893,-2.1777,-2.2012,-2.2625,-2.2677,-2.2712,-2.2647,-2.2694,-2.2712,-2.2712,-2.2647,-2.263,-2.2612,-2.213,-2.1664,-2.1492,-2.0992,-2.0532,-2.0159,-1.9723,-1.9201,-1.9132,-1.8431,-1.8011,-1.7983,-1.7878,-1.776,-1.7687,-1.7584,-1.7536,-1.789,-1.7804,-1.7632,-1.7572,-1.7569,-1.7259,-1.7464,-1.7972,-1.7864,-1.8161,-1.8687,-1.8778,-1.9119,-1.9595,-1.9889,-2.014,-2.032,-2.0517,-2.0685,-2.0794,-2.0513,-2.0443,-2.0465,-2.0012,-1.9798,-1.9798,-1.9798,-1.9736,-1.9623,-1.9623,-1.9547,-1.9422,-1.9422,-1.9007,-1.8205,-1.8204,-1.794,-1.7388,-1.7485,-1.7405,-1.7141,-1.7315,-1.7282,-1.6925,-1.6641,-1.6231,-1.5784,-1.5576,-1.5477,-1.5492,-1.5044,-1.4695,-1.4476,-1.3347,0.0,0.0,0.0,0.0,0.0,0.0,0.0,0.0,0.0,-1.6544,-1.699,0.0,-1.6514,0.0,-1.5699,-1.5519,-1.6093,-1.6623,0.0,0.0,-1.9061,-1.9632,-1.9539,-2.0321,-2.0951,-2.1143,-2.1675,-2.2181,-2.2593,-2.2835,-2.287,-2.2574,-2.2526,-2.2583,-2.2694,-2.2712,-2.2712,-2.2712,-2.2712,-2.2712,-2.2712,-2.2712,-2.2712,-2.2712,-2.2543,-2.225,-2.1699,-2.1453,-2.0941,-1.9774,-1.935,-1.9001,-1.8482,-1.8068,-1.7945,-1.7856,-1.7772,-1.7676,-1.7566,-1.7496,-1.7574,-1.8284,-1.8184,-1.8488,-1.861,-1.862,-1.8283,-1.8266,-1.8472,-1.857,-1.8699,-1.8912,-1.9195,-1.9632,-2.0209,-2.0392,-2.0624,-2.0925,-2.1045,-2.1163,-2.1272,-2.108,-2.0881,-2.0559,-2.0338,-2.0049,-1.9811,-1.9798,-1.9798,-1.9798,-1.9798,-1.9798,-1.9798,-1.9798,-1.951,-1.8945,-1.8657,-1.8304,-1.7752,-1.7403,-1.7226,-1.7212,-1.7468,-1.745,-1.7112,-1.68,-1.6457,-1.6076,-1.5694,-1.5507,-1.5536,-1.5368,-1.5124,-1.4797,-1.4077,-1.3728,0.0,0.0,0.0,0.0,0.0,0.0,0.0,0.0,0.0,0.0,0.0,-1.7425,0.0,-1.6739,0.0,-1.7133,-1.773,-1.8392,-1.9058,-1.9832,-2.0252,-2.0086,-2.072,-2.1213,-2.1413,-2.1884,-2.2348,-2.2747,-2.285,-2.2893,-2.2799,-2.2777,-2.2738,-2.2712,-2.2712,-2.2712,-2.2712,-2.2712,-2.2712,-2.2712,-2.2712,-2.2712,-2.2712,-2.2712,-2.2543,-2.2177,-2.2078,-2.1772,-2.0901,-2.0443,-2.0076,-1.957,-1.9107,-1.8816,-1.8721,-1.8648,-1.8325,-1.7657,-1.7417,-1.7494,-1.8692,-1.8691,-1.8996,-1.9218,-1.9359,-1.9288,-1.9143,-1.9062,-1.9432,-1.9411,-1.9131,-1.9813,-2.0366,-2.0807,-2.1063,-2.1328,-2.1635,-2.1812,-2.181,-2.1668,-2.1761,-2.1395,-2.062,-2.0736,-2.0503,-1.9924,-1.9924,-1.9874,-1.9798,-1.9798,-1.9798,-1.9798,-1.9798,-1.9798,-1.9773,-1.9271,-1.8756,-1.8204,-1.7397,-1.6986,-1.7032,-1.7246,-1.721,-1.6946,-1.6718,-1.6468,-1.6211,-1.5928,-1.5743,-1.5743,-1.5919,-1.5764,-1.5179,-1.5069,-1.4868,0.0,-1.5513,0.0,0.0,0.0,0.0,0.0,0.0,0.0,0.0,-1.8129,-1.8064,-1.7617,-1.7746,-1.7937,-1.8173,-1.8997,-1.9673,-2.0002,-2.031,-2.0562,-2.0813,-2.1083,-2.1289,-2.1423,-2.2171,-2.2672,-2.2672,-2.2725,-2.2764,-2.2764,-2.2712,-2.2685,-2.2699,-2.2712,-2.2712,-2.2712,-2.2712,-2.2712,-2.2712,-2.2712,-2.2712,-2.2712,-2.2712,-2.2699,-2.2638,-2.2651,-2.259,-2.2335,-2.1743,-2.131,-2.1177,-2.0425,-1.9934,-1.9718,-1.961,-1.9209,-1.8178,-1.7798,-1.7556,-1.8608,-1.8991,-1.8775,-1.9109,-1.9769,-1.9441,-1.9459,-1.9703,-1.9247,-1.9079,-1.9142,-1.9813,-2.0172,-2.0291,-2.0732,-2.1094,-2.1296,-2.1635,-2.1858,-2.2091,-2.1902,-2.1802,-2.1753,-2.1487,-2.1041,-2.0553,-2.0528,-2.0289,-1.9798,-1.9798,-1.9798,-1.9798,-1.9798,-1.9798,-1.9773,0.0,0.0,0.0,-1.7662,-1.6986,-1.6186,-1.6399,-1.6369,-1.6069,-1.6367,0.0,-1.6746,-1.6994,-1.6895,-1.6455,-1.6593,0.0,0.0,0.0,0.0,0.0,0.0,0.0,0.0,0.0,0.0,0.0,-1.9233,-1.9186,-1.9217,-1.9137,-1.8775,-1.8141,-1.8096,-1.8437,-1.9138,-1.9515,-2.0052,-2.0783,-2.1162,-2.1406,-2.151,-2.1788,-2.2018,-2.2104,-2.2361,-2.2542,-2.2525,-2.2555,-2.2565,-2.2619,-2.2636,-2.2632,-2.2703,-2.2699,-2.2712,-2.2712,-2.2712,-2.2712,-2.2712,-2.2699,-2.2699,-2.2712,-2.2712,-2.2672,-2.2636,-2.2619,-2.2339,-2.1771,-2.1437,-2.1079,-2.0398,-2.0009,-1.9974,-1.9773,-1.9698,-1.9518,-1.9187,-1.9055,-1.8988,-1.8538,0.0,-1.8709,-1.8911,0.0,-1.9276,-1.9418,-1.9592,-1.9207,-1.9073,-1.9108,-1.9462,-1.977,-2.0096,-2.0399,-2.0764,-2.1221,-2.1391,-2.1686,-2.2049,-2.2019,-2.1981,-2.1959,-2.1832,-2.155,-2.1106,-2.1106,-2.0805,-2.0277,-2.0251,-2.0087,-1.9798,-1.9798,-1.9798,-1.9786,-1.9547,-1.8995,-1.8204,-1.7741,-1.7111,-1.6338,-1.6292,-1.6284,-1.6249,0.0,0.0,0.0,0.0,0.0,0.0,0.0,0.0,0.0,0.0,0.0,-1.7717,-1.7811,-1.8058,-1.8506,-1.8874,-1.9294,-1.9766,-1.9879,-1.9914,-1.9994,-1.9864,-1.964,-1.9299,-1.9236,-1.9426,-1.9934,-2.0128,-2.0479,-2.1023,-2.1278,-2.1465,-2.1694,-2.1871,-2.2049,-2.2132,-2.2293,-2.2363,-2.2332,-2.2419,-2.246,-2.2501,-2.2542,-2.2552,-2.2592,-2.2659,-2.2699,-2.2712,-2.2712,-2.2712,-2.2699,-2.2672,-2.2646,-2.2663,-2.2619,-2.2596,-2.2569,-2.2555,-2.2391,-2.1939,-2.1817,-2.1597,-2.1184,-2.0951,-2.0869,-2.0758,-2.0674,-2.0591,-2.0441,-1.9862,-1.9342,-1.8394,-1.8404,-1.8575,-1.8701,-1.8724,-1.899,-1.9186,-1.9224,0.0,0.0,0.0,-1.9073,-1.9429,-1.9944,-2.0031,-2.0431,-2.0987,-2.1126,-2.1411,-2.1831,-2.2092,-2.2128,-2.1972,-2.2137,-2.2027,-2.1644,-2.1631,-2.1383,-2.0855,-2.0842,-2.0553,-1.9999,-1.9949,-1.9899,-1.9811,-1.9798,-1.9371,-1.8505,-1.8008,-1.7422,-1.6722,-1.6496,-1.6428,-1.6523,-1.6518,-1.6912,-1.7703,-1.7625,-1.7576,-1.768,-1.7748,-1.7796,-1.7796,-1.7876,-1.7969,-1.8089,-1.8631,-1.9015,-1.9118,-1.9634,-2.0008,-2.0083,-2.022,-2.0321,-2.0371,-2.0321,-2.0304,-2.0321,-2.0321,-2.0357,-2.051,-2.0644,-2.0794,-2.1038,-2.1151,-2.1357,-2.1588,-2.1723,-2.1825,-2.194,-2.2058,-2.2147,-2.2161,-2.2262,-2.2349,-2.2394,-2.2419,-2.2443,-2.2474,-2.2565,-2.2646,-2.2646,-2.2646,-2.2659,-2.2646,-2.2623,-2.2579,-2.2596,-2.2525,-2.2501,-2.2474,-2.2474,-2.2432,-2.2268,-2.2279,-2.2175,-2.212,-2.1888,-2.1886,-2.1781,-2.1708,-2.1603,-2.1335,-2.0477,-1.9731,-1.8388,-1.87,-1.8366,-1.8491,-1.8982,-1.8658,-1.8734,-1.9048,-1.915,-1.9102,-1.8934,-1.9028,-1.9142,-1.9253,-1.9835,-2.0161,-2.0291,-2.0935,-2.1316,0.0,-2.1956,-2.2347,-2.2567,-2.2737,-2.26,-2.2192,-2.2196,-2.1907,-2.143,-2.1395,-2.1119,-2.0641,-2.0566,-2.0314,-1.9836,-1.9798,-1.9723,-1.9572,-1.9058,-1.8113,-1.6747,-1.6723,-1.643,-1.5909,-1.6601,-1.7172,-1.7617,-1.835,-1.8534,-1.8056,-1.8089,-1.8156,-1.822,-1.8288,-1.8576,-1.9125,-1.9363,-1.9516,-1.9594,-1.9734,-1.9904,-2.0098,-2.022,-2.0304,-2.0304,-2.0304,-2.0321,-2.0371,-2.0388,-2.0458,-2.0627,-2.0744,-2.0811,-2.0926,-2.1151,-2.1325,-2.1388,-2.1556,-2.1723,-2.1796,-2.1884,-2.1972,-2.2015,-2.2058,-2.2132,-2.2251,-2.2279,-2.2248,-2.2321,-2.2446,-2.2528,-2.2511,-2.2511,-2.2511,-2.2511,-2.2528,-2.2497,-2.2515,-2.247,-2.2432,-2.2335,-2.2321,-2.2262,-2.2084,-2.2073,-2.2015,-2.1974,-2.1869,-2.1783,-2.1708,-2.1572,-2.1433,-2.1324,-2.0988,-2.0875,-1.8087,-1.8372,-1.8036,-1.8213,-1.8699,-1.8603,-1.8872,-1.9271,-1.8929,-1.8745,-1.8744,-1.8696,-1.8841,-1.9098,-1.9495,-1.9824,-2.0128,-2.0679,-2.1063,-2.1316,-2.1749,-2.2104,-2.2445,-2.2665,-2.2754,-2.2625,-2.2689,-2.2472,-2.1983,-2.1933,-2.1506,-2.0729,-2.039,-2.0049,-1.9823,-1.9798,-1.9798,-1.9786,-1.9259,-1.8553,-1.7644,-1.7084,-1.6739,-1.6612,-1.6846,-1.7243,-1.7901,-1.8354,-1.8574,-1.8467,-1.8504,-1.8574,-1.8676,-1.8699,-1.8881,-1.9217,-1.9358,-1.9501,-1.9632,-1.9812,-1.9937,-2.0028,-2.0218,-2.0287,-2.0287,-2.0287,-2.0321,-2.0354,-2.0371,-2.044,-2.0525,-2.0661,-2.0761,-2.0844,-2.1006,-2.1119,-2.1214,-2.1388,-2.1527,-2.157,-2.1678,-2.1738,-2.1783,-2.184,-2.1913,-2.202,-2.2061,-2.2101,-2.2149,-2.2172,-2.2274,-2.2363,-2.2408,-2.2377,-2.2377,-2.2363,-2.2332,-2.2332,-2.2274,-2.2217,-2.2147,-2.2132,-2.2104,-2.2013,-2.194,-2.1884,-2.184,-2.1753,-2.1648,-2.151,-2.1418,-2.1309,-2.1231,-2.1183,-2.1231,-1.7861,-1.8072,-1.7762,-1.7865,-1.8295,-1.8574,-1.9011,-1.9356,-1.8685,-1.8485,-1.8573,-1.8336,-1.8506,-1.8975,-1.9175,-1.9539,-1.9977,-2.0421,-2.083,-2.1169,-2.1529,-2.1886,-2.2216,-2.2537,-2.2769,-2.2909,-2.3047,-2.2882,-2.2535,-2.2468,-2.1933,-2.093,-2.0289,-1.9936,-1.9798,-1.9798,-1.9798,-1.9773,-1.9409,-1.9018,-1.8605,-1.783,-1.7471,-1.7523,-1.735,-1.7496,-1.8095,-1.8228,-1.8397,-1.863,-1.8669,-1.8721,-1.8827,-1.8879,-1.8922,-1.9026,-1.9157,-1.9358,-1.9608,-1.9812,-1.9955,-2.0005,-2.0183,-2.0287,-2.0287,-2.0287,-2.0287,-2.0304,-2.0371,-2.0388,-2.0423,-2.0542,-2.0676,-2.0777,-2.0844,-2.0942,-2.1103,-2.1199,-2.1294,-2.1356,-2.145,-2.1511,-2.1557,-2.1648,-2.1723,-2.1768,-2.1855,-2.1911,-2.1911,-2.1897,-2.1988,-2.2109,-2.2194,-2.2206,-2.2223,-2.2163,-2.2135,-2.212,-2.203,-2.1972,-2.194,-2.1926,-2.1928,-2.1899,-2.1811,-2.1768,-2.1754,-2.1634,-2.1496,-2.134,-2.1277,-2.1199,-2.1071,-2.1087,-2.1151,-1.7861,-1.8026,-1.7629,-1.7568,-1.7843,-1.8437,-1.8851,-1.8973,-1.8571,-1.8507,-1.8642,-1.8205,-1.8212,-1.8583,-1.8942,-1.9308,-1.9704,-2.0205,-2.0593,-2.0967,-2.1478,-2.1886,-2.2197,-2.2525,-2.2769,-2.2909,-2.3017,-2.307,-2.2982,-2.297,-2.2472,-2.1468,-2.088,-2.0339,-1.9886,-1.9823,-1.9811,-1.9798,-1.9888,-1.9724,-1.9349,-1.933,-1.8939,-1.8135,-1.8318,-1.8266,-1.799,-1.8109,-1.8208,-1.8248,-1.8262,-1.8307,-1.8378,-1.8484,-1.8639,-1.8836,-1.9007,-1.925,-1.9571,-1.9738,-1.9866,-2.0005,-2.0183,-2.0287,-2.0287,-2.0287,-2.0287,-2.0287,-2.0289,-2.0339,-2.0388,-2.0423,-2.0525,-2.0676,-2.0745,-2.0828,-2.0926,-2.1038,-2.1135,-2.1215,-2.1247,-2.1294,-2.1387,-2.1448,-2.1494,-2.1619,-2.1693,-2.1739,-2.1694,-2.1679,-2.1679,-2.1724,-2.1857,-2.1969,-2.1957,-2.1926,-2.1899,-2.1871,-2.1842,-2.1796,-2.1768,-2.1738,-2.1708,-2.1693,-2.165,-2.162,-2.1574,-2.1465,-2.1309,-2.1246,-2.1167,-2.1071,-2.0958,-2.0942,-2.1023,-1.7621,-1.7794,-1.7369,-1.7374,-1.775,-1.8282,-1.8674,-1.897,-1.842,-1.8378,-1.8579,-1.797,-1.8008,-1.8516,-1.8774,-1.9175,-1.9605,-2.0031,-2.041,-2.0818,-2.1285,-2.1675,-2.1937,-2.2475,-2.2739,-2.2812,-2.2987,-2.3095,-2.3045,-2.2782,-2.2246,-2.1506,-2.0955,-2.0566,-2.0339,-2.0339,-2.0339,-2.0339,-2.0536,-2.0399,-1.9925,-1.9677,-1.9482,-1.9229,-1.8671,-1.8315,-1.8189,-1.7949,-1.7828,-1.7902,-1.7983,-1.8069,-1.8108,-1.8299,-1.847,-1.8606,-1.8912,-1.9213,-1.945,-1.965,-1.9797,-1.9973,-2.0113,-2.0202,-2.0287,-2.0287,-2.0287,-2.0287,-2.0287,-2.0304,-2.0354,-2.0388,-2.0424,-2.0525,-2.0578,-2.0662,-2.0761,-2.0876,-2.0941,-2.1023,-2.1103,-2.1167,-2.1278,-2.1356,-2.1449,-2.1574,-2.162,-2.162,-2.1589,-2.1604,-2.1604,-2.1604,-2.1694,-2.1738,-2.1739,-2.1708,-2.1709,-2.1678,-2.1679,-2.1664,-2.165,-2.165,-2.162,-2.1511,-2.145,-2.1419,-2.1341,-2.1278,-2.1167,-2.1103,-2.1006,-2.0909,-2.0844,-2.0957,-2.1054,-1.7481,-1.7617,-1.7332,-1.7331,-1.7635,-1.8193,-1.8603,-1.8824,-1.8315,-1.8351,-1.8608,-1.7839,-1.7872,-1.8405,-1.864,-1.9008,-1.9473,-1.9857,-2.0248,-2.0658,-2.1146,-2.1517,-2.1761,-2.2383,-2.2708,-2.2739,-2.2957,-2.3095,-2.307,-2.2719,-2.2259,-2.1707,-2.1182,-2.0842,-2.0704,-2.0691,-2.0731,-2.0759,-2.0971,-2.0899,-2.0502,-2.01,-1.9921,-1.9853,-1.8991,-1.8429,-1.8322,-1.7794,-1.7537,-1.7659,-1.7767,-1.7868,-1.7902,-1.8108,-1.8299,-1.8517,-1.887,-1.9153,-1.9321,-1.9527,-1.9759,-1.9902,-2.0028,-2.015,-2.022,-2.0287,-2.0287,-2.0287,-2.0287,-2.0287,-2.0304,-2.0354,-2.0371,-2.0405,-2.0458,-2.0526,-2.0611,-2.0695,-2.0761,-2.0828,-2.0924,-2.1038,-2.1103,-2.1214,-2.1341,-2.1436,-2.1467,-2.1482,-2.145,-2.1467,-2.1467,-2.1482,-2.1466,-2.1497,-2.1511,-2.1511,-2.1511,-2.1481,-2.1466,-2.1467,-2.1482,-2.1467,-2.145,-2.131,-2.1262,-2.123,-2.1215,-2.1119,-2.099,-2.0892,-2.0811,-2.0778,-2.0777,-2.0957,-2.107,-1.7481,-1.7663,-1.7681,-1.7501,-1.7441,-1.8112,-1.8531,-1.8718,-1.8286,-1.8323,-1.8543,-1.7839,-1.7803,-1.8313,-1.8482,-1.8751,-1.9164,-1.9671,-2.0107,-2.0475,-2.1083,-2.1506,-2.173,-2.2383,-2.272,-2.2708,-2.2957,-2.3108,-2.3108,-2.307,-2.2794,-2.2259,-2.1681,-2.1194,-2.0805,-2.0742,-2.0784,-2.0956,-2.1088,-2.1144,-2.116,-2.0833,-2.036,-1.9876,-1.9317,-1.8807,-1.8262,-1.7752,-1.7509,-1.7509,-1.7625,-1.7699,-1.774,-1.7902,-1.8161,-1.8484,-1.8822,-1.9017,-1.9139,-1.9413,-1.9632,-1.9726,-1.994,-2.0115,-2.0118,-2.022,-2.0272,-2.0287,-2.0287,-2.0287,-2.0287,-2.0304,-2.0339,-2.0388,-2.0388,-2.0424,-2.051,-2.0527,-2.0561,-2.0677,-2.0743,-2.0826,-2.0926,-2.1038,-2.1119,-2.1151,-2.1135,-2.1151,-2.1167,-2.1151,-2.1151,-2.1151,-2.1167,-2.1183,-2.134,-2.1356,-2.1294,-2.1278,-2.1263,-2.1167,-2.1151,-2.1135,-2.1135,-2.1135,-2.1103,-2.1087,-2.1071,-2.0974,-2.0859,-2.0761,-2.0727,-2.0726,-2.0727,-2.0957,-2.1054,-1.7152,-1.7236,-1.7095,-1.7133,-1.7457,-1.7919,-1.8371,-1.8621,-1.8286,-1.823,-1.8349,-1.7804,-1.7666,-1.792,-1.8337,-1.8717,-1.9098,-1.9539,-1.9976,-2.041,-2.0871,-2.1296,-2.173,-2.2154,-2.2494,-2.272,-2.2891,-2.3017,-2.3108,-2.3095,-2.2832,-2.2309,-2.1757,-2.1395,-2.1245,-2.1219,-2.1274,-2.1399,-2.1561,-2.1503,-2.1315,-2.0912,-2.0569,-2.0373,-1.9847,-1.9281,-1.8655,-1.8149,-1.771,-1.7329,-1.7432,-1.7536,-1.7604,-1.7841,-1.8101,-1.8352,-1.8562,-1.8788,-1.9017,-1.9205,-1.9398,-1.9672,-1.9797,-1.9925,-2.0065,-2.015,-2.0202,-2.027,-2.0287,-2.0287,-2.0287,-2.0287,-2.0289,-2.0321,-2.0354,-2.0371,-2.0424,-2.0441,-2.0475,-2.0577,-2.0677,-2.0811,-2.0893,-2.1022,-2.1087,-2.1087,-2.1087,-2.1087,-2.1087,-2.1087,-2.107,-2.1087,-2.1103,-2.1135,-2.1167,-2.1183,-2.1167,-2.1151,-2.1135,-2.1119,-2.1103,-2.107,-2.107,-2.0974,-2.0957,-2.0892,-2.0859,-2.076,-2.0645,-2.0628,-2.0594,-2.0676,-2.0694,-2.0924,-2.1038,-1.697,-1.6947,-1.6685,-1.6904,-1.7408,-1.7757,-1.8201,-1.8603,-1.821,-1.8147,-1.8248,-1.7769,-1.7554,-1.7784,-1.8236,-1.865,-1.8942,-1.9374,-1.9868,-2.0335,-2.0711,-2.1169,-2.1686,-2.203,-2.234,-2.2616,-2.28,-2.2957,-2.3078,-2.3095,-2.2907,-2.2543,-2.1857,-2.1481,-2.1468,-2.1317,-2.1403,-2.1695,-2.1716,-2.1594,-2.1549,-2.1029,-2.0699,-2.0646,-2.0294,-1.9695,-1.8937,-1.8388,-1.7826,-1.7324,-1.7329,-1.7453,-1.757,-1.7841,-1.8048,-1.8187,-1.8406,-1.8595,-1.8822,-1.8988,-1.9232,-1.949,-1.9654,-1.9797,-1.9957,-2.0028,-2.0115,-2.0218,-2.0235,-2.0252,-2.0287,-2.0287,-2.0287,-2.0287,-2.0287,-2.0321,-2.0354,-2.0371,-2.0407,-2.0509,-2.0661,-2.0778,-2.086,-2.0941,-2.099,-2.1006,-2.099,-2.1006,-2.1006,-2.099,-2.099,-2.099,-2.1006,-2.1006,-2.1006,-2.1006,-2.1022,-2.1006,-2.1006,-2.1022,-2.1021,-2.1006,-2.0941,-2.0844,-2.0762,-2.0695,-2.0611,-2.0527,-2.0494,-2.0477,-2.051,-2.0594,-2.0726,-2.0907,-2.1006,-1.6937,-1.6902,-1.6728,-1.6839,-1.7327,-1.7627,-1.8072,-1.8519,-1.8078,-1.8035,-1.8267,-1.776,-1.7564,-1.7784,-1.8236,-1.8516,-1.8684,-1.9241,-1.9769,-2.0139,-2.0635,-2.1181,-2.1635,-2.1968,-2.2247,-2.242,-2.2726,-2.2957,-2.3047,-2.3047,-2.301,-2.2852,-2.1954,-2.1465,-2.1481,-2.1069,-2.1169,-2.1665,-2.1449,-2.1546,-2.2112,-2.1224,-2.0649,-2.0687,-2.0635,-2.0061,-1.895,-1.8414,-1.7878,-1.729,-1.7329,-1.7487,-1.7679,-1.7875,-1.7988,-1.8048,-1.8313,-1.8464,-1.8556,-1.887,-1.9078,-1.9195,-1.9457,-1.9654,-1.9744,-1.9884,-2.0008,-2.008,-2.0115,-2.015,-2.027,-2.0287,-2.0287,-2.0287,-2.0287,-2.0304,-2.0289,-2.0304,-2.0356,-2.0477,-2.0627,-2.0727,-2.0794,-2.0843,-2.0859,-2.0843,-2.0843,-2.0843,-2.0859,-2.0859,-2.0827,-2.0843,-2.0859,-2.0892,-2.0843,-2.0826,-2.086,-2.0877,-2.086,-2.0859,-2.0859,-2.0842,-2.0793,-2.0695,-2.0611,-2.0527,-2.051,-2.0441,-2.0407,-2.0407,-2.0475,-2.0543,-2.0644,-2.0809,-2.1006,-1.6338,-1.6447,-1.63,-1.6518,-1.6984,-1.7497,-1.7991,-1.8395,-1.8002,-1.7961,-1.8082,-1.7699,-1.7539,-1.7666,-1.811,-1.8414,-1.8549,-1.9042,-1.9495,-1.9998,-2.0496,-2.0978,-2.136,-2.173,-2.203,-2.2402,-2.2635,-2.2781,-2.283,-2.283,-2.2818,-2.265,-2.1832,-2.135,-2.1275,-2.0939,-2.1064,-2.1619,-2.1237,-2.1332,-2.1894,-2.0952,-2.0436,-2.0537,-2.0562,-2.004,-1.8989,-1.8741,-1.8179,-1.7264,-1.7253,-1.7357,-1.7563,-1.7706,-1.7835,-1.8002,-1.8175,-1.8361,-1.8498,-1.8692,-1.8908,-1.9064,-1.9217,-1.9398,-1.9596,-1.9723,-1.983,-1.9904,-1.9975,-2.0078,-2.0133,-2.0168,-2.0202,-2.0287,-2.0287,-2.0287,-2.0287,-2.0287,-2.0373,-2.0477,-2.0544,-2.0628,-2.0761,-2.081,-2.081,-2.081,-2.081,-2.081,-2.081,-2.081,-2.081,-2.081,-2.081,-2.081,-2.081,-2.081,-2.0827,-2.0828,-2.0811,-2.0777,-2.0744,-2.0693,-2.0627,-2.0577,-2.0475,-2.0424,-2.039,-2.0373,-2.0339,-2.0388,-2.0441,-2.0492,-2.0527,-2.0695,-2.0924,-1.6053,-1.6162,-1.6141,-1.6335,-1.6738,-1.7343,-1.7834,-1.8074,-1.7825,-1.7768,-1.7807,-1.7554,-1.7426,-1.7573,-1.8008,-1.8313,-1.8539,-1.8908,-1.933,-1.9802,-2.0335,-2.0786,-2.119,-2.1592,-2.1968,-2.2297,-2.2494,-2.2647,-2.272,-2.2708,-2.2708,-2.2566,-2.177,-2.1269,-2.1117,-2.0671,-2.0695,-2.1221,-2.0866,-2.0894,-2.127,-2.0681,-2.0283,-2.0461,-2.0524,-1.9963,-1.8992,-1.8898,-1.8375,-1.7455,-1.724,-1.7357,-1.7509,-1.7645,-1.7781,-1.7935,-1.8075,-1.8208,-1.838,-1.8537,-1.8711,-1.8893,-1.9021,-1.9153,-1.9376,-1.949,-1.9581,-1.9738,-1.9812,-1.9919,-1.9975,-2.0028,-2.008,-2.0166,-2.0268,-2.0287,-2.0287,-2.0287,-2.034,-2.046,-2.051,-2.0611,-2.0745,-2.081,-2.081,-2.081,-2.081,-2.081,-2.081,-2.081,-2.081,-2.081,-2.081,-2.081,-2.081,-2.081,-2.081,-2.0794,-2.0761,-2.0744,-2.0711,-2.0609,-2.0509,-2.0458,-2.0373,-2.0356,-2.0339,-2.0321,-2.0304,-2.0356,-2.0407,-2.0458,-2.051,-2.0695,-2.0909,-1.6031,-1.6139,-1.6133,-1.6294,-1.6689,-1.7147,-1.7521,-1.7709,-1.7523,-1.7485,-1.745,-1.7292,-1.7314,-1.7539,-1.7837,-1.8144,-1.8516,-1.8841,-1.9208,-1.9605,-2.0107,-2.0614,-2.1201,-2.1612,-2.1894,-2.2123,-2.2297,-2.2463,-2.2555,-2.2616,-2.2678,-2.2537,-2.172,-2.1241,-2.0974,-2.0243,-2.0162,-2.0696,-2.028,-2.0345,-2.0973,-2.045,-2.0246,-2.0436,-2.0435,-1.9966,-1.9047,-1.8692,-1.8218,-1.7363,-1.7308,-1.7391,-1.7502,-1.7625,-1.774,-1.7868,-1.7942,-1.8075,-1.8208,-1.838,-1.8537,-1.8692,-1.8846,-1.9012,-1.9101,-1.9213,-1.9358,-1.952,-1.9614,-1.9708,-1.978,-1.9902,-1.9955,-2.0023,-2.0166,-2.0252,-2.0287,-2.0287,-2.0357,-2.0443,-2.0494,-2.0561,-2.0745,-2.0794,-2.081,-2.081,-2.081,-2.081,-2.081,-2.081,-2.081,-2.081,-2.081,-2.081,-2.081,-2.081,-2.081,-2.0744,-2.0695,-2.0645,-2.0627,-2.0509,-2.044,-2.0356,-2.0321,-2.0304,-2.0287,-2.0287,-2.0287,-2.0321,-2.0373,-2.0424,-2.0527,-2.0695,-2.0876,-1.5405,-1.5464,-1.5876,-1.617,-1.6337,-1.6782,-1.7096,-1.7234,-1.7138,-1.7134,-1.7234,-1.7213,-1.7279,-1.7495,-1.7691,-1.7988,-1.8337,-1.8573,-1.8875,-1.9274,-1.978,-2.0453,-2.1106,-2.1431,-2.1643,-2.1824,-2.1999,-2.2061,-2.2123,-2.2278,-2.234,-2.2304,-2.1433,-2.0941,-2.077,-1.9976,-1.9846,-2.0246,-1.985,-1.9916,-2.0437,-2.0073,-1.9875,-2.0131,-2.0246,-1.9767,-1.8776,-1.8009,-1.7565,-1.7264,-1.7233,-1.7295,-1.7432,-1.7502,-1.7625,-1.7747,-1.7915,-1.8022,-1.8095,-1.8208,-1.8347,-1.8537,-1.86,-1.8711,-1.8874,-1.8984,-1.913,-1.9228,-1.9339,-1.9453,-1.9614,-1.9723,-1.983,-1.9988,-2.0096,-2.0185,-2.027,-2.0287,-2.0321,-2.0407,-2.044,-2.0526,-2.066,-2.0743,-2.0744,-2.0794,-2.081,-2.081,-2.081,-2.081,-2.081,-2.081,-2.081,-2.081,-2.081,-2.081,-2.0777,-2.0694,-2.0627,-2.0544,-2.0509,-2.0441,-2.0356,-2.0304,-2.0304,-2.0287,-2.0287,-2.0287,-2.0287,-2.0287,-2.0339,-2.0407,-2.0492,-2.0644,-2.081,-1.5156,-1.518,-1.5707,-1.5997,-1.6124,-1.6437,-1.6678,-1.6825,-1.6804,-1.6848,-1.6946,-1.7053,-1.7176,-1.7392,-1.7554,-1.7837,-1.8178,-1.8347,-1.8674,-1.9175,-1.9736,-2.0356,-2.0903,-2.1178,-2.138,-2.1529,-2.1769,-2.1906,-2.1937,-2.2092,-2.2166,-2.1932,-2.1174,-2.0696,-2.0531,-1.9728,-1.9371,-1.9617,-1.9436,-1.9566,-1.9945,-1.9764,-1.9784,-1.9965,-2.0055,-1.9658,-1.8719,-1.7739,-1.7212,-1.7212,-1.7212,-1.7253,-1.7384,-1.7453,-1.7543,-1.7679,-1.7808,-1.7895,-1.8002,-1.8075,-1.8189,-1.8327,-1.8386,-1.8489,-1.8659,-1.8807,-1.8903,-1.8969,-1.9097,-1.9228,-1.9358,-1.949,-1.9636,-1.9777,-1.9902,-1.9995,-2.0168,-2.0202,-2.0287,-2.0356,-2.039,-2.0441,-2.061,-2.066,-2.071,-2.076,-2.0794,-2.081,-2.081,-2.081,-2.081,-2.081,-2.0794,-2.0794,-2.076,-2.0744,-2.0694,-2.0627,-2.0543,-2.0443,-2.0424,-2.0373,-2.0339,-2.0287,-2.0287,-2.0287,-2.0287,-2.0287,-2.0287,-2.0304,-2.0354,-2.039,-2.0492,-2.056,-2.0744,-1.5078,-1.5082,-1.5492,-1.5809,-1.6014,-1.6141,-1.6231,-1.6392,-1.6458,-1.6518,-1.6623,-1.6769,-1.7003,-1.7201,-1.7461,-1.7666,-1.7974,-1.8212,-1.864,-1.9131,-1.966,-2.0183,-2.0561,-2.0999,-2.1158,-2.1253,-2.1632,-2.1769,-2.1831,-2.203,-2.2042,-2.1718,-2.0985,-2.0507,-2.0158,-1.9407,-1.8982,-1.9047,-1.9141,-1.9223,-1.944,-1.9497,-1.9629,-1.9811,-1.9611,-1.9367,-1.8585,-1.7748,-1.7157,-1.7191,-1.7178,-1.724,-1.7363,-1.737,-1.7487,-1.7631,-1.7699,-1.7808,-1.7922,-1.7962,-1.8042,-1.8155,-1.8254,-1.8333,-1.8445,-1.8576,-1.8678,-1.876,-1.8903,-1.9017,-1.913,-1.9284,-1.9431,-1.9574,-1.9632,-1.9797,-1.9977,-2.0065,-2.015,-2.0321,-2.0356,-2.0407,-2.0492,-2.0594,-2.0693,-2.0726,-2.076,-2.081,-2.081,-2.081,-2.0794,-2.0761,-2.0777,-2.076,-2.0711,-2.0676,-2.0594,-2.0526,-2.0441,-2.0373,-2.0356,-2.0321,-2.0304,-2.0287,-2.0287,-2.0287,-2.0287,-2.0287,-2.0287,-2.0304,-2.0304,-2.039,-2.0458,-2.0509,-2.0644,-1.4516,-1.4824,-1.5276,-1.555,-1.5692,-1.5717,-1.5793,-1.5885,-1.5935,-1.6131,-1.6351,-1.6577,-1.6855,-1.7201,-1.7382,-1.7588,-1.7828,-1.8134,-1.8607,-1.9108,-1.9308,-1.9704,-2.0129,-2.0679,-2.0935,-2.1063,-2.1336,-2.1494,-2.1526,-2.1651,-2.1792,-2.1572,-2.0647,-2.0187,-1.9952,-1.9105,-1.8694,-1.8732,-1.8813,-1.8946,-1.9078,-1.9249,-1.9394,-1.9515,-1.8946,-1.8649,-1.8452,-1.7609,-1.707,-1.7052,-1.7136,-1.722,-1.7274,-1.7329,-1.7425,-1.7487,-1.7618,-1.772,-1.7781,-1.7868,-1.7955,-1.8022,-1.8082,-1.8135,-1.8262,-1.8366,-1.845,-1.8562,-1.8692,-1.8841,-1.8993,-1.9097,-1.9228,-1.9354,-1.9431,-1.9545,-1.9744,-1.9922,-2.0061,-2.0133,-2.0185,-2.022,-2.039,-2.0492,-2.0592,-2.0676,-2.0743,-2.0794,-2.081,-2.0794,-2.076,-2.0695,-2.0678,-2.0677,-2.0594,-2.0543,-2.0508,-2.0441,-2.0373,-2.0354,-2.0304,-2.0287,-2.0287,-2.0287,-2.0287,-2.0287,-2.0287,-2.0287,-2.0287,-2.0287,-2.0304,-2.0356,-2.0407,-2.0475,-2.0544,-1.4326,-1.44,-1.4853,-1.5032,-1.5065,-1.5134,-1.5265,-1.5458,-1.5593,-1.5832,-1.6105,-1.6447,-1.6707,-1.6959,-1.721,-1.7451,-1.7691,-1.81,-1.8472,-1.8841,-1.9119,-1.9473,-1.9802,-2.0335,-2.0658,-2.07,-2.1031,-2.1146,-2.1175,-2.1105,-2.1028,-2.0908,-1.9952,-1.9385,-1.9275,-1.8573,-1.8243,-1.829,-1.841,-1.8583,-1.8813,-1.9025,-1.9223,-1.9211,-1.8598,-1.8202,-1.8268,-1.7456,-1.705,-1.701,-1.7073,-1.7136,-1.7199,-1.7253,-1.7329,-1.7404,-1.7487,-1.7618,-1.7692,-1.7774,-1.7862,-1.7955,-1.7968,-1.8042,-1.8129,-1.8195,-1.8288,-1.8347,-1.8464,-1.8615,-1.8827,-1.8927,-1.9026,-1.9134,-1.9228,-1.9339,-1.9508,-1.9708,-1.9919,-2.001,-2.0098,-2.015,-2.0254,-2.039,-2.0458,-2.0542,-2.0594,-2.0645,-2.0628,-2.0628,-2.0644,-2.061,-2.0595,-2.0544,-2.0477,-2.0424,-2.0405,-2.0356,-2.0321,-2.0304,-2.0304,-2.0287,-2.0287,-2.0287,-2.0287,-2.0287,-2.0287,-2.0287,-2.0287,-2.0287,-2.0304,-2.0354,-2.0373,-2.0458,-2.056,-1.4171,-1.3994,-1.4318,-1.4432,-1.4425,-1.4547,-1.4808,-1.5208,-1.5444,-1.5711,-1.5953,-1.6422,-1.6676,-1.6691,-1.7063,-1.7314,-1.7632,-1.7974,-1.8337,-1.8617,-1.8841,-1.914,-1.9446,-1.9716,-1.9907,-2.0114,-2.0508,-2.0667,-2.0515,-2.0361,-2.0205,-1.9913,-1.9186,-1.8811,-1.8475,-1.8008,-1.7838,-1.7979,-1.81,-1.8302,-1.856,-1.8827,-1.904,-1.9094,-1.8413,-1.8038,-1.7929,-1.7343,-1.6854,-1.6973,-1.6994,-1.7065,-1.7149,-1.7199,-1.7253,-1.7363,-1.7404,-1.7494,-1.7618,-1.7699,-1.7774,-1.7902,-1.7969,-1.7982,-1.8022,-1.8095,-1.8169,-1.8195,-1.8279,-1.8397,-1.862,-1.8755,-1.8851,-1.8927,-1.9021,-1.9134,-1.9269,-1.949,-1.969,-1.9902,-1.9975,-2.0028,-2.015,-2.0287,-2.0339,-2.0405,-2.0458,-2.0494,-2.0494,-2.0494,-2.0526,-2.0526,-2.0509,-2.0492,-2.0407,-2.0373,-2.0339,-2.0321,-2.0287,-2.0287,-2.0287,-2.0287,-2.0287,-2.0287,-2.0287,-2.0287,-2.0287,-2.0287,-2.0287,-2.0287,-2.0304,-2.0321,-2.0373,-2.0441,-2.0543,-1.3613,-1.3661,-1.368,-1.3829,-1.407,-1.4283,-1.4681,-1.521,-1.5553,-1.5923,-1.6208,-1.6614,-1.6679,-1.6674,-1.6975,-1.732,-1.7498,-1.7784,-1.8103,-1.8312,-1.842,-1.8506,-1.885,-1.8838,-1.8717,-1.8851,-1.9419,-1.9753,-1.9582,-1.9396,-1.9321,-1.9209,-1.8726,-1.8406,-1.8249,-1.8008,-1.7728,-1.7854,-1.7991,-1.8193,-1.841,-1.8587,-1.8753,-1.8883,-1.8066,-1.775,-1.7692,-1.7105,-1.6641,-1.6761,-1.6931,-1.7002,-1.7065,-1.7136,-1.7199,-1.7253,-1.7329,-1.7432,-1.7543,-1.7659,-1.776,-1.7862,-1.7922,-1.7942,-1.7949,-1.7975,-1.8055,-1.8082,-1.8187,-1.8305,-1.8378,-1.8581,-1.8711,-1.8788,-1.8903,-1.9036,-1.9153,-1.9288,-1.9472,-1.969,-1.9797,-1.9904,-2.0028,-2.015,-2.0252,-2.0304,-2.0373,-2.0426,-2.0443,-2.046,-2.0475,-2.0458,-2.044,-2.0388,-2.0339,-2.0321,-2.0304,-2.0304,-2.0287,-2.0287,-2.0287,-2.0287,-2.0287,-2.0287,-2.0287,-2.0287,-2.0287,-2.0287,-2.0287,-2.0287,-2.0287,-2.0287,-2.0339,-2.039,-2.0443,-1.2934,-1.3055,-1.3091,-1.3251,-1.3486,-1.3946,-1.4419,-1.4944,-1.5469,-1.5675,-1.5822,-1.61,-1.6105,-1.6008,-1.6166,-1.6523,-1.6916,-1.7137,-1.7442,-1.7698,-1.7804,-1.7987,-1.8302,-1.8214,-1.8052,-1.8046,-1.8403,-1.8739,-1.8665,-1.8425,-1.8356,-1.8196,-1.7846,-1.7663,-1.7676,-1.7461,-1.7507,-1.7661,-1.7838,-1.7975,-1.8166,-1.8344,-1.8504,-1.8189,-1.7794,-1.7412,-1.7141,-1.6846,-1.6504,-1.6599,-1.6761,-1.6876,-1.6968,-1.7052,-1.7115,-1.7178,-1.7253,-1.7357,-1.7488,-1.7584,-1.7686,-1.7882,-1.7902,-1.7902,-1.7922,-1.7929,-1.7962,-1.8022,-1.8062,-1.8187,-1.8305,-1.8431,-1.8542,-1.8678,-1.8788,-1.8903,-1.9036,-1.9134,-1.9288,-1.9475,-1.9636,-1.9762,-1.9904,-2.0028,-2.0133,-2.022,-2.0272,-2.0323,-2.0375,-2.0375,-2.039,-2.039,-2.0371,-2.0354,-2.0304,-2.0304,-2.0287,-2.0287,-2.0287,-2.0287,-2.0287,-2.0287,-2.0287,-2.0287,-2.0287,-2.0287,-2.0287,-2.0287,-2.0287,-2.0287,-2.0287,-2.0304,-2.0304,-2.0356,-2.0392,-1.2323,-1.2363,-1.2624,-1.2801,-1.2987,-1.3712,-1.4281,-1.4721,-1.5279,-1.5434,-1.5306,-1.5517,-1.548,-1.5307,-1.549,-1.5804,-1.6192,-1.6472,-1.6829,-1.7188,-1.7265,-1.7462,-1.7727,-1.7763,-1.759,-1.7286,-1.7334,-1.7493,-1.7768,-1.7597,-1.7429,-1.7362,-1.6985,-1.6864,-1.7022,-1.7088,-1.7207,-1.744,-1.7601,-1.7728,-1.7881,-1.8116,-1.8112,-1.7756,-1.7452,-1.7063,-1.6737,-1.6406,-1.6334,-1.6426,-1.6577,-1.674,-1.6876,-1.6947,-1.7052,-1.7136,-1.7178,-1.7303,-1.7427,-1.7529,-1.7611,-1.7821,-1.7862,-1.7902,-1.7902,-1.7922,-1.7929,-1.7975,-1.8022,-1.8082,-1.8187,-1.826,-1.8392,-1.8542,-1.8634,-1.8711,-1.8884,-1.9003,-1.9101,-1.9273,-1.9472,-1.9636,-1.9744,-1.9869,-1.9975,-2.0096,-2.0148,-2.0185,-2.0237,-2.0254,-2.0272,-2.0304,-2.0304,-2.0304,-2.0304,-2.0304,-2.0287,-2.0287,-2.0287,-2.0287,-2.0287,-2.0287,-2.0287,-2.0287,-2.0287,-2.0287,-2.0287,-2.0287,-2.0287,-2.0287,-2.0287,-2.0304,-2.0304,-2.0321,-2.0373,-1.1918,-1.1914,-1.2363,-1.2649,-1.2936,-1.3705,-1.4388,-1.481,-1.5087,-1.5295,-1.5186,-1.5295,-1.5144,-1.505,-1.5391,-1.5794,-1.6113,-1.6287,-1.6572,-1.6918,-1.6779,-1.6819,-1.7027,-1.6713,-1.679,-1.6683,-1.6623,-1.6686,-1.6969,-1.6963,-1.6906,-1.6875,-1.6846,-1.6835,-1.6927,-1.6955,-1.7179,-1.744,-1.7534,-1.7617,-1.7717,-1.7859,-1.7714,-1.7425,-1.708,-1.6726,-1.6442,-1.6122,-1.6037,-1.621,-1.6392,-1.6522,-1.6607,-1.6863,-1.6968,-1.7065,-1.7128,-1.7253,-1.7378,-1.7447,-1.755,-1.7706,-1.7801,-1.7882,-1.7902,-1.7902,-1.7922,-1.7922,-1.7955,-1.8022,-1.8082,-1.8155,-1.8254,-1.8352,-1.8464,-1.8562,-1.8731,-1.8865,-1.895,-1.9045,-1.9213,-1.9402,-1.9566,-1.969,-1.9797,-1.9919,-2.0041,-2.0061,-2.0098,-2.0133,-2.0185,-2.0235,-2.0287,-2.0287,-2.0287,-2.0287,-2.0287,-2.0287,-2.0287,-2.0287,-2.0287,-2.0287,-2.0287,-2.0287,-2.0287,-2.0287,-2.0287,-2.0287,-2.0287,-2.0287,-2.0287,-2.0287,-2.0287,-2.0321,-2.0354,-1.1177,-1.1682,-1.2145,-1.2582,-1.3006,-1.3533,-1.4024,-1.4379,-1.4592,-1.4561,-1.4455,-1.457,-1.4557,-1.4523,-1.4763,-1.5133,-1.547,-1.567,-1.5915,-1.6337,-1.6257,-1.6294,-1.6437,-1.6448,-1.6402,-1.6374,-1.6402,-1.6501,-1.6573,-1.6591,-1.6563,-1.6591,-1.6602,-1.662,-1.6797,-1.6881,-1.7022,-1.7217,-1.7374,-1.7562,-1.7617,-1.7501,-1.7225,-1.6817,-1.6499,-1.6207,-1.5938,-1.586,-1.5804,-1.5991,-1.6132,-1.6328,-1.6479,-1.665,-1.6757,-1.6939,-1.6981,-1.7128,-1.735,-1.7399,-1.7481,-1.7584,-1.772,-1.7821,-1.7882,-1.7902,-1.7902,-1.7902,-1.7942,-1.7955,-1.8002,-1.8055,-1.8149,-1.8248,-1.8313,-1.8445,-1.8562,-1.8692,-1.8793,-1.8889,-1.8969,-1.9157,-1.9343,-1.9435,-1.9545,-1.9723,-1.9812,-1.9851,-1.9957,-2.0063,-2.0115,-2.015,-2.0235,-2.0287,-2.0287,-2.0287,-2.027,-2.0287,-2.0287,-2.0287,-2.0287,-2.0287,-2.027,-2.0287,-2.0287,-2.0287,-2.0287,-2.0287,-2.0287,-2.0287,-2.0287,-2.0287,-2.0287,-2.0287,-2.0321,-1.0596,-1.1373,-1.1927,-1.2434,-1.289,-1.3197,-1.354,-1.3823,-1.3822,-1.3709,-1.3644,-1.3811,-1.3939,-1.3982,-1.4183,-1.4558,-1.4949,-1.497,-1.5235,-1.5556,-1.5788,-1.5963,-1.6089,-1.6202,-1.6259,-1.6288,-1.6278,-1.6306,-1.6345,-1.6374,-1.642,-1.6402,-1.6431,-1.6506,-1.6609,-1.6751,-1.692,-1.7134,-1.7329,-1.7401,-1.7317,-1.7109,-1.6673,-1.6257,-1.5893,-1.5636,-1.5348,-1.5413,-1.557,-1.5748,-1.5891,-1.6088,-1.6262,-1.6414,-1.6565,-1.6727,-1.6791,-1.6952,-1.7141,-1.7267,-1.7357,-1.7481,-1.7584,-1.772,-1.7821,-1.7842,-1.7882,-1.7902,-1.7922,-1.7949,-1.7942,-1.7975,-1.8036,-1.8115,-1.8181,-1.8293,-1.8406,-1.8523,-1.862,-1.8711,-1.8774,-1.887,-1.9026,-1.9153,-1.9302,-1.9487,-1.9596,-1.9654,-1.9797,-1.9922,-2.001,-2.0045,-2.0113,-2.0166,-2.0183,-2.02,-2.0218,-2.0252,-2.0252,-2.0287,-2.027,-2.0252,-2.0202,-2.0235,-2.0252,-2.0235,-2.02,-2.0252,-2.0287,-2.0287,-2.0287,-2.0287,-2.0287,-2.0287,-2.0321,-1.0335,-1.099,-1.1644,-1.2042,-1.2318,-1.2664,-1.3026,-1.3189,-1.2811,-1.2927,-1.3269,-1.3369,-1.3551,-1.3787,-1.401,-1.4309,-1.4715,-1.4902,-1.5137,-1.54,-1.5614,-1.5759,-1.5875,-1.5943,-1.5972,-1.599,-1.6077,-1.6124,-1.6171,-1.6306,-1.6335,-1.6402,-1.6374,-1.6477,-1.6609,-1.6733,-1.6931,-1.7123,-1.7219,-1.7027,-1.684,-1.6585,-1.6291,-1.5626,-1.5458,-1.5389,-1.512,-1.5176,-1.5289,-1.5513,-1.5681,-1.5836,-1.5991,-1.6175,-1.6349,-1.6457,-1.6599,-1.6718,-1.6825,-1.7065,-1.7267,-1.7391,-1.7481,-1.757,-1.7699,-1.772,-1.7774,-1.7862,-1.7882,-1.7922,-1.7922,-1.7922,-1.7989,-1.8016,-1.8062,-1.8155,-1.8234,-1.8313,-1.8411,-1.8517,-1.8595,-1.8639,-1.8716,-1.8851,-1.9026,-1.9228,-1.9376,-1.9453,-1.9617,-1.9762,-1.9866,-1.9919,-1.9973,-2.0008,-2.0008,-2.0043,-2.0096,-2.0131,-2.0148,-2.02,-2.0252,-2.0202,-2.0133,-2.0115,-2.0131,-2.0113,-2.0115,-2.0168,-2.0235,-2.027,-2.0287,-2.0287,-2.0287,-2.0287,-2.0321,-1.0019,-1.0503,-1.0844,-1.1383,-1.203,-1.2219,-1.2228,-1.2133,-1.2062,-1.2322,-1.2869,-1.2958,-1.3224,-1.358,-1.392,-1.421,-1.4567,-1.4745,-1.4931,-1.5167,-1.54,-1.5546,-1.5633,-1.5759,-1.5914,-1.5885,-1.5933,-1.599,-1.6019,-1.6134,-1.621,-1.6249,-1.6316,-1.6402,-1.6516,-1.6676,-1.6909,-1.697,-1.6907,-1.665,-1.6492,-1.5953,-1.5612,-1.5364,-1.4993,-1.4989,-1.4914,-1.4949,-1.5085,-1.5244,-1.5413,-1.557,-1.5703,-1.5913,-1.6066,-1.6154,-1.6297,-1.6417,-1.6568,-1.6812,-1.7086,-1.7253,-1.7303,-1.7385,-1.7563,-1.7638,-1.7699,-1.7781,-1.7842,-1.7862,-1.7902,-1.7902,-1.7942,-1.7949,-1.7975,-1.8036,-1.8095,-1.8161,-1.822,-1.8347,-1.8361,-1.838,-1.8445,-1.8542,-1.8741,-1.895,-1.9116,-1.9284,-1.9431,-1.9563,-1.965,-1.9756,-1.9795,-1.983,-1.9848,-1.9919,-2.0005,-2.0008,-2.0008,-2.0061,-2.0113,-2.0096,-2.0043,-2.0008,-2.0008,-2.0008,-2.0043,-2.0115,-2.0168,-2.0235,-2.027,-2.0287,-2.0287,-2.0287,-2.0321,-0.9627,-1.001,-1.0178,-1.076,-1.1565,-1.1533,-1.1438,-1.133,-1.1448,-1.1875,-1.2467,-1.2652,-1.3011,-1.3428,-1.3722,-1.4031,-1.433,-1.4538,-1.4686,-1.4893,-1.5098,-1.5274,-1.5371,-1.5469,-1.5556,-1.5643,-1.572,-1.572,-1.5749,-1.5923,-1.6009,-1.6105,-1.622,-1.6306,-1.6459,-1.662,-1.6771,-1.6703,-1.658,-1.6232,-1.6029,-1.552,-1.5031,-1.5017,-1.4734,-1.4659,-1.473,-1.48,-1.4857,-1.5028,-1.5165,-1.5335,-1.548,-1.5637,-1.5758,-1.5859,-1.5969,-1.6113,-1.6275,-1.6599,-1.6888,-1.7002,-1.7115,-1.724,-1.7399,-1.7536,-1.761,-1.7645,-1.7727,-1.7767,-1.7788,-1.7801,-1.7821,-1.7828,-1.7915,-1.7975,-1.8009,-1.8075,-1.8095,-1.8155,-1.8189,-1.8242,-1.8282,-1.8366,-1.8567,-1.876,-1.8917,-1.9064,-1.9191,-1.9321,-1.9431,-1.952,-1.9596,-1.9632,-1.9672,-1.9705,-1.9723,-1.981,-1.9812,-1.9884,-1.9919,-1.9902,-1.9902,-1.9869,-1.9884,-1.9917,-1.9937,-1.9957,-2.0063,-2.0202,-2.0252,-2.0287,-2.0287,-2.0287,-2.0287,-0.9066,-0.9587,-0.9755,-1.029,-1.0934,-1.0631,-1.0671,-1.0929,-1.1072,-1.1459,-1.2027,-1.2366,-1.273,-1.3137,-1.3263,-1.3551,-1.3844,-1.4175,-1.4359,-1.4477,-1.4692,-1.4904,-1.499,-1.5059,-1.5147,-1.5117,-1.5245,-1.541,-1.5381,-1.5611,-1.5756,-1.5781,-1.5822,-1.6056,-1.6361,-1.6513,-1.6507,-1.6315,-1.6224,-1.578,-1.5368,-1.5053,-1.4762,-1.4593,-1.4462,-1.4454,-1.4569,-1.465,-1.4708,-1.4811,-1.4983,-1.5097,-1.5165,-1.5379,-1.5513,-1.5536,-1.5659,-1.5748,-1.5859,-1.6374,-1.6633,-1.674,-1.6884,-1.7031,-1.7191,-1.7329,-1.7453,-1.7488,-1.755,-1.7537,-1.757,-1.7625,-1.7679,-1.772,-1.7794,-1.7835,-1.7875,-1.7875,-1.7915,-1.7955,-1.8089,-1.8183,-1.8183,-1.8262,-1.8445,-1.8606,-1.8745,-1.886,-1.8965,-1.9078,-1.9191,-1.9246,-1.9339,-1.9391,-1.9395,-1.9413,-1.945,-1.9556,-1.9629,-1.9683,-1.9705,-1.9723,-1.9723,-1.9708,-1.9708,-1.9705,-1.9741,-1.9762,-1.994,-2.0133,-2.0252,-2.0287,-2.0287,-2.0287,-2.0287,-0.8653,-0.9207,-0.9284,-0.9645,-1.0107,-1.026,-1.0299,-1.038,-1.0657,-1.1025,-1.1391,-1.1656,-1.1853,-1.2163,-1.2513,-1.2789,-1.2972,-1.3162,-1.3377,-1.3796,-1.4026,-1.4286,-1.4427,-1.4573,-1.4737,-1.4863,-1.4991,-1.4955,-1.4867,-1.5085,-1.5028,-1.5009,-1.5197,-1.542,-1.5815,-1.6032,-1.5986,-1.5595,-1.5365,-1.5078,-1.4838,-1.4559,-1.4357,-1.4257,-1.4257,-1.4326,-1.4454,-1.45,-1.4581,-1.4661,-1.4823,-1.4903,-1.4926,-1.5142,-1.5244,-1.5289,-1.5401,-1.557,-1.5659,-1.5935,-1.6253,-1.6436,-1.6629,-1.6799,-1.6981,-1.717,-1.7261,-1.7323,-1.7393,-1.7434,-1.7516,-1.7516,-1.757,-1.757,-1.7632,-1.7618,-1.7618,-1.7639,-1.7659,-1.7733,-1.7862,-1.7969,-1.8029,-1.8063,-1.8208,-1.8333,-1.847,-1.8567,-1.8659,-1.8817,-1.8931,-1.8984,-1.904,-1.9093,-1.913,-1.9172,-1.9232,-1.9339,-1.9395,-1.9465,-1.9487,-1.9505,-1.9505,-1.9487,-1.949,-1.9508,-1.9599,-1.9726,-1.9904,-2.0045,-2.0168,-2.027,-2.0287,-2.0287,-2.0287,-0.8155,-0.8577,-0.8801,-0.9069,-0.9445,-0.9873,-1.0039,-1.0069,-1.0335,-1.0614,-1.0916,-1.1077,-1.1313,-1.1531,-1.1796,-1.2083,-1.225,-1.2462,-1.2597,-1.3005,-1.3192,-1.3411,-1.3678,-1.392,-1.3879,-1.4133,-1.4287,-1.4298,-1.4165,-1.434,-1.4443,-1.4449,-1.445,-1.471,-1.5075,-1.5225,-1.531,-1.4991,-1.4753,-1.462,-1.4414,-1.4225,-1.4078,-1.4093,-1.414,-1.4186,-1.428,-1.4384,-1.4488,-1.4534,-1.4604,-1.473,-1.4765,-1.488,-1.4994,-1.5085,-1.5244,-1.5413,-1.5468,-1.5603,-1.5891,-1.6144,-1.6328,-1.6543,-1.6748,-1.6905,-1.701,-1.7115,-1.7227,-1.7269,-1.7289,-1.731,-1.7372,-1.7385,-1.7447,-1.7447,-1.7475,-1.7496,-1.7516,-1.7604,-1.7666,-1.7754,-1.7835,-1.7889,-1.7949,-1.8069,-1.8189,-1.8268,-1.8386,-1.8548,-1.8683,-1.8736,-1.8793,-1.887,-1.8927,-1.8969,-1.9045,-1.9134,-1.9153,-1.9191,-1.9224,-1.9257,-1.9261,-1.9284,-1.9339,-1.9417,-1.956,-1.9705,-1.9815,-1.9957,-2.0098,-2.0185,-2.027,-2.0287,-2.0287,-0.7607,-0.7841,-0.827,-0.8565,-0.885,-0.9444,-0.9824,-1.005,-1.0043,-1.0236,-1.0565,-1.0663,-1.0854,-1.1308,-1.1416,-1.1543,-1.1795,-1.1969,-1.211,-1.2217,-1.2389,-1.2569,-1.2724,-1.2842,-1.3033,-1.3083,-1.3222,-1.3516,-1.335,-1.3525,-1.3763,-1.3977,-1.3992,-1.4023,-1.4102,-1.4271,-1.4399,-1.4249,-1.4215,-1.4105,-1.3944,-1.3921,-1.3892,-1.3905,-1.3962,-1.3986,-1.408,-1.414,-1.421,-1.428,-1.4407,-1.4523,-1.4627,-1.4707,-1.48,-1.4926,-1.5142,-1.5233,-1.5278,-1.5401,-1.5547,-1.5792,-1.6088,-1.6328,-1.65,-1.6607,-1.6757,-1.6854,-1.6939,-1.6939,-1.6973,-1.7044,-1.7094,-1.7191,-1.7287,-1.7337,-1.7385,-1.7427,-1.7447,-1.7488,-1.7516,-1.7578,-1.7611,-1.7652,-1.7727,-1.7794,-1.7895,-1.7955,-1.8075,-1.8293,-1.8411,-1.8503,-1.8562,-1.8678,-1.8702,-1.8702,-1.8779,-1.8831,-1.8836,-1.8874,-1.8941,-1.9031,-1.904,-1.9082,-1.9195,-1.9288,-1.9413,-1.956,-1.9723,-1.9851,-1.9975,-2.0098,-2.02,-2.027,-2.0287,-0.7187,-0.7593,-0.7681,-0.797,-0.8386,-0.8616,-0.9009,-0.9418,-0.9464,-0.9667,-0.9959,-0.9933,-1.0187,-1.028,-1.0386,-1.0603,-1.0788,-1.0963,-1.1214,-1.1411,-1.1627,-1.1902,-1.2085,-1.221,-1.2363,-1.2529,-1.2695,-1.2735,-1.2723,-1.2816,-1.2836,-1.2947,-1.3167,-1.3078,-1.3109,-1.3193,-1.3377,-1.352,-1.3612,-1.3607,-1.3519,-1.3467,-1.3539,-1.3668,-1.3726,-1.3773,-1.3915,-1.3986,-1.4057,-1.4104,-1.4138,-1.4208,-1.4326,-1.4454,-1.4558,-1.4811,-1.496,-1.5028,-1.5062,-1.5221,-1.5368,-1.5413,-1.5669,-1.5891,-1.611,-1.6306,-1.6479,-1.6565,-1.6663,-1.6718,-1.6761,-1.6812,-1.6863,-1.6939,-1.7036,-1.7044,-1.7094,-1.7136,-1.7178,-1.7303,-1.7331,-1.7393,-1.7427,-1.7455,-1.7529,-1.757,-1.7598,-1.7679,-1.7814,-1.8016,-1.8189,-1.8282,-1.8327,-1.8411,-1.8406,-1.8372,-1.8464,-1.8542,-1.8567,-1.8625,-1.8741,-1.8831,-1.8836,-1.8912,-1.8988,-1.9082,-1.9209,-1.9376,-1.9545,-1.9723,-1.9833,-1.9975,-2.0098,-2.0183,-2.0252,-0.6647,-0.698,-0.714,-0.7471,-0.7857,-0.8029,-0.8311,-0.8677,-0.8953,-0.9201,-0.9416,-0.9513,-0.9595,-0.9762,-0.9907,-1.0063,-1.0226,-1.0361,-1.0525,-1.0664,-1.0849,-1.1008,-1.1277,-1.1494,-1.1527,-1.1747,-1.1917,-1.1957,-1.2015,-1.2117,-1.2153,-1.2305,-1.2298,-1.2323,-1.241,-1.2531,-1.2616,-1.2808,-1.2958,-1.3069,-1.3108,-1.3098,-1.3252,-1.3372,-1.3443,-1.3549,-1.3692,-1.3773,-1.3844,-1.3892,-1.3902,-1.4044,-1.4163,-1.4303,-1.4419,-1.4673,-1.48,-1.4857,-1.4914,-1.5028,-1.5108,-1.5187,-1.5311,-1.5525,-1.5736,-1.5935,-1.6132,-1.6284,-1.6405,-1.6504,-1.6568,-1.6599,-1.6641,-1.6684,-1.6705,-1.6705,-1.6748,-1.6791,-1.6918,-1.7065,-1.7149,-1.7199,-1.7261,-1.7289,-1.7331,-1.7385,-1.7447,-1.7529,-1.7632,-1.7808,-1.7949,-1.8063,-1.8109,-1.8175,-1.8149,-1.8149,-1.8268,-1.8347,-1.838,-1.8445,-1.8567,-1.8586,-1.8581,-1.8659,-1.876,-1.8908,-1.904,-1.9195,-1.938,-1.9541,-1.9687,-1.9797,-1.9922,-2.0043,-2.0129,-0.6092,-0.616,-0.6669,-0.7056,-0.7327,-0.7543,-0.7771,-0.7913,-0.8466,-0.8811,-0.9002,-0.9244,-0.9413,-0.9517,-0.9655,-0.9766,-0.9844,-0.9921,-0.9973,-1.0007,-1.0153,-1.0319,-1.0434,-1.0451,-1.0765,-1.0808,-1.0954,-1.1233,-1.1277,-1.1427,-1.1678,-1.1852,-1.1952,-1.1977,-1.1977,-1.2026,-1.2092,-1.2166,-1.2461,-1.2715,-1.2861,-1.2924,-1.3021,-1.3132,-1.3156,-1.318,-1.3242,-1.3386,-1.3539,-1.3644,-1.375,-1.3868,-1.401,-1.4197,-1.4314,-1.4443,-1.4616,-1.4719,-1.4788,-1.4891,-1.4903,-1.4994,-1.5119,-1.521,-1.5368,-1.5659,-1.5869,-1.6001,-1.6122,-1.6178,-1.621,-1.6231,-1.6275,-1.6297,-1.634,-1.6371,-1.6436,-1.6534,-1.6684,-1.6833,-1.6918,-1.6981,-1.7002,-1.7031,-1.7136,-1.7178,-1.7233,-1.7316,-1.7419,-1.7543,-1.7686,-1.7842,-1.7909,-1.7955,-1.8029,-1.8049,-1.8129,-1.8169,-1.8169,-1.8242,-1.8366,-1.8347,-1.8301,-1.8425,-1.8581,-1.8736,-1.8889,-1.9064,-1.9213,-1.9358,-1.9505,-1.9617,-1.9759,-1.9848,-1.9988,-0.586,-0.5992,-0.6409,-0.6629,-0.6694,-0.7062,-0.7367,-0.7628,-0.7955,-0.8381,-0.8804,-0.8929,-0.9087,-0.929,-0.9368,-0.942,-0.9446,-0.9577,-0.9621,-0.9706,-0.9766,-0.9844,-1.0025,-1.0076,-1.0213,-1.0368,-1.0496,-1.0633,-1.0837,-1.104,-1.1217,-1.1418,-1.1494,-1.1502,-1.1502,-1.1578,-1.1628,-1.1628,-1.1877,-1.22,-1.2387,-1.2569,-1.2676,-1.2764,-1.2813,-1.2876,-1.2973,-1.3094,-1.3214,-1.3324,-1.3338,-1.3481,-1.3681,-1.3939,-1.4127,-1.4246,-1.4373,-1.4511,-1.4604,-1.4696,-1.4754,-1.4811,-1.4891,-1.4891,-1.5051,-1.5368,-1.5614,-1.5703,-1.5792,-1.5836,-1.5859,-1.5859,-1.5881,-1.5925,-1.5947,-1.6022,-1.611,-1.6262,-1.6448,-1.6556,-1.6663,-1.6705,-1.6727,-1.6791,-1.6918,-1.696,-1.6981,-1.7023,-1.7107,-1.7212,-1.7399,-1.7543,-1.772,-1.7788,-1.7848,-1.7889,-1.7935,-1.7975,-1.7982,-1.8089,-1.8163,-1.8143,-1.8143,-1.8262,-1.8406,-1.8562,-1.8736,-1.8931,-1.9082,-1.9191,-1.9284,-1.9413,-1.9468,-1.9541,-1.9741,-0.5365,-0.5578,-0.5936,-0.6193,-0.6346,-0.6603,-0.6928,-0.73,-0.7488,-0.7869,-0.8434,-0.8672,-0.8877,-0.9061,-0.9133,-0.9152,-0.9178,-0.9283,-0.9361,-0.9446,-0.9472,-0.9524,-0.9629,-0.9706,-0.9784,-0.9895,-0.9999,-1.0172,-1.0454,-1.0531,-1.0633,-1.0888,-1.0947,-1.0947,-1.0972,-1.1074,-1.115,-1.115,-1.1326,-1.1544,-1.1843,-1.2051,-1.2283,-1.2382,-1.2455,-1.2544,-1.2642,-1.274,-1.2861,-1.2997,-1.3069,-1.3228,-1.342,-1.3668,-1.381,-1.3952,-1.4069,-1.4244,-1.4372,-1.4465,-1.4557,-1.4615,-1.4684,-1.473,-1.4845,-1.5131,-1.5165,-1.5278,-1.539,-1.5435,-1.5446,-1.5446,-1.5446,-1.5468,-1.5513,-1.5558,-1.5714,-1.5925,-1.6088,-1.6241,-1.6328,-1.6349,-1.6405,-1.6461,-1.6556,-1.6629,-1.6671,-1.6748,-1.6799,-1.6884,-1.7052,-1.7233,-1.7399,-1.7563,-1.7632,-1.7672,-1.7693,-1.774,-1.7808,-1.7801,-1.7835,-1.7922,-1.8003,-1.8103,-1.8189,-1.8347,-1.8523,-1.8721,-1.886,-1.8936,-1.9078,-1.9205,-1.9242,-1.9246,-1.9431,-0.483,-0.5105,-0.5448,-0.5734,-0.6054,-0.6153,-0.6472,-0.6902,-0.7074,-0.7354,-0.7842,-0.8381,-0.8646,-0.8824,-0.8956,-0.9028,-0.9054,-0.9001,-0.9054,-0.9133,-0.9133,-0.9211,-0.9263,-0.929,-0.9342,-0.9368,-0.9446,-0.9662,-0.9921,-0.9947,-1.0043,-1.0308,-1.0385,-1.0385,-1.0445,-1.0547,-1.0641,-1.0744,-1.0896,-1.1023,-1.1251,-1.1528,-1.1803,-1.1952,-1.2026,-1.2085,-1.2234,-1.2348,-1.2471,-1.2666,-1.2847,-1.3031,-1.3166,-1.3358,-1.3525,-1.3634,-1.381,-1.3939,-1.4044,-1.415,-1.4267,-1.4361,-1.4465,-1.4557,-1.4661,-1.4696,-1.4731,-1.4823,-1.4937,-1.5074,-1.5062,-1.5062,-1.5062,-1.5085,-1.5108,-1.5153,-1.5356,-1.5547,-1.5714,-1.5879,-1.5957,-1.6001,-1.6078,-1.6134,-1.6222,-1.6297,-1.6371,-1.6457,-1.6556,-1.6641,-1.6757,-1.6939,-1.7086,-1.724,-1.7406,-1.7496,-1.7537,-1.7578,-1.7625,-1.7544,-1.7537,-1.7672,-1.7788,-1.7882,-1.8003,-1.8149,-1.8288,-1.847,-1.8592,-1.8707,-1.8855,-1.8979,-1.8998,-1.9021,-1.9101,-0.4559,-0.4971,-0.5238,-0.5341,-0.5339,-0.5798,-0.6108,-0.6289,-0.6833,-0.7192,-0.7341,-0.7685,-0.8076,-0.8474,-0.8501,-0.8553,-0.8606,-0.8606,-0.8745,-0.8824,-0.8791,-0.887,-0.8929,-0.887,-0.8903,-0.8903,-0.8956,-0.9087,-0.9316,-0.9368,-0.9491,-0.9777,-0.9755,-0.9814,-0.9932,-1.0038,-1.0089,-1.0216,-1.0391,-1.0551,-1.0719,-1.0998,-1.1343,-1.1469,-1.1544,-1.1678,-1.1803,-1.1927,-1.215,-1.2372,-1.2593,-1.2788,-1.2934,-1.3055,-1.319,-1.3358,-1.3549,-1.3668,-1.3763,-1.3881,-1.3986,-1.4022,-1.4104,-1.4138,-1.4185,-1.4185,-1.4244,-1.4291,-1.4454,-1.4719,-1.4788,-1.4777,-1.48,-1.4823,-1.4869,-1.4903,-1.5006,-1.5153,-1.5289,-1.5424,-1.5536,-1.5637,-1.5748,-1.5826,-1.5859,-1.5935,-1.6022,-1.611,-1.6175,-1.6306,-1.6457,-1.662,-1.6769,-1.7002,-1.7212,-1.7372,-1.7434,-1.7455,-1.7475,-1.7434,-1.7434,-1.7496,-1.7611,-1.7699,-1.7821,-1.7969,-1.8109,-1.8214,-1.8299,-1.8436,-1.8625,-1.875,-1.8769,-1.8774,-1.8817]}]]